<?xml version='1.0' encoding='UTF-8'?><gpx version="1.1" creator="JPX - https://github.com/jenetics/jpx" xmlns="http://www.topografix.com/GPX/1/1"><trk><trkseg><trkpt lat="48.373248516276554" lon="-4.5256487267414105"><ele>66.0</ele><time>2026-03-30T12:25:07Z</time></trkpt><trkpt lat="48.37342581790284" lon="-4.525670534617268"><ele>66.0</ele><time>2026-03-30T12:25:19.999Z</time></trkpt><trkpt lat="48.373506424508996" lon="-4.5256713153775046"><ele>66.0</ele><time>2026-03-30T12:25:23.999Z</time></trkpt><trkpt lat="48.373571091239164" lon="-4.525684812683376"><ele>66.0</ele><time>2026-03-30T12:25:26.999Z</time></trkpt><trkpt lat="48.373638815375315" lon="-4.525704542563573"><ele>66.0</ele><time>2026-03-30T12:25:29.999Z</time></trkpt><trkpt lat="48.37371835268091" lon="-4.525742795960163"><ele>66.0</ele><time>2026-03-30T12:25:33.999Z</time></trkpt><trkpt lat="48.37379355027498" lon="-4.525763874037918"><ele>66.0</ele><time>2026-03-30T12:25:37Z</time></trkpt><trkpt lat="48.373873809953466" lon="-4.525788843787307"><ele>66.0</ele><time>2026-03-30T12:25:40Z</time></trkpt><trkpt lat="48.37394961765758" lon="-4.525828183238415"><ele>66.0</ele><time>2026-03-30T12:25:43Z</time></trkpt><trkpt lat="48.374015668584306" lon="-4.525893329525015"><ele>66.0</ele><time>2026-03-30T12:25:46Z</time></trkpt><trkpt lat="48.37409410029692" lon="-4.525926105505471"><ele>66.0</ele><time>2026-03-30T12:25:49Z</time></trkpt><trkpt lat="48.37414691076048" lon="-4.525984341995829"><ele>66.33333333333333</ele><time>2026-03-30T12:25:52Z</time></trkpt><trkpt lat="48.37411546236454" lon="-4.526100582826938"><ele>66.66666666666667</ele><time>2026-03-30T12:25:55Z</time></trkpt><trkpt lat="48.374093701630656" lon="-4.526225249029537"><ele>67.0</ele><time>2026-03-30T12:25:58Z</time></trkpt><trkpt lat="48.37407365723232" lon="-4.526317506270314"><ele>67.33333333333334</ele><time>2026-03-30T12:26:00Z</time></trkpt><trkpt lat="48.37404441371415" lon="-4.526439171567173"><ele>67.66666666666667</ele><time>2026-03-30T12:26:03Z</time></trkpt><trkpt lat="48.374007086211584" lon="-4.5265326344290715"><ele>68.0</ele><time>2026-03-30T12:26:05Z</time></trkpt><trkpt lat="48.37396013656603" lon="-4.526611358500316"><ele>67.99999999999999</ele><time>2026-03-30T12:26:07Z</time></trkpt><trkpt lat="48.37391665812331" lon="-4.5266866050216565"><ele>68.0</ele><time>2026-03-30T12:26:09Z</time></trkpt><trkpt lat="48.37387011029124" lon="-4.5267583039719"><ele>68.0</ele><time>2026-03-30T12:26:11Z</time></trkpt><trkpt lat="48.373823192156486" lon="-4.526831030569547"><ele>68.0</ele><time>2026-03-30T12:26:13Z</time></trkpt><trkpt lat="48.373772459923984" lon="-4.526911436393251"><ele>68.0</ele><time>2026-03-30T12:26:15Z</time></trkpt><trkpt lat="48.373719692594875" lon="-4.52699634036979"><ele>67.99999999999999</ele><time>2026-03-30T12:26:17Z</time></trkpt><trkpt lat="48.37366810631077" lon="-4.527084683335863"><ele>68.0</ele><time>2026-03-30T12:26:19Z</time></trkpt><trkpt lat="48.37361593184292" lon="-4.527152580420724"><ele>68.42857142857142</ele><time>2026-03-30T12:26:21Z</time></trkpt><trkpt lat="48.373566961804976" lon="-4.527231098987835"><ele>68.85714285714286</ele><time>2026-03-30T12:26:23Z</time></trkpt><trkpt lat="48.37351579558488" lon="-4.52730087210742"><ele>69.28571428571428</ele><time>2026-03-30T12:26:25Z</time></trkpt><trkpt lat="48.373467764546106" lon="-4.527390210224105"><ele>69.71428571428571</ele><time>2026-03-30T12:26:27Z</time></trkpt><trkpt lat="48.37341703183332" lon="-4.527472329408893"><ele>70.14285714285714</ele><time>2026-03-30T12:26:29Z</time></trkpt><trkpt lat="48.3733705773518" lon="-4.527549458191748"><ele>70.57142857142857</ele><time>2026-03-30T12:26:31Z</time></trkpt><trkpt lat="48.37331337193325" lon="-4.5276500480362705"><ele>71.0</ele><time>2026-03-30T12:26:34Z</time></trkpt><trkpt lat="48.3732497724366" lon="-4.527767986034711"><ele>71.0</ele><time>2026-03-30T12:26:36Z</time></trkpt><trkpt lat="48.37319313230058" lon="-4.527869818025248"><ele>71.0</ele><time>2026-03-30T12:26:38Z</time></trkpt><trkpt lat="48.37312239874445" lon="-4.52798830801117"><ele>71.0</ele><time>2026-03-30T12:26:40Z</time></trkpt><trkpt lat="48.37309223881664" lon="-4.528157108497543"><ele>71.0</ele><time>2026-03-30T12:26:42Z</time></trkpt><trkpt lat="48.37305209811905" lon="-4.5283159943845135"><ele>71.0</ele><time>2026-03-30T12:26:44Z</time></trkpt><trkpt lat="48.37302449190091" lon="-4.528485294943563"><ele>70.6</ele><time>2026-03-30T12:26:46Z</time></trkpt><trkpt lat="48.37299831557941" lon="-4.52863765688344"><ele>70.19999999999999</ele><time>2026-03-30T12:26:48Z</time></trkpt><trkpt lat="48.372967604288455" lon="-4.528775971033765"><ele>69.80000000000001</ele><time>2026-03-30T12:26:50Z</time></trkpt><trkpt lat="48.37306683401005" lon="-4.52889713183955"><ele>69.4</ele><time>2026-03-30T12:26:52Z</time></trkpt><trkpt lat="48.373175072308506" lon="-4.528934486355585"><ele>69.0</ele><time>2026-03-30T12:26:54Z</time></trkpt><trkpt lat="48.37326707731221" lon="-4.529001939699258"><ele>69.0</ele><time>2026-03-30T12:26:56Z</time></trkpt><trkpt lat="48.37329030498588" lon="-4.529168082292804"><ele>69.0</ele><time>2026-03-30T12:26:58Z</time></trkpt><trkpt lat="48.37327045452582" lon="-4.52934461364288"><ele>69.0</ele><time>2026-03-30T12:27:00Z</time></trkpt><trkpt lat="48.37325475770997" lon="-4.529438291364193"><ele>69.0</ele><time>2026-03-30T12:27:01Z</time></trkpt><trkpt lat="48.373234394515634" lon="-4.529537446987086"><ele>69.0</ele><time>2026-03-30T12:27:02Z</time></trkpt><trkpt lat="48.37321946150583" lon="-4.5296350818691336"><ele>69.0</ele><time>2026-03-30T12:27:03Z</time></trkpt><trkpt lat="48.373222727862746" lon="-4.529743069518403"><ele>68.5</ele><time>2026-03-30T12:27:04Z</time></trkpt><trkpt lat="48.37322248437545" lon="-4.529873549912447"><ele>68.0</ele><time>2026-03-30T12:27:05Z</time></trkpt><trkpt lat="48.37322163707226" lon="-4.52999160759119"><ele>67.5</ele><time>2026-03-30T12:27:06Z</time></trkpt><trkpt lat="48.37322079571521" lon="-4.530108837000798"><ele>67.0</ele><time>2026-03-30T12:27:07Z</time></trkpt><trkpt lat="48.373219914997044" lon="-4.530217609985003"><ele>66.5</ele><time>2026-03-30T12:27:08Z</time></trkpt><trkpt lat="48.37321853202977" lon="-4.530322715648302"><ele>66.0</ele><time>2026-03-30T12:27:09Z</time></trkpt><trkpt lat="48.37321486156929" lon="-4.53042742085792"><ele>64.5</ele><time>2026-03-30T12:27:10Z</time></trkpt><trkpt lat="48.373209282953475" lon="-4.530529108720977"><ele>63.0</ele><time>2026-03-30T12:27:11Z</time></trkpt><trkpt lat="48.37319335370221" lon="-4.5306823912712675"><ele>61.5</ele><time>2026-03-30T12:27:13Z</time></trkpt><trkpt lat="48.37319316143591" lon="-4.530794275431591"><ele>60.0</ele><time>2026-03-30T12:27:15Z</time></trkpt><trkpt lat="48.373291706414896" lon="-4.5307831062909685"><ele>58.5</ele><time>2026-03-30T12:27:16Z</time></trkpt><trkpt lat="48.37335682005382" lon="-4.530805890091524"><ele>57.0</ele><time>2026-03-30T12:27:17Z</time></trkpt><trkpt lat="48.37347494244674" lon="-4.53084419009816"><ele>57.0</ele><time>2026-03-30T12:27:19Z</time></trkpt><trkpt lat="48.37353670650696" lon="-4.530864216478437"><ele>56.99999999999999</ele><time>2026-03-30T12:27:20Z</time></trkpt><trkpt lat="48.37359878507896" lon="-4.53088429921891"><ele>57.0</ele><time>2026-03-30T12:27:21Z</time></trkpt><trkpt lat="48.37366060673543" lon="-4.530903677235342"><ele>57.0</ele><time>2026-03-30T12:27:22Z</time></trkpt><trkpt lat="48.373728390511836" lon="-4.53092670670198"><ele>56.99999999999999</ele><time>2026-03-30T12:27:23Z</time></trkpt><trkpt lat="48.37379518575111" lon="-4.530950521090863"><ele>57.0</ele><time>2026-03-30T12:27:24Z</time></trkpt><trkpt lat="48.37386270438445" lon="-4.5309766093036945"><ele>57.0</ele><time>2026-03-30T12:27:25Z</time></trkpt><trkpt lat="48.37393081952812" lon="-4.531004265875811"><ele>57.666666666666664</ele><time>2026-03-30T12:27:26Z</time></trkpt><trkpt lat="48.373993599326184" lon="-4.531030508056569"><ele>58.33333333333333</ele><time>2026-03-30T12:27:27Z</time></trkpt><trkpt lat="48.37410974266611" lon="-4.531085732024137"><ele>59.0</ele><time>2026-03-30T12:27:29Z</time></trkpt><trkpt lat="48.37419512745397" lon="-4.531144010181982"><ele>59.666666666666664</ele><time>2026-03-30T12:27:31Z</time></trkpt><trkpt lat="48.37423910631625" lon="-4.53121387292709"><ele>60.33333333333333</ele><time>2026-03-30T12:27:34Z</time></trkpt><trkpt lat="48.37427171855454" lon="-4.531316738934796"><ele>61.0</ele><time>2026-03-30T12:27:37Z</time></trkpt><trkpt lat="48.37439331307935" lon="-4.531317910401431"><ele>60.99999999999999</ele><time>2026-03-30T12:27:40Z</time></trkpt><trkpt lat="48.37446193366069" lon="-4.531404518257917"><ele>61.0</ele><time>2026-03-30T12:27:42Z</time></trkpt><trkpt lat="48.37453903991806" lon="-4.5314622661572495"><ele>61.0</ele><time>2026-03-30T12:27:44Z</time></trkpt><trkpt lat="48.37462926225287" lon="-4.531506147660811"><ele>61.0</ele><time>2026-03-30T12:27:46Z</time></trkpt><trkpt lat="48.37470762625727" lon="-4.531560971080763"><ele>60.99999999999999</ele><time>2026-03-30T12:27:48Z</time></trkpt><trkpt lat="48.37478680310259" lon="-4.531614601093849"><ele>61.0</ele><time>2026-03-30T12:27:50Z</time></trkpt><trkpt lat="48.37485612965712" lon="-4.531679257992188"><ele>61.166666666666664</ele><time>2026-03-30T12:27:52Z</time></trkpt><trkpt lat="48.37491699881623" lon="-4.531760043480216"><ele>61.33333333333333</ele><time>2026-03-30T12:27:54Z</time></trkpt><trkpt lat="48.37493890926045" lon="-4.531860893335017"><ele>61.5</ele><time>2026-03-30T12:27:56Z</time></trkpt><trkpt lat="48.374888761710295" lon="-4.531940660045006"><ele>61.66666666666667</ele><time>2026-03-30T12:27:58Z</time></trkpt><trkpt lat="48.37482974107815" lon="-4.532006002483734"><ele>61.833333333333336</ele><time>2026-03-30T12:28:01Z</time></trkpt><trkpt lat="48.37476968825743" lon="-4.532090901246248"><ele>62.0</ele><time>2026-03-30T12:28:04Z</time></trkpt><trkpt lat="48.37471763731216" lon="-4.532187431670793"><ele>63.16666666666667</ele><time>2026-03-30T12:28:07Z</time></trkpt><trkpt lat="48.374660193113144" lon="-4.532275979959788"><ele>64.33333333333334</ele><time>2026-03-30T12:28:10Z</time></trkpt><trkpt lat="48.374604600233766" lon="-4.532344297340635"><ele>65.5</ele><time>2026-03-30T12:28:13Z</time></trkpt><trkpt lat="48.37454704631705" lon="-4.532422771478805"><ele>66.66666666666667</ele><time>2026-03-30T12:28:16Z</time></trkpt><trkpt lat="48.37449941339455" lon="-4.532529645980809"><ele>67.83333333333333</ele><time>2026-03-30T12:28:19Z</time></trkpt><trkpt lat="48.374448698123295" lon="-4.532623836064729"><ele>69.0</ele><time>2026-03-30T12:28:22Z</time></trkpt><trkpt lat="48.374390729382284" lon="-4.532727654708939"><ele>69.0</ele><time>2026-03-30T12:28:25Z</time></trkpt><trkpt lat="48.3743689172081" lon="-4.532827282124776"><ele>69.0</ele><time>2026-03-30T12:28:27Z</time></trkpt><trkpt lat="48.37433410088484" lon="-4.53291313722952"><ele>69.0</ele><time>2026-03-30T12:28:29Z</time></trkpt><trkpt lat="48.37427905093724" lon="-4.533009728924905"><ele>69.0</ele><time>2026-03-30T12:28:32Z</time></trkpt><trkpt lat="48.37423565251876" lon="-4.533111075181476"><ele>69.0</ele><time>2026-03-30T12:28:34Z</time></trkpt><trkpt lat="48.374189630590934" lon="-4.533228964157145"><ele>69.0</ele><time>2026-03-30T12:28:37Z</time></trkpt><trkpt lat="48.37413643857831" lon="-4.533322636583935"><ele>70.2</ele><time>2026-03-30T12:28:40Z</time></trkpt><trkpt lat="48.374090608631754" lon="-4.533424089366847"><ele>71.4</ele><time>2026-03-30T12:28:43Z</time></trkpt><trkpt lat="48.374034603685" lon="-4.53353987235132"><ele>72.6</ele><time>2026-03-30T12:28:46Z</time></trkpt><trkpt lat="48.37399520643739" lon="-4.533666623342299"><ele>73.8</ele><time>2026-03-30T12:28:49Z</time></trkpt><trkpt lat="48.373967244191434" lon="-4.5337981952850965"><ele>75.0</ele><time>2026-03-30T12:28:52Z</time></trkpt><trkpt lat="48.373932356194565" lon="-4.533921234174707"><ele>75.0</ele><time>2026-03-30T12:28:55Z</time></trkpt><trkpt lat="48.373903431803086" lon="-4.534043504340569"><ele>75.0</ele><time>2026-03-30T12:28:58Z</time></trkpt><trkpt lat="48.373875930019025" lon="-4.534130572681643"><ele>75.0</ele><time>2026-03-30T12:29:00Z</time></trkpt><trkpt lat="48.37384649203947" lon="-4.534256627573544"><ele>75.0</ele><time>2026-03-30T12:29:03Z</time></trkpt><trkpt lat="48.373812428746014" lon="-4.534385070676619"><ele>75.0</ele><time>2026-03-30T12:29:06Z</time></trkpt><trkpt lat="48.373783276771945" lon="-4.534496503956435"><ele>75.0</ele><time>2026-03-30T12:29:09Z</time></trkpt><trkpt lat="48.37376930372274" lon="-4.534623283797284"><ele>75.5</ele><time>2026-03-30T12:29:11Z</time></trkpt><trkpt lat="48.373758810499695" lon="-4.534718528861162"><ele>76.0</ele><time>2026-03-30T12:29:12Z</time></trkpt><trkpt lat="48.37373415649523" lon="-4.534840737242212"><ele>76.5</ele><time>2026-03-30T12:29:14Z</time></trkpt><trkpt lat="48.37371506414617" lon="-4.534979169363422"><ele>77.0</ele><time>2026-03-30T12:29:16Z</time></trkpt><trkpt lat="48.373686590344185" lon="-4.535110371375552"><ele>77.5</ele><time>2026-03-30T12:29:18Z</time></trkpt><trkpt lat="48.373657886824155" lon="-4.535230610151763"><ele>78.0</ele><time>2026-03-30T12:29:20Z</time></trkpt><trkpt lat="48.373624168691485" lon="-4.535344629158508"><ele>78.5</ele><time>2026-03-30T12:29:22Z</time></trkpt><trkpt lat="48.37359599753813" lon="-4.5354630941655785"><ele>79.0</ele><time>2026-03-30T12:29:24Z</time></trkpt><trkpt lat="48.37357536522402" lon="-4.535582859680346"><ele>79.5</ele><time>2026-03-30T12:29:26Z</time></trkpt><trkpt lat="48.373549874036016" lon="-4.535698422664191"><ele>80.0</ele><time>2026-03-30T12:29:28Z</time></trkpt><trkpt lat="48.37352201510686" lon="-4.535815342566702"><ele>80.5</ele><time>2026-03-30T12:29:30Z</time></trkpt><trkpt lat="48.37350342772624" lon="-4.535935601655301"><ele>81.0</ele><time>2026-03-30T12:29:32Z</time></trkpt><trkpt lat="48.373489808157515" lon="-4.536059768195602"><ele>81.0</ele><time>2026-03-30T12:29:34Z</time></trkpt><trkpt lat="48.37349510358086" lon="-4.536178608588032"><ele>81.0</ele><time>2026-03-30T12:29:36Z</time></trkpt><trkpt lat="48.37350556399428" lon="-4.536299460585393"><ele>81.0</ele><time>2026-03-30T12:29:38Z</time></trkpt><trkpt lat="48.37350622713009" lon="-4.536416097841516"><ele>81.0</ele><time>2026-03-30T12:29:40Z</time></trkpt><trkpt lat="48.37351526680986" lon="-4.536528917561694"><ele>81.0</ele><time>2026-03-30T12:29:42Z</time></trkpt><trkpt lat="48.373514535477625" lon="-4.536643553047404"><ele>81.0</ele><time>2026-03-30T12:29:44Z</time></trkpt><trkpt lat="48.373505385122186" lon="-4.5367564985710676"><ele>81.57142857142857</ele><time>2026-03-30T12:29:46Z</time></trkpt><trkpt lat="48.3734840724719" lon="-4.536864959016179"><ele>82.14285714285714</ele><time>2026-03-30T12:29:48Z</time></trkpt><trkpt lat="48.373471404138506" lon="-4.536976556222002"><ele>82.71428571428572</ele><time>2026-03-30T12:29:50.001Z</time></trkpt><trkpt lat="48.373458543182146" lon="-4.537083980027111"><ele>83.28571428571428</ele><time>2026-03-30T12:29:52.001Z</time></trkpt><trkpt lat="48.3734363290138" lon="-4.5371934910747385"><ele>83.85714285714285</ele><time>2026-03-30T12:29:54.001Z</time></trkpt><trkpt lat="48.37341718450637" lon="-4.5373038414553255"><ele>84.42857142857143</ele><time>2026-03-30T12:29:56.001Z</time></trkpt><trkpt lat="48.37339045803542" lon="-4.537398632070141"><ele>85.0</ele><time>2026-03-30T12:29:58.001Z</time></trkpt><trkpt lat="48.37337043931173" lon="-4.5375111502454715"><ele>85.2</ele><time>2026-03-30T12:30:00.001Z</time></trkpt><trkpt lat="48.37332932165636" lon="-4.53761709013742"><ele>85.4</ele><time>2026-03-30T12:30:02.001Z</time></trkpt><trkpt lat="48.3732878402732" lon="-4.53774857644395"><ele>85.6</ele><time>2026-03-30T12:30:04.001Z</time></trkpt><trkpt lat="48.373263369523805" lon="-4.537882401361603"><ele>85.8</ele><time>2026-03-30T12:30:06Z</time></trkpt><trkpt lat="48.373207008979755" lon="-4.538024891435384"><ele>86.0</ele><time>2026-03-30T12:30:08Z</time></trkpt><trkpt lat="48.3731816667206" lon="-4.5382061924297235"><ele>86.19999999999999</ele><time>2026-03-30T12:30:10Z</time></trkpt><trkpt lat="48.3731246631195" lon="-4.538368051698985"><ele>86.39999999999999</ele><time>2026-03-30T12:30:12Z</time></trkpt><trkpt lat="48.373063443963225" lon="-4.5385412735260315"><ele>86.6</ele><time>2026-03-30T12:30:14Z</time></trkpt><trkpt lat="48.373033170243524" lon="-4.538626934375873"><ele>86.8</ele><time>2026-03-30T12:30:15Z</time></trkpt><trkpt lat="48.37297516975955" lon="-4.538794878545974"><ele>87.0</ele><time>2026-03-30T12:30:17Z</time></trkpt><trkpt lat="48.37293977250731" lon="-4.5388930257985"><ele>86.16666666666667</ele><time>2026-03-30T12:30:18Z</time></trkpt><trkpt lat="48.372901084194716" lon="-4.538983831864311"><ele>85.33333333333333</ele><time>2026-03-30T12:30:19Z</time></trkpt><trkpt lat="48.37285807185801" lon="-4.539067717500807"><ele>84.5</ele><time>2026-03-30T12:30:20Z</time></trkpt><trkpt lat="48.37279858879309" lon="-4.539153651942949"><ele>83.66666666666666</ele><time>2026-03-30T12:30:21Z</time></trkpt><trkpt lat="48.37274314731584" lon="-4.539227898499623"><ele>82.83333333333333</ele><time>2026-03-30T12:30:22Z</time></trkpt><trkpt lat="48.372690752354785" lon="-4.539307966490794"><ele>82.0</ele><time>2026-03-30T12:30:23Z</time></trkpt><trkpt lat="48.37263521865597" lon="-4.539395898829153"><ele>82.0</ele><time>2026-03-30T12:30:24Z</time></trkpt><trkpt lat="48.372583480881396" lon="-4.539490328970546"><ele>82.0</ele><time>2026-03-30T12:30:25Z</time></trkpt><trkpt lat="48.37254663471392" lon="-4.539597160372846"><ele>82.0</ele><time>2026-03-30T12:30:26Z</time></trkpt><trkpt lat="48.37251531548256" lon="-4.539717610117949"><ele>82.0</ele><time>2026-03-30T12:30:27Z</time></trkpt><trkpt lat="48.37248266790114" lon="-4.539843023067097"><ele>82.0</ele><time>2026-03-30T12:30:28Z</time></trkpt><trkpt lat="48.372441917478824" lon="-4.539973052309098"><ele>82.0</ele><time>2026-03-30T12:30:29Z</time></trkpt><trkpt lat="48.3724049948239" lon="-4.540096872092698"><ele>81.8</ele><time>2026-03-30T12:30:30Z</time></trkpt><trkpt lat="48.3723660049045" lon="-4.540227624463101"><ele>81.6</ele><time>2026-03-30T12:30:31Z</time></trkpt><trkpt lat="48.37232859290584" lon="-4.540353085375236"><ele>81.39999999999999</ele><time>2026-03-30T12:30:32Z</time></trkpt><trkpt lat="48.372287764568156" lon="-4.540494849123316"><ele>81.19999999999999</ele><time>2026-03-30T12:30:33Z</time></trkpt><trkpt lat="48.37224956829493" lon="-4.540626799873043"><ele>81.0</ele><time>2026-03-30T12:30:34Z</time></trkpt><trkpt lat="48.372213206886656" lon="-4.540752412016766"><ele>79.8</ele><time>2026-03-30T12:30:35Z</time></trkpt><trkpt lat="48.37216571944549" lon="-4.540916459948272"><ele>78.6</ele><time>2026-03-30T12:30:36Z</time></trkpt><trkpt lat="48.37212384923758" lon="-4.541062859895175"><ele>77.4</ele><time>2026-03-30T12:30:37Z</time></trkpt><trkpt lat="48.37208082474031" lon="-4.541212623515876"><ele>76.2</ele><time>2026-03-30T12:30:38Z</time></trkpt><trkpt lat="48.37203927356816" lon="-4.541362538454228"><ele>75.0</ele><time>2026-03-30T12:30:39Z</time></trkpt><trkpt lat="48.3719992078344" lon="-4.541517483787727"><ele>74.0</ele><time>2026-03-30T12:30:40Z</time></trkpt><trkpt lat="48.37194375754291" lon="-4.541671641859252"><ele>73.0</ele><time>2026-03-30T12:30:41Z</time></trkpt><trkpt lat="48.37186896568967" lon="-4.541809196679625"><ele>72.0</ele><time>2026-03-30T12:30:42Z</time></trkpt><trkpt lat="48.37174680704166" lon="-4.541875755634499"><ele>71.0</ele><time>2026-03-30T12:30:43Z</time></trkpt><trkpt lat="48.371630092242334" lon="-4.541923456536863"><ele>71.0</ele><time>2026-03-30T12:30:44Z</time></trkpt><trkpt lat="48.371516839078375" lon="-4.541974176986323"><ele>71.0</ele><time>2026-03-30T12:30:45Z</time></trkpt><trkpt lat="48.37140208217647" lon="-4.542011343328216"><ele>71.0</ele><time>2026-03-30T12:30:46Z</time></trkpt><trkpt lat="48.37128924098408" lon="-4.542049781353111"><ele>71.0</ele><time>2026-03-30T12:30:47Z</time></trkpt><trkpt lat="48.3711772460781" lon="-4.542086748363938"><ele>69.5</ele><time>2026-03-30T12:30:48Z</time></trkpt><trkpt lat="48.37107769858296" lon="-4.542118076196099"><ele>68.0</ele><time>2026-03-30T12:30:49Z</time></trkpt><trkpt lat="48.37098461466494" lon="-4.542123816328278"><ele>66.5</ele><time>2026-03-30T12:30:50Z</time></trkpt><trkpt lat="48.37090122787647" lon="-4.542162661034508"><ele>65.0</ele><time>2026-03-30T12:30:51Z</time></trkpt><trkpt lat="48.37084540851636" lon="-4.542211751878494"><ele>63.50000000000001</ele><time>2026-03-30T12:30:52Z</time></trkpt><trkpt lat="48.37075603424517" lon="-4.542275717151483"><ele>62.0</ele><time>2026-03-30T12:30:54Z</time></trkpt><trkpt lat="48.370695217391095" lon="-4.54231865750744"><ele>62.0</ele><time>2026-03-30T12:30:57Z</time></trkpt><trkpt lat="48.3706816112953" lon="-4.542160716598051"><ele>62.0</ele><time>2026-03-30T12:31:00Z</time></trkpt><trkpt lat="48.370715541592496" lon="-4.542246083419949"><ele>62.0</ele><time>2026-03-30T12:31:03Z</time></trkpt><trkpt lat="48.37066099779765" lon="-4.542133902972695"><ele>62.0</ele><time>2026-03-30T12:31:15Z</time></trkpt><trkpt lat="48.37074882985268" lon="-4.542177231294325"><ele>62.0</ele><time>2026-03-30T12:32:14Z</time></trkpt><trkpt lat="48.37072770013794" lon="-4.542315830748751"><ele>62.00000000000001</ele><time>2026-03-30T12:32:23Z</time></trkpt><trkpt lat="48.37062806532042" lon="-4.5423863299810785"><ele>62.0</ele><time>2026-03-30T12:32:25Z</time></trkpt><trkpt lat="48.37059164775367" lon="-4.542468613695415"><ele>62.0</ele><time>2026-03-30T12:32:26Z</time></trkpt><trkpt lat="48.3705547157793" lon="-4.542550035153827"><ele>62.0</ele><time>2026-03-30T12:32:27Z</time></trkpt><trkpt lat="48.370495357942474" lon="-4.542630710415738"><ele>62.00000000000001</ele><time>2026-03-30T12:32:28Z</time></trkpt><trkpt lat="48.37043139089173" lon="-4.54272231496836"><ele>62.0</ele><time>2026-03-30T12:32:29Z</time></trkpt><trkpt lat="48.37037690722506" lon="-4.5428245459659236"><ele>60.333333333333336</ele><time>2026-03-30T12:32:30Z</time></trkpt><trkpt lat="48.37031169357554" lon="-4.5429202796182535"><ele>58.66666666666667</ele><time>2026-03-30T12:32:31Z</time></trkpt><trkpt lat="48.37024964956604" lon="-4.542971789985519"><ele>57.0</ele><time>2026-03-30T12:32:32Z</time></trkpt><trkpt lat="48.37021345702035" lon="-4.54306885213597"><ele>55.33333333333333</ele><time>2026-03-30T12:32:33Z</time></trkpt><trkpt lat="48.370166994758506" lon="-4.543146827542197"><ele>53.666666666666664</ele><time>2026-03-30T12:32:34Z</time></trkpt><trkpt lat="48.37009484600874" lon="-4.543271258979565"><ele>52.0</ele><time>2026-03-30T12:32:36Z</time></trkpt><trkpt lat="48.37005060471302" lon="-4.54334912060872"><ele>51.99999999999999</ele><time>2026-03-30T12:32:38Z</time></trkpt><trkpt lat="48.370003738398985" lon="-4.543429051360875"><ele>52.0</ele><time>2026-03-30T12:32:44Z</time></trkpt><trkpt lat="48.36994618989414" lon="-4.543485152406476"><ele>52.0</ele><time>2026-03-30T12:32:46Z</time></trkpt><trkpt lat="48.36991567295444" lon="-4.54359343577737"><ele>52.0</ele><time>2026-03-30T12:32:49Z</time></trkpt><trkpt lat="48.36987008579963" lon="-4.543719151083287"><ele>51.99999999999999</ele><time>2026-03-30T12:32:52Z</time></trkpt><trkpt lat="48.36976941827026" lon="-4.543800797246288"><ele>52.0</ele><time>2026-03-30T12:32:54Z</time></trkpt><trkpt lat="48.36966286766016" lon="-4.543845199306424"><ele>52.666666666666664</ele><time>2026-03-30T12:32:56Z</time></trkpt><trkpt lat="48.36959752678908" lon="-4.543833720790109"><ele>53.33333333333333</ele><time>2026-03-30T12:32:57Z</time></trkpt><trkpt lat="48.36948263349413" lon="-4.543846892527684"><ele>54.0</ele><time>2026-03-30T12:32:59Z</time></trkpt><trkpt lat="48.369390591345194" lon="-4.543849647465638"><ele>54.66666666666667</ele><time>2026-03-30T12:33:01Z</time></trkpt><trkpt lat="48.36930778082309" lon="-4.543866248755779"><ele>55.333333333333336</ele><time>2026-03-30T12:33:03Z</time></trkpt><trkpt lat="48.36922593508364" lon="-4.543901617129479"><ele>56.0</ele><time>2026-03-30T12:33:05Z</time></trkpt><trkpt lat="48.36916011044096" lon="-4.543951849639025"><ele>56.0</ele><time>2026-03-30T12:33:07Z</time></trkpt><trkpt lat="48.36910323529786" lon="-4.544001308671793"><ele>56.0</ele><time>2026-03-30T12:33:09Z</time></trkpt><trkpt lat="48.3690523892348" lon="-4.544078280058959"><ele>56.0</ele><time>2026-03-30T12:33:11Z</time></trkpt><trkpt lat="48.368980929632784" lon="-4.544154726260535"><ele>56.0</ele><time>2026-03-30T12:33:14Z</time></trkpt><trkpt lat="48.368912544044285" lon="-4.544240739939752"><ele>56.0</ele><time>2026-03-30T12:33:17Z</time></trkpt><trkpt lat="48.36886282650777" lon="-4.544304508075202"><ele>56.0</ele><time>2026-03-30T12:33:19Z</time></trkpt><trkpt lat="48.36881323343103" lon="-4.544368792451631"><ele>56.0</ele><time>2026-03-30T12:33:21Z</time></trkpt><trkpt lat="48.3687635203315" lon="-4.544434283451905"><ele>56.14285714285714</ele><time>2026-03-30T12:33:23Z</time></trkpt><trkpt lat="48.368713905567596" lon="-4.54450198682585"><ele>56.285714285714285</ele><time>2026-03-30T12:33:25Z</time></trkpt><trkpt lat="48.36862931452838" lon="-4.544547134132565"><ele>56.42857142857143</ele><time>2026-03-30T12:33:28Z</time></trkpt><trkpt lat="48.3685816571431" lon="-4.544610578684033"><ele>56.57142857142857</ele><time>2026-03-30T12:33:30Z</time></trkpt><trkpt lat="48.368533470524994" lon="-4.544679493297055"><ele>56.71428571428571</ele><time>2026-03-30T12:33:32Z</time></trkpt><trkpt lat="48.36846445357235" lon="-4.544767054065423"><ele>56.857142857142854</ele><time>2026-03-30T12:33:35Z</time></trkpt><trkpt lat="48.36842551794728" lon="-4.5448424727664065"><ele>57.0</ele><time>2026-03-30T12:33:37Z</time></trkpt><trkpt lat="48.368384001554084" lon="-4.544917141411231"><ele>57.333333333333336</ele><time>2026-03-30T12:33:39Z</time></trkpt><trkpt lat="48.368334337288516" lon="-4.544975860941988"><ele>57.66666666666667</ele><time>2026-03-30T12:33:40.999Z</time></trkpt><trkpt lat="48.368264407078236" lon="-4.545063796650252"><ele>58.0</ele><time>2026-03-30T12:33:43.999Z</time></trkpt><trkpt lat="48.36821485551758" lon="-4.545136587107645"><ele>58.333333333333336</ele><time>2026-03-30T12:33:45.999Z</time></trkpt><trkpt lat="48.36816234602341" lon="-4.545202420562135"><ele>58.66666666666667</ele><time>2026-03-30T12:33:47.999Z</time></trkpt><trkpt lat="48.368116722675474" lon="-4.54527301117356"><ele>59.0</ele><time>2026-03-30T12:33:49.999Z</time></trkpt><trkpt lat="48.36804648665865" lon="-4.545370134879575"><ele>59.857142857142854</ele><time>2026-03-30T12:33:52.999Z</time></trkpt><trkpt lat="48.36799843336719" lon="-4.545433914820531"><ele>60.71428571428572</ele><time>2026-03-30T12:33:54.999Z</time></trkpt><trkpt lat="48.36794937276811" lon="-4.545507080797878"><ele>61.57142857142858</ele><time>2026-03-30T12:33:56.999Z</time></trkpt><trkpt lat="48.36788057466721" lon="-4.545592439916215"><ele>62.42857142857143</ele><time>2026-03-30T12:33:59.999Z</time></trkpt><trkpt lat="48.36783203361109" lon="-4.545670334050769"><ele>63.28571428571429</ele><time>2026-03-30T12:34:02Z</time></trkpt><trkpt lat="48.36778210107968" lon="-4.545738866084422"><ele>64.14285714285715</ele><time>2026-03-30T12:34:04Z</time></trkpt><trkpt lat="48.36772457702163" lon="-4.545804789446946"><ele>65.0</ele><time>2026-03-30T12:34:06Z</time></trkpt><trkpt lat="48.3676615648942" lon="-4.5458660677908265"><ele>65.0</ele><time>2026-03-30T12:34:08Z</time></trkpt><trkpt lat="48.367611699681376" lon="-4.545934790788268"><ele>65.0</ele><time>2026-03-30T12:34:10Z</time></trkpt><trkpt lat="48.36754358696005" lon="-4.54598792980716"><ele>65.0</ele><time>2026-03-30T12:34:14Z</time></trkpt><trkpt lat="48.367499071500305" lon="-4.546085544355327"><ele>65.0</ele><time>2026-03-30T12:34:17Z</time></trkpt><trkpt lat="48.3674310006356" lon="-4.546149964049439"><ele>65.0</ele><time>2026-03-30T12:34:20Z</time></trkpt><trkpt lat="48.36737145785181" lon="-4.546204763032927"><ele>65.0</ele><time>2026-03-30T12:34:22Z</time></trkpt><trkpt lat="48.36729502036542" lon="-4.546203435733224"><ele>65.33333333333334</ele><time>2026-03-30T12:34:25Z</time></trkpt><trkpt lat="48.367263566434374" lon="-4.546295581113086"><ele>65.66666666666667</ele><time>2026-03-30T12:34:27Z</time></trkpt><trkpt lat="48.36718757753976" lon="-4.5463655553826"><ele>66.0</ele><time>2026-03-30T12:34:30Z</time></trkpt><trkpt lat="48.36714280354652" lon="-4.546466852564094"><ele>66.33333333333333</ele><time>2026-03-30T12:34:32Z</time></trkpt><trkpt lat="48.3671115839355" lon="-4.546566458836753"><ele>66.66666666666666</ele><time>2026-03-30T12:34:33Z</time></trkpt><trkpt lat="48.36708212243322" lon="-4.546722693366303"><ele>67.0</ele><time>2026-03-30T12:34:35Z</time></trkpt><trkpt lat="48.367061805073114" lon="-4.546866609120672"><ele>67.33333333333333</ele><time>2026-03-30T12:34:37Z</time></trkpt><trkpt lat="48.36707217457824" lon="-4.546999720459296"><ele>67.66666666666666</ele><time>2026-03-30T12:34:39Z</time></trkpt><trkpt lat="48.36710805399826" lon="-4.547116772925567"><ele>68.0</ele><time>2026-03-30T12:34:41Z</time></trkpt><trkpt lat="48.36714377123182" lon="-4.547225585186594"><ele>68.33333333333333</ele><time>2026-03-30T12:34:43Z</time></trkpt><trkpt lat="48.36719430594135" lon="-4.547320659118109"><ele>68.66666666666667</ele><time>2026-03-30T12:34:45Z</time></trkpt><trkpt lat="48.36723878275911" lon="-4.547421618965078"><ele>69.0</ele><time>2026-03-30T12:34:47Z</time></trkpt><trkpt lat="48.367289021711024" lon="-4.547506833051604"><ele>69.0</ele><time>2026-03-30T12:34:49Z</time></trkpt><trkpt lat="48.3673392384769" lon="-4.547599156002366"><ele>69.0</ele><time>2026-03-30T12:34:51Z</time></trkpt><trkpt lat="48.36739361821675" lon="-4.5476889859974925"><ele>69.0</ele><time>2026-03-30T12:34:53Z</time></trkpt><trkpt lat="48.367442507578154" lon="-4.5477696998916795"><ele>69.0</ele><time>2026-03-30T12:34:56Z</time></trkpt><trkpt lat="48.367483015720325" lon="-4.5478423246845825"><ele>69.0</ele><time>2026-03-30T12:34:57Z</time></trkpt><trkpt lat="48.36754314087533" lon="-4.547960892007524"><ele>69.0</ele><time>2026-03-30T12:34:59Z</time></trkpt><trkpt lat="48.36760222046205" lon="-4.548049338253986"><ele>69.16666666666667</ele><time>2026-03-30T12:35:01Z</time></trkpt><trkpt lat="48.36765966879805" lon="-4.548149502497783"><ele>69.33333333333333</ele><time>2026-03-30T12:35:03Z</time></trkpt><trkpt lat="48.36771599481358" lon="-4.54825222606876"><ele>69.5</ele><time>2026-03-30T12:35:05Z</time></trkpt><trkpt lat="48.367768014321264" lon="-4.548353253423795"><ele>69.66666666666666</ele><time>2026-03-30T12:35:07Z</time></trkpt><trkpt lat="48.36782451772506" lon="-4.548439056108758"><ele>69.83333333333333</ele><time>2026-03-30T12:35:09Z</time></trkpt><trkpt lat="48.36786708505531" lon="-4.548533557348546"><ele>70.0</ele><time>2026-03-30T12:35:12Z</time></trkpt><trkpt lat="48.367926155917885" lon="-4.548639250266314"><ele>70.0</ele><time>2026-03-30T12:35:15Z</time></trkpt><trkpt lat="48.367979508908135" lon="-4.548703222498919"><ele>70.0</ele><time>2026-03-30T12:35:16Z</time></trkpt><trkpt lat="48.368042239758026" lon="-4.548788898050911"><ele>70.0</ele><time>2026-03-30T12:35:18Z</time></trkpt><trkpt lat="48.36810112729442" lon="-4.548883420496139"><ele>70.0</ele><time>2026-03-30T12:35:20Z</time></trkpt><trkpt lat="48.36816225824766" lon="-4.548971811670191"><ele>70.0</ele><time>2026-03-30T12:35:22Z</time></trkpt><trkpt lat="48.36822344982129" lon="-4.549064659698076"><ele>70.0</ele><time>2026-03-30T12:35:24Z</time></trkpt><trkpt lat="48.36828183389791" lon="-4.549160597944431"><ele>70.16666666666666</ele><time>2026-03-30T12:35:25.999Z</time></trkpt><trkpt lat="48.368340133153694" lon="-4.54924977288841"><ele>70.33333333333333</ele><time>2026-03-30T12:35:27.999Z</time></trkpt><trkpt lat="48.368392457296046" lon="-4.549339568683629"><ele>70.5</ele><time>2026-03-30T12:35:29.999Z</time></trkpt><trkpt lat="48.368448628703405" lon="-4.549434445280174"><ele>70.66666666666667</ele><time>2026-03-30T12:35:31.999Z</time></trkpt><trkpt lat="48.36850308167828" lon="-4.549522818514689"><ele>70.83333333333334</ele><time>2026-03-30T12:35:33.999Z</time></trkpt><trkpt lat="48.368563781587774" lon="-4.549606286418932"><ele>71.0</ele><time>2026-03-30T12:35:35.999Z</time></trkpt><trkpt lat="48.36861794068436" lon="-4.549693921737453"><ele>71.16666666666667</ele><time>2026-03-30T12:35:37.999Z</time></trkpt><trkpt lat="48.368676671509235" lon="-4.549788496904973"><ele>71.33333333333334</ele><time>2026-03-30T12:35:39.999Z</time></trkpt><trkpt lat="48.368724446246716" lon="-4.549877610358267"><ele>71.5</ele><time>2026-03-30T12:35:41.999Z</time></trkpt><trkpt lat="48.368780230011794" lon="-4.54995971891159"><ele>71.66666666666667</ele><time>2026-03-30T12:35:43.999Z</time></trkpt><trkpt lat="48.36882914944156" lon="-4.550044790377899"><ele>71.83333333333333</ele><time>2026-03-30T12:35:45.999Z</time></trkpt><trkpt lat="48.36887313758591" lon="-4.5501290709480235"><ele>72.0</ele><time>2026-03-30T12:35:48.999Z</time></trkpt><trkpt lat="48.36895028366636" lon="-4.550265728519833"><ele>72.0</ele><time>2026-03-30T12:35:51.999Z</time></trkpt><trkpt lat="48.369019765512405" lon="-4.55036643377071"><ele>72.0</ele><time>2026-03-30T12:35:53.999Z</time></trkpt><trkpt lat="48.36908063385616" lon="-4.550468085649964"><ele>72.0</ele><time>2026-03-30T12:35:55.999Z</time></trkpt><trkpt lat="48.36913826894582" lon="-4.550557278978691"><ele>72.0</ele><time>2026-03-30T12:35:57.999Z</time></trkpt><trkpt lat="48.36919820422865" lon="-4.550638218699755"><ele>72.0</ele><time>2026-03-30T12:35:59.999Z</time></trkpt><trkpt lat="48.36924706779478" lon="-4.550726539745307"><ele>72.0</ele><time>2026-03-30T12:36:01.999Z</time></trkpt><trkpt lat="48.36930730438095" lon="-4.550830409357452"><ele>72.5</ele><time>2026-03-30T12:36:03.999Z</time></trkpt><trkpt lat="48.369370436068806" lon="-4.550924737607711"><ele>73.0</ele><time>2026-03-30T12:36:05.999Z</time></trkpt><trkpt lat="48.36942817259333" lon="-4.551023479942802"><ele>73.5</ele><time>2026-03-30T12:36:08Z</time></trkpt><trkpt lat="48.36948751963736" lon="-4.551120363035115"><ele>74.0</ele><time>2026-03-30T12:36:10Z</time></trkpt><trkpt lat="48.36954999325356" lon="-4.551214380255777"><ele>74.5</ele><time>2026-03-30T12:36:12Z</time></trkpt><trkpt lat="48.36961511494744" lon="-4.5513151260736775"><ele>75.0</ele><time>2026-03-30T12:36:14Z</time></trkpt><trkpt lat="48.36968057424842" lon="-4.551418359271091"><ele>75.8</ele><time>2026-03-30T12:36:16Z</time></trkpt><trkpt lat="48.36974657953724" lon="-4.5515202646089215"><ele>76.6</ele><time>2026-03-30T12:36:18Z</time></trkpt><trkpt lat="48.369808755776404" lon="-4.551627952846418"><ele>77.4</ele><time>2026-03-30T12:36:20Z</time></trkpt><trkpt lat="48.36987015857189" lon="-4.55173701861759"><ele>78.2</ele><time>2026-03-30T12:36:22Z</time></trkpt><trkpt lat="48.369935718705705" lon="-4.551843302893143"><ele>79.0</ele><time>2026-03-30T12:36:24Z</time></trkpt><trkpt lat="48.36999972382408" lon="-4.551949427368196"><ele>79.33333333333333</ele><time>2026-03-30T12:36:26Z</time></trkpt><trkpt lat="48.37006678074191" lon="-4.552044451159539"><ele>79.66666666666666</ele><time>2026-03-30T12:36:28Z</time></trkpt><trkpt lat="48.37013511215356" lon="-4.5521461992819265"><ele>80.0</ele><time>2026-03-30T12:36:31Z</time></trkpt><trkpt lat="48.37019522276568" lon="-4.552260011239081"><ele>80.33333333333333</ele><time>2026-03-30T12:36:33Z</time></trkpt><trkpt lat="48.370241283096576" lon="-4.5523416626568745"><ele>80.66666666666667</ele><time>2026-03-30T12:36:35Z</time></trkpt><trkpt lat="48.37029488754689" lon="-4.552444650381016"><ele>81.0</ele><time>2026-03-30T12:36:37Z</time></trkpt><trkpt lat="48.370366669475565" lon="-4.552546852925772"><ele>81.0</ele><time>2026-03-30T12:36:39Z</time></trkpt><trkpt lat="48.3704146271283" lon="-4.5526314225150175"><ele>81.0</ele><time>2026-03-30T12:36:41Z</time></trkpt><trkpt lat="48.37047457271557" lon="-4.552720062520658"><ele>81.0</ele><time>2026-03-30T12:36:43Z</time></trkpt><trkpt lat="48.370523025842246" lon="-4.552821950740382"><ele>81.0</ele><time>2026-03-30T12:36:45Z</time></trkpt><trkpt lat="48.370587879147386" lon="-4.552900868751133"><ele>81.0</ele><time>2026-03-30T12:36:47Z</time></trkpt><trkpt lat="48.370647207488" lon="-4.552979903970231"><ele>81.0</ele><time>2026-03-30T12:36:49Z</time></trkpt><trkpt lat="48.370713387569076" lon="-4.553056590321864"><ele>81.16666666666667</ele><time>2026-03-30T12:36:51Z</time></trkpt><trkpt lat="48.370773238134745" lon="-4.553136829068353"><ele>81.33333333333333</ele><time>2026-03-30T12:36:53Z</time></trkpt><trkpt lat="48.37083050100158" lon="-4.553229420226998"><ele>81.5</ele><time>2026-03-30T12:36:55Z</time></trkpt><trkpt lat="48.370891642123745" lon="-4.553311768085354"><ele>81.66666666666666</ele><time>2026-03-30T12:36:57Z</time></trkpt><trkpt lat="48.37095420668915" lon="-4.553389936418543"><ele>81.83333333333333</ele><time>2026-03-30T12:36:59Z</time></trkpt><trkpt lat="48.371010558292625" lon="-4.553460667539099"><ele>82.0</ele><time>2026-03-30T12:37:01Z</time></trkpt><trkpt lat="48.371072869054984" lon="-4.553540281249966"><ele>82.0</ele><time>2026-03-30T12:37:03Z</time></trkpt><trkpt lat="48.37113690416973" lon="-4.5536277583377975"><ele>82.0</ele><time>2026-03-30T12:37:05Z</time></trkpt><trkpt lat="48.37120574739162" lon="-4.553704771928235"><ele>82.0</ele><time>2026-03-30T12:37:07Z</time></trkpt><trkpt lat="48.37127066357703" lon="-4.5537906862904025"><ele>82.0</ele><time>2026-03-30T12:37:09Z</time></trkpt><trkpt lat="48.371334454167034" lon="-4.553862552722183"><ele>82.0</ele><time>2026-03-30T12:37:11Z</time></trkpt><trkpt lat="48.37140437861125" lon="-4.553928776401965"><ele>82.0</ele><time>2026-03-30T12:37:13Z</time></trkpt><trkpt lat="48.37146819001717" lon="-4.554001432579828"><ele>82.33333333333333</ele><time>2026-03-30T12:37:15Z</time></trkpt><trkpt lat="48.371530378924454" lon="-4.554078602310309"><ele>82.66666666666666</ele><time>2026-03-30T12:37:17Z</time></trkpt><trkpt lat="48.37159284416809" lon="-4.554161336344714"><ele>83.0</ele><time>2026-03-30T12:37:19Z</time></trkpt><trkpt lat="48.37166353149529" lon="-4.554230686362859"><ele>83.33333333333333</ele><time>2026-03-30T12:37:21Z</time></trkpt><trkpt lat="48.37172686323646" lon="-4.55429399301614"><ele>83.66666666666667</ele><time>2026-03-30T12:37:22.999Z</time></trkpt><trkpt lat="48.37179106166476" lon="-4.554315859451931"><ele>84.0</ele><time>2026-03-30T12:37:24.999Z</time></trkpt><trkpt lat="48.371829420989094" lon="-4.554411328059129"><ele>84.0</ele><time>2026-03-30T12:37:28.999Z</time></trkpt><trkpt lat="48.37188717204508" lon="-4.554536313960519"><ele>84.0</ele><time>2026-03-30T12:37:35.999Z</time></trkpt><trkpt lat="48.37197330653033" lon="-4.554597831224037"><ele>84.0</ele><time>2026-03-30T12:37:37.999Z</time></trkpt><trkpt lat="48.372051738734804" lon="-4.554678939990985"><ele>84.0</ele><time>2026-03-30T12:37:39.999Z</time></trkpt><trkpt lat="48.37212979052823" lon="-4.554767337769805"><ele>84.0</ele><time>2026-03-30T12:37:41.999Z</time></trkpt><trkpt lat="48.3722006071708" lon="-4.554857314903858"><ele>84.4</ele><time>2026-03-30T12:37:43.999Z</time></trkpt><trkpt lat="48.37226992697957" lon="-4.554946130712799"><ele>84.80000000000001</ele><time>2026-03-30T12:37:45.999Z</time></trkpt><trkpt lat="48.37234271439344" lon="-4.555018647728438"><ele>85.19999999999999</ele><time>2026-03-30T12:37:47.999Z</time></trkpt><trkpt lat="48.37244377592396" lon="-4.555135284394256"><ele>85.6</ele><time>2026-03-30T12:37:50.999Z</time></trkpt><trkpt lat="48.37250814592275" lon="-4.555217622847914"><ele>86.0</ele><time>2026-03-30T12:37:52.999Z</time></trkpt><trkpt lat="48.37258745047938" lon="-4.555287435197684"><ele>86.0</ele><time>2026-03-30T12:37:54.999Z</time></trkpt><trkpt lat="48.37265628580583" lon="-4.555366020054244"><ele>86.0</ele><time>2026-03-30T12:37:56.999Z</time></trkpt><trkpt lat="48.3727254635356" lon="-4.55545019902176"><ele>86.0</ele><time>2026-03-30T12:37:58.999Z</time></trkpt><trkpt lat="48.372798087192436" lon="-4.5555232399315"><ele>86.0</ele><time>2026-03-30T12:38:00.999Z</time></trkpt><trkpt lat="48.372871441218" lon="-4.555598094296227"><ele>86.0</ele><time>2026-03-30T12:38:02.999Z</time></trkpt><trkpt lat="48.3729342924357" lon="-4.555678628912887"><ele>86.0</ele><time>2026-03-30T12:38:04.999Z</time></trkpt><trkpt lat="48.373007154891965" lon="-4.555750114691727"><ele>86.5</ele><time>2026-03-30T12:38:06.999Z</time></trkpt><trkpt lat="48.37307861766573" lon="-4.555832993236097"><ele>87.0</ele><time>2026-03-30T12:38:08.999Z</time></trkpt><trkpt lat="48.37315305661457" lon="-4.555908023550338"><ele>87.5</ele><time>2026-03-30T12:38:10.999Z</time></trkpt><trkpt lat="48.37322726596108" lon="-4.555986146981466"><ele>88.0</ele><time>2026-03-30T12:38:13Z</time></trkpt><trkpt lat="48.373300701194154" lon="-4.5560698579708445"><ele>88.5</ele><time>2026-03-30T12:38:15Z</time></trkpt><trkpt lat="48.37336529338404" lon="-4.556152163080914"><ele>89.0</ele><time>2026-03-30T12:38:17Z</time></trkpt><trkpt lat="48.37343510484787" lon="-4.556231918762579"><ele>89.0</ele><time>2026-03-30T12:38:19Z</time></trkpt><trkpt lat="48.37349822105474" lon="-4.556312935201725"><ele>89.0</ele><time>2026-03-30T12:38:21Z</time></trkpt><trkpt lat="48.37356623306393" lon="-4.556391207643323"><ele>89.0</ele><time>2026-03-30T12:38:23Z</time></trkpt><trkpt lat="48.37363608967389" lon="-4.556472789279856"><ele>89.0</ele><time>2026-03-30T12:38:25Z</time></trkpt><trkpt lat="48.37370464679427" lon="-4.556555902942793"><ele>89.0</ele><time>2026-03-30T12:38:27Z</time></trkpt><trkpt lat="48.37377738553969" lon="-4.556635562182959"><ele>89.0</ele><time>2026-03-30T12:38:29Z</time></trkpt><trkpt lat="48.3738488152562" lon="-4.556717458789524"><ele>89.33333333333334</ele><time>2026-03-30T12:38:31Z</time></trkpt><trkpt lat="48.373922188975456" lon="-4.556795591566258"><ele>89.66666666666667</ele><time>2026-03-30T12:38:33Z</time></trkpt><trkpt lat="48.37399447618697" lon="-4.556880034907309"><ele>90.0</ele><time>2026-03-30T12:38:35Z</time></trkpt><trkpt lat="48.37406612275198" lon="-4.5569643141214184"><ele>90.33333333333333</ele><time>2026-03-30T12:38:37Z</time></trkpt><trkpt lat="48.37413392595695" lon="-4.557049327926721"><ele>90.66666666666666</ele><time>2026-03-30T12:38:39Z</time></trkpt><trkpt lat="48.37420546938365" lon="-4.557127230703928"><ele>91.0</ele><time>2026-03-30T12:38:41Z</time></trkpt><trkpt lat="48.374276657687005" lon="-4.557208716153258"><ele>91.0</ele><time>2026-03-30T12:38:43Z</time></trkpt><trkpt lat="48.37434697699268" lon="-4.55729597925326"><ele>91.0</ele><time>2026-03-30T12:38:45Z</time></trkpt><trkpt lat="48.374414935256" lon="-4.557372575060266"><ele>91.0</ele><time>2026-03-30T12:38:47Z</time></trkpt><trkpt lat="48.37447623364622" lon="-4.557437676475848"><ele>91.0</ele><time>2026-03-30T12:38:49Z</time></trkpt><trkpt lat="48.374551470159524" lon="-4.557484612788466"><ele>91.0</ele><time>2026-03-30T12:38:51Z</time></trkpt><trkpt lat="48.37463923556115" lon="-4.557475476784599"><ele>91.0</ele><time>2026-03-30T12:38:53Z</time></trkpt><trkpt lat="48.3747135535828" lon="-4.557523137784679"><ele>91.0</ele><time>2026-03-30T12:38:55Z</time></trkpt><trkpt lat="48.374765815380336" lon="-4.557624543938085"><ele>91.0</ele><time>2026-03-30T12:38:57Z</time></trkpt><trkpt lat="48.374771140954635" lon="-4.557736188302309"><ele>91.0</ele><time>2026-03-30T12:38:59Z</time></trkpt><trkpt lat="48.37471421325619" lon="-4.557853828987429"><ele>91.0</ele><time>2026-03-30T12:39:01Z</time></trkpt><trkpt lat="48.3746342652109" lon="-4.55793884892715"><ele>91.0</ele><time>2026-03-30T12:39:03Z</time></trkpt><trkpt lat="48.37458981962346" lon="-4.558019803686227"><ele>91.0</ele><time>2026-03-30T12:39:05Z</time></trkpt><trkpt lat="48.37458161150321" lon="-4.558155947792166"><ele>91.0</ele><time>2026-03-30T12:39:08Z</time></trkpt><trkpt lat="48.3745235623828" lon="-4.558278860929317"><ele>91.0</ele><time>2026-03-30T12:39:10Z</time></trkpt><trkpt lat="48.374489843293" lon="-4.558408801249982"><ele>91.0</ele><time>2026-03-30T12:39:12Z</time></trkpt><trkpt lat="48.37443602000263" lon="-4.558529361158867"><ele>91.0</ele><time>2026-03-30T12:39:14Z</time></trkpt><trkpt lat="48.37438674668543" lon="-4.558661321822126"><ele>91.0</ele><time>2026-03-30T12:39:16Z</time></trkpt><trkpt lat="48.374344873616295" lon="-4.558788138393282"><ele>91.0</ele><time>2026-03-30T12:39:18Z</time></trkpt><trkpt lat="48.374309913168254" lon="-4.558940277465329"><ele>91.0</ele><time>2026-03-30T12:39:20Z</time></trkpt><trkpt lat="48.37421770521145" lon="-4.559054839371119"><ele>91.0</ele><time>2026-03-30T12:39:22Z</time></trkpt><trkpt lat="48.37416482182507" lon="-4.559205120902899"><ele>91.0</ele><time>2026-03-30T12:39:24Z</time></trkpt><trkpt lat="48.37410946088859" lon="-4.559363244124315"><ele>91.0</ele><time>2026-03-30T12:39:26Z</time></trkpt><trkpt lat="48.37405300880893" lon="-4.559527050377715"><ele>91.0</ele><time>2026-03-30T12:39:27.999Z</time></trkpt><trkpt lat="48.373995768346894" lon="-4.559685286889176"><ele>91.0</ele><time>2026-03-30T12:39:29.999Z</time></trkpt><trkpt lat="48.37394613732066" lon="-4.5598224878213305"><ele>91.0</ele><time>2026-03-30T12:39:31.999Z</time></trkpt><trkpt lat="48.37389556486474" lon="-4.559962813276358"><ele>90.25</ele><time>2026-03-30T12:39:33.999Z</time></trkpt><trkpt lat="48.37384205749013" lon="-4.560116191566192"><ele>89.5</ele><time>2026-03-30T12:39:35.999Z</time></trkpt><trkpt lat="48.37379175303371" lon="-4.5602632073758045"><ele>88.75</ele><time>2026-03-30T12:39:37.999Z</time></trkpt><trkpt lat="48.37373880431848" lon="-4.560419580393437"><ele>88.0</ele><time>2026-03-30T12:39:39.999Z</time></trkpt><trkpt lat="48.37369192014587" lon="-4.560572750108941"><ele>87.66666666666666</ele><time>2026-03-30T12:39:41.999Z</time></trkpt><trkpt lat="48.373660329089496" lon="-4.560680914638227"><ele>87.33333333333333</ele><time>2026-03-30T12:39:42.999Z</time></trkpt><trkpt lat="48.37364666947139" lon="-4.560783300487362"><ele>87.0</ele><time>2026-03-30T12:39:43.999Z</time></trkpt><trkpt lat="48.37404515483797" lon="-4.561050745701571"><ele>87.33333333333333</ele><time>2026-03-30T12:39:44.999Z</time></trkpt><trkpt lat="48.37407828570185" lon="-4.561235800893098"><ele>87.66666666666666</ele><time>2026-03-30T12:39:46.999Z</time></trkpt><trkpt lat="48.37410394368404" lon="-4.561325241801127"><ele>88.0</ele><time>2026-03-30T12:39:47.999Z</time></trkpt><trkpt lat="48.37391115039357" lon="-4.561666606260036"><ele>88.0</ele><time>2026-03-30T12:39:48.999Z</time></trkpt><trkpt lat="48.373983292686084" lon="-4.561810886196404"><ele>88.0</ele><time>2026-03-30T12:39:50.999Z</time></trkpt><trkpt lat="48.37405948265502" lon="-4.5619632646384725"><ele>88.0</ele><time>2026-03-30T12:39:52.999Z</time></trkpt><trkpt lat="48.37416322941653" lon="-4.561989720158367"><ele>88.0</ele><time>2026-03-30T12:39:53.999Z</time></trkpt><trkpt lat="48.37424204654367" lon="-4.562115398868222"><ele>87.83333333333333</ele><time>2026-03-30T12:39:55.999Z</time></trkpt><trkpt lat="48.374319138115496" lon="-4.562265252364296"><ele>87.66666666666666</ele><time>2026-03-30T12:39:57.999Z</time></trkpt><trkpt lat="48.374344534990506" lon="-4.562360530668908"><ele>87.5</ele><time>2026-03-30T12:39:58.999Z</time></trkpt><trkpt lat="48.37437934150664" lon="-4.562444921631066"><ele>87.33333333333333</ele><time>2026-03-30T12:39:59.999Z</time></trkpt><trkpt lat="48.37440904344644" lon="-4.5625359785533215"><ele>87.16666666666667</ele><time>2026-03-30T12:40:00.999Z</time></trkpt><trkpt lat="48.37441756988537" lon="-4.562639035848952"><ele>87.0</ele><time>2026-03-30T12:40:01.999Z</time></trkpt><trkpt lat="48.37443198800584" lon="-4.562743137730884"><ele>87.0</ele><time>2026-03-30T12:40:02.999Z</time></trkpt><trkpt lat="48.3744409716976" lon="-4.562842993908677"><ele>87.0</ele><time>2026-03-30T12:40:03.999Z</time></trkpt><trkpt lat="48.37446284305438" lon="-4.562950009956559"><ele>87.0</ele><time>2026-03-30T12:40:04.999Z</time></trkpt><trkpt lat="48.37447854039007" lon="-4.563051013951865"><ele>87.0</ele><time>2026-03-30T12:40:05.999Z</time></trkpt><trkpt lat="48.374505649115655" lon="-4.563151456802787"><ele>87.0</ele><time>2026-03-30T12:40:06.999Z</time></trkpt><trkpt lat="48.374524579877296" lon="-4.563250882090826"><ele>87.0</ele><time>2026-03-30T12:40:07.999Z</time></trkpt><trkpt lat="48.374549657757264" lon="-4.563349252426736"><ele>87.0</ele><time>2026-03-30T12:40:08.999Z</time></trkpt><trkpt lat="48.37456933563331" lon="-4.563442384605902"><ele>87.0</ele><time>2026-03-30T12:40:09.999Z</time></trkpt><trkpt lat="48.37458955018343" lon="-4.563540312275456"><ele>87.0</ele><time>2026-03-30T12:40:10.999Z</time></trkpt><trkpt lat="48.37459819840748" lon="-4.56364230435209"><ele>87.0</ele><time>2026-03-30T12:40:11.999Z</time></trkpt><trkpt lat="48.37460864252903" lon="-4.563740918184079"><ele>87.0</ele><time>2026-03-30T12:40:12.999Z</time></trkpt><trkpt lat="48.374622987031564" lon="-4.563842027307107"><ele>87.0</ele><time>2026-03-30T12:40:13.999Z</time></trkpt><trkpt lat="48.374632710973685" lon="-4.563945392454926"><ele>87.0</ele><time>2026-03-30T12:40:14.999Z</time></trkpt><trkpt lat="48.374638455878376" lon="-4.5640487530782075"><ele>87.0</ele><time>2026-03-30T12:40:15.999Z</time></trkpt><trkpt lat="48.37462962802622" lon="-4.564150344029834"><ele>86.66666666666667</ele><time>2026-03-30T12:40:16.999Z</time></trkpt><trkpt lat="48.37461998395034" lon="-4.56424648853581"><ele>86.33333333333333</ele><time>2026-03-30T12:40:17.999Z</time></trkpt><trkpt lat="48.37462069303694" lon="-4.564342097663603"><ele>86.0</ele><time>2026-03-30T12:40:19Z</time></trkpt><trkpt lat="48.37463731770239" lon="-4.564436605591683"><ele>85.66666666666666</ele><time>2026-03-30T12:40:20Z</time></trkpt><trkpt lat="48.37462672089187" lon="-4.564617011915268"><ele>85.33333333333333</ele><time>2026-03-30T12:40:22Z</time></trkpt><trkpt lat="48.37463394800402" lon="-4.5647263011696495"><ele>85.0</ele><time>2026-03-30T12:40:23Z</time></trkpt><trkpt lat="48.37458835870827" lon="-4.564813179907104"><ele>85.0</ele><time>2026-03-30T12:40:24Z</time></trkpt><trkpt lat="48.374565593450455" lon="-4.5649123225351715"><ele>85.0</ele><time>2026-03-30T12:40:25Z</time></trkpt><trkpt lat="48.37456174522643" lon="-4.5650223968205745"><ele>85.0</ele><time>2026-03-30T12:40:26Z</time></trkpt><trkpt lat="48.374551131015224" lon="-4.565131436653147"><ele>85.0</ele><time>2026-03-30T12:40:27Z</time></trkpt><trkpt lat="48.3745405874093" lon="-4.565234456625078"><ele>85.0</ele><time>2026-03-30T12:40:28Z</time></trkpt><trkpt lat="48.374536708048964" lon="-4.565342354006102"><ele>85.0</ele><time>2026-03-30T12:40:29Z</time></trkpt><trkpt lat="48.37452621105483" lon="-4.565448836679547"><ele>85.0</ele><time>2026-03-30T12:40:30Z</time></trkpt><trkpt lat="48.374512471169474" lon="-4.565556247302303"><ele>85.0</ele><time>2026-03-30T12:40:31Z</time></trkpt><trkpt lat="48.37448860899454" lon="-4.565654979329908"><ele>85.0</ele><time>2026-03-30T12:40:32Z</time></trkpt><trkpt lat="48.37446764314166" lon="-4.56576259655322"><ele>85.0</ele><time>2026-03-30T12:40:33Z</time></trkpt><trkpt lat="48.37444676503486" lon="-4.565870701512864"><ele>85.0</ele><time>2026-03-30T12:40:34Z</time></trkpt><trkpt lat="48.37442587497892" lon="-4.565981436910777"><ele>85.0</ele><time>2026-03-30T12:40:35Z</time></trkpt><trkpt lat="48.37440447656599" lon="-4.566085076553877"><ele>85.0</ele><time>2026-03-30T12:40:36Z</time></trkpt><trkpt lat="48.374376171437355" lon="-4.5662017295241"><ele>85.33333333333333</ele><time>2026-03-30T12:40:37Z</time></trkpt><trkpt lat="48.37434559991774" lon="-4.5663064651818885"><ele>85.66666666666666</ele><time>2026-03-30T12:40:38Z</time></trkpt><trkpt lat="48.374318949266424" lon="-4.56641357607866"><ele>86.0</ele><time>2026-03-30T12:40:39Z</time></trkpt><trkpt lat="48.3742936440211" lon="-4.566527245884786"><ele>86.33333333333333</ele><time>2026-03-30T12:40:40Z</time></trkpt><trkpt lat="48.37427188450413" lon="-4.566639638363947"><ele>86.66666666666667</ele><time>2026-03-30T12:40:41Z</time></trkpt><trkpt lat="48.37424701551625" lon="-4.5667429402512"><ele>87.0</ele><time>2026-03-30T12:40:42Z</time></trkpt><trkpt lat="48.374209706236385" lon="-4.566888442520061"><ele>87.0</ele><time>2026-03-30T12:40:44Z</time></trkpt><trkpt lat="48.37418051895386" lon="-4.567016022109031"><ele>87.0</ele><time>2026-03-30T12:40:46Z</time></trkpt><trkpt lat="48.37415119709245" lon="-4.56717901843351"><ele>87.0</ele><time>2026-03-30T12:40:48Z</time></trkpt><trkpt lat="48.37412517752012" lon="-4.567361950481804"><ele>87.0</ele><time>2026-03-30T12:40:50Z</time></trkpt><trkpt lat="48.37411588424084" lon="-4.567459376125105"><ele>87.0</ele><time>2026-03-30T12:40:51Z</time></trkpt><trkpt lat="48.374106567219236" lon="-4.567559236692465"><ele>87.14285714285714</ele><time>2026-03-30T12:40:52Z</time></trkpt><trkpt lat="48.37410167334834" lon="-4.5676579465760705"><ele>87.28571428571429</ele><time>2026-03-30T12:40:53Z</time></trkpt><trkpt lat="48.374096450196895" lon="-4.567758484571239"><ele>87.42857142857143</ele><time>2026-03-30T12:40:54Z</time></trkpt><trkpt lat="48.37408572343653" lon="-4.567862356420031"><ele>87.57142857142857</ele><time>2026-03-30T12:40:55Z</time></trkpt><trkpt lat="48.37407441527128" lon="-4.567958004890873"><ele>87.71428571428571</ele><time>2026-03-30T12:40:56Z</time></trkpt><trkpt lat="48.37406207137552" lon="-4.568053592641828"><ele>87.85714285714286</ele><time>2026-03-30T12:40:57Z</time></trkpt><trkpt lat="48.37407738211353" lon="-4.568166586409994"><ele>88.0</ele><time>2026-03-30T12:40:58Z</time></trkpt><trkpt lat="48.374072407184265" lon="-4.568267607551285"><ele>87.80000000000001</ele><time>2026-03-30T12:40:59Z</time></trkpt><trkpt lat="48.37407325060231" lon="-4.568438538374844"><ele>87.6</ele><time>2026-03-30T12:41:01Z</time></trkpt><trkpt lat="48.37407409493798" lon="-4.568603910175428"><ele>87.4</ele><time>2026-03-30T12:41:03Z</time></trkpt><trkpt lat="48.37407155792027" lon="-4.568789622587046"><ele>87.19999999999999</ele><time>2026-03-30T12:41:05Z</time></trkpt><trkpt lat="48.374064665020086" lon="-4.568895114835227"><ele>87.0</ele><time>2026-03-30T12:41:06Z</time></trkpt><trkpt lat="48.37406293643665" lon="-4.569001986438113"><ele>87.0</ele><time>2026-03-30T12:41:07Z</time></trkpt><trkpt lat="48.374064349926755" lon="-4.569104693482915"><ele>87.0</ele><time>2026-03-30T12:41:08Z</time></trkpt><trkpt lat="48.374066403264536" lon="-4.569212671946154"><ele>87.0</ele><time>2026-03-30T12:41:09Z</time></trkpt><trkpt lat="48.374067347331945" lon="-4.569318005486028"><ele>87.0</ele><time>2026-03-30T12:41:10Z</time></trkpt><trkpt lat="48.374069041052856" lon="-4.569421792017172"><ele>87.0</ele><time>2026-03-30T12:41:11Z</time></trkpt><trkpt lat="48.37406771444634" lon="-4.569520886264753"><ele>87.0</ele><time>2026-03-30T12:41:12Z</time></trkpt><trkpt lat="48.37406745714283" lon="-4.56963229573535"><ele>87.0</ele><time>2026-03-30T12:41:13Z</time></trkpt><trkpt lat="48.37406937458275" lon="-4.569741377489252"><ele>86.85714285714286</ele><time>2026-03-30T12:41:14Z</time></trkpt><trkpt lat="48.374072993641875" lon="-4.5698470103806805"><ele>86.71428571428572</ele><time>2026-03-30T12:41:15Z</time></trkpt><trkpt lat="48.374075886323176" lon="-4.569950361421709"><ele>86.57142857142858</ele><time>2026-03-30T12:41:16Z</time></trkpt><trkpt lat="48.37407110890332" lon="-4.57006153714209"><ele>86.42857142857143</ele><time>2026-03-30T12:41:17Z</time></trkpt><trkpt lat="48.374067518415416" lon="-4.570167661117831"><ele>86.28571428571429</ele><time>2026-03-30T12:41:18Z</time></trkpt><trkpt lat="48.374069819934455" lon="-4.5702842562607495"><ele>86.14285714285715</ele><time>2026-03-30T12:41:19Z</time></trkpt><trkpt lat="48.374067871792334" lon="-4.570397078825185"><ele>86.0</ele><time>2026-03-30T12:41:20Z</time></trkpt><trkpt lat="48.374065793278504" lon="-4.570512759816102"><ele>85.83333333333334</ele><time>2026-03-30T12:41:21Z</time></trkpt><trkpt lat="48.374056143510245" lon="-4.5706287988472925"><ele>85.66666666666667</ele><time>2026-03-30T12:41:22Z</time></trkpt><trkpt lat="48.37404187156602" lon="-4.570747853465848"><ele>85.5</ele><time>2026-03-30T12:41:23Z</time></trkpt><trkpt lat="48.37403530638934" lon="-4.570873377495131"><ele>85.33333333333333</ele><time>2026-03-30T12:41:24Z</time></trkpt><trkpt lat="48.374026263459896" lon="-4.57100103941857"><ele>85.16666666666666</ele><time>2026-03-30T12:41:25Z</time></trkpt><trkpt lat="48.37400882046255" lon="-4.5711300367797705"><ele>85.0</ele><time>2026-03-30T12:41:25.999Z</time></trkpt><trkpt lat="48.373996101552855" lon="-4.5712637257193185"><ele>84.6</ele><time>2026-03-30T12:41:26.999Z</time></trkpt><trkpt lat="48.37398372199838" lon="-4.571395762439734"><ele>84.2</ele><time>2026-03-30T12:41:27.999Z</time></trkpt><trkpt lat="48.37397448642034" lon="-4.571541279600161"><ele>83.80000000000001</ele><time>2026-03-30T12:41:28.999Z</time></trkpt><trkpt lat="48.373955440660204" lon="-4.5716881598609564"><ele>83.4</ele><time>2026-03-30T12:41:29.999Z</time></trkpt><trkpt lat="48.37394537328791" lon="-4.571833817992025"><ele>83.0</ele><time>2026-03-30T12:41:30.999Z</time></trkpt><trkpt lat="48.37393355852035" lon="-4.571977226047416"><ele>82.80000000000001</ele><time>2026-03-30T12:41:31.999Z</time></trkpt><trkpt lat="48.3739206774377" lon="-4.572123342043351"><ele>82.6</ele><time>2026-03-30T12:41:32.999Z</time></trkpt><trkpt lat="48.37391021813614" lon="-4.572270957686906"><ele>82.4</ele><time>2026-03-30T12:41:33.999Z</time></trkpt><trkpt lat="48.373896460606424" lon="-4.572412193518889"><ele>82.19999999999999</ele><time>2026-03-30T12:41:34.999Z</time></trkpt><trkpt lat="48.373882523932636" lon="-4.572550953815424"><ele>82.0</ele><time>2026-03-30T12:41:35.999Z</time></trkpt><trkpt lat="48.37387010691712" lon="-4.572685834320654"><ele>82.0</ele><time>2026-03-30T12:41:36.999Z</time></trkpt><trkpt lat="48.37385639413981" lon="-4.572816122175244"><ele>82.0</ele><time>2026-03-30T12:41:37.999Z</time></trkpt><trkpt lat="48.37384791720456" lon="-4.572952530712646"><ele>82.0</ele><time>2026-03-30T12:41:38.999Z</time></trkpt><trkpt lat="48.3738322876627" lon="-4.573076762404906"><ele>82.0</ele><time>2026-03-30T12:41:39.999Z</time></trkpt><trkpt lat="48.37382311260565" lon="-4.573193370482436"><ele>82.0</ele><time>2026-03-30T12:41:40.999Z</time></trkpt><trkpt lat="48.37382287104053" lon="-4.573304385900712"><ele>82.0</ele><time>2026-03-30T12:41:41.999Z</time></trkpt><trkpt lat="48.37384783827114" lon="-4.573404726043812"><ele>82.0</ele><time>2026-03-30T12:41:42.999Z</time></trkpt><trkpt lat="48.37390080753769" lon="-4.573480316488813"><ele>82.0</ele><time>2026-03-30T12:41:43.999Z</time></trkpt><trkpt lat="48.37395273762683" lon="-4.573544783086349"><ele>82.0</ele><time>2026-03-30T12:41:44.999Z</time></trkpt><trkpt lat="48.37393210159295" lon="-4.573711182984451"><ele>82.0</ele><time>2026-03-30T12:41:46.999Z</time></trkpt><trkpt lat="48.37394120313479" lon="-4.573831117771811"><ele>82.0</ele><time>2026-03-30T12:41:48.999Z</time></trkpt><trkpt lat="48.37387769902754" lon="-4.573874223768197"><ele>82.0</ele><time>2026-03-30T12:41:49.999Z</time></trkpt><trkpt lat="48.37381416100851" lon="-4.573920205003766"><ele>81.83333333333333</ele><time>2026-03-30T12:41:50.999Z</time></trkpt><trkpt lat="48.373773461680166" lon="-4.57401230491815"><ele>81.66666666666666</ele><time>2026-03-30T12:41:51.999Z</time></trkpt><trkpt lat="48.37375599987187" lon="-4.574109326173655"><ele>81.5</ele><time>2026-03-30T12:41:52.999Z</time></trkpt><trkpt lat="48.373759950951516" lon="-4.574227483416388"><ele>81.33333333333333</ele><time>2026-03-30T12:41:53.999Z</time></trkpt><trkpt lat="48.373766699784774" lon="-4.574335249105157"><ele>81.16666666666667</ele><time>2026-03-30T12:41:54.999Z</time></trkpt><trkpt lat="48.37377309741415" lon="-4.574430609890976"><ele>81.0</ele><time>2026-03-30T12:41:55.999Z</time></trkpt><trkpt lat="48.37376756620041" lon="-4.574614906075871"><ele>81.0</ele><time>2026-03-30T12:41:57.999Z</time></trkpt><trkpt lat="48.37376482942379" lon="-4.574787839985655"><ele>81.0</ele><time>2026-03-30T12:41:59.999Z</time></trkpt><trkpt lat="48.37376578612589" lon="-4.574965984557189"><ele>81.0</ele><time>2026-03-30T12:42:01.999Z</time></trkpt><trkpt lat="48.37377879749808" lon="-4.575129071462633"><ele>81.0</ele><time>2026-03-30T12:42:03.999Z</time></trkpt><trkpt lat="48.373797036881484" lon="-4.575290483317553"><ele>81.4</ele><time>2026-03-30T12:42:05.999Z</time></trkpt><trkpt lat="48.37380569390822" lon="-4.575452671772192"><ele>81.8</ele><time>2026-03-30T12:42:07.999Z</time></trkpt><trkpt lat="48.37381729628009" lon="-4.5756099528898435"><ele>82.2</ele><time>2026-03-30T12:42:09.999Z</time></trkpt><trkpt lat="48.373829832194644" lon="-4.575772392677565"><ele>82.60000000000001</ele><time>2026-03-30T12:42:11.999Z</time></trkpt><trkpt lat="48.373832093591304" lon="-4.575925077045169"><ele>83.0</ele><time>2026-03-30T12:42:13.999Z</time></trkpt><trkpt lat="48.3738402852021" lon="-4.576075794195758"><ele>83.2</ele><time>2026-03-30T12:42:15.999Z</time></trkpt><trkpt lat="48.37384809128563" lon="-4.5762461985265235"><ele>83.4</ele><time>2026-03-30T12:42:17.999Z</time></trkpt><trkpt lat="48.373831142568235" lon="-4.576410094070605"><ele>83.60000000000001</ele><time>2026-03-30T12:42:19.999Z</time></trkpt><trkpt lat="48.37381348907898" lon="-4.576572653332699"><ele>83.80000000000001</ele><time>2026-03-30T12:42:21.999Z</time></trkpt><trkpt lat="48.373795150401996" lon="-4.57673294633581"><ele>84.0</ele><time>2026-03-30T12:42:23.999Z</time></trkpt><trkpt lat="48.373782384246134" lon="-4.576906837183726"><ele>84.28571428571429</ele><time>2026-03-30T12:42:26Z</time></trkpt><trkpt lat="48.37375625290653" lon="-4.577075863349878"><ele>84.57142857142857</ele><time>2026-03-30T12:42:28Z</time></trkpt><trkpt lat="48.37373680517234" lon="-4.577168444649582"><ele>84.85714285714286</ele><time>2026-03-30T12:42:29Z</time></trkpt><trkpt lat="48.37372008349078" lon="-4.577264261216229"><ele>85.14285714285714</ele><time>2026-03-30T12:42:30Z</time></trkpt><trkpt lat="48.37369606395148" lon="-4.577356227203227"><ele>85.42857142857143</ele><time>2026-03-30T12:42:31Z</time></trkpt><trkpt lat="48.37367255604046" lon="-4.5774534359561825"><ele>85.71428571428572</ele><time>2026-03-30T12:42:32Z</time></trkpt><trkpt lat="48.37365036323773" lon="-4.577548332617799"><ele>86.0</ele><time>2026-03-30T12:42:33Z</time></trkpt><trkpt lat="48.37362904429574" lon="-4.5776424414978045"><ele>86.00000000000001</ele><time>2026-03-30T12:42:34Z</time></trkpt><trkpt lat="48.3736009545611" lon="-4.577737416818637"><ele>86.0</ele><time>2026-03-30T12:42:35Z</time></trkpt><trkpt lat="48.37356929404756" lon="-4.577830730955085"><ele>86.0</ele><time>2026-03-30T12:42:36Z</time></trkpt><trkpt lat="48.37353575545488" lon="-4.577922342003458"><ele>86.0</ele><time>2026-03-30T12:42:37Z</time></trkpt><trkpt lat="48.37349989697206" lon="-4.578018451204479"><ele>86.0</ele><time>2026-03-30T12:42:38Z</time></trkpt><trkpt lat="48.37346168831072" lon="-4.578118103191353"><ele>86.00000000000001</ele><time>2026-03-30T12:42:39Z</time></trkpt><trkpt lat="48.373424100500245" lon="-4.57821304323741"><ele>86.0</ele><time>2026-03-30T12:42:40Z</time></trkpt><trkpt lat="48.37338892885004" lon="-4.578310847860114"><ele>86.33333333333334</ele><time>2026-03-30T12:42:41Z</time></trkpt><trkpt lat="48.37334973360706" lon="-4.578405696866182"><ele>86.66666666666667</ele><time>2026-03-30T12:42:42Z</time></trkpt><trkpt lat="48.37330800924003" lon="-4.578497153116833"><ele>87.0</ele><time>2026-03-30T12:42:43Z</time></trkpt><trkpt lat="48.373269080073044" lon="-4.57859118479677"><ele>87.33333333333333</ele><time>2026-03-30T12:42:44Z</time></trkpt><trkpt lat="48.37322439988599" lon="-4.578680779231235"><ele>87.66666666666666</ele><time>2026-03-30T12:42:45Z</time></trkpt><trkpt lat="48.37318445278837" lon="-4.578779914136427"><ele>88.0</ele><time>2026-03-30T12:42:46Z</time></trkpt><trkpt lat="48.37313531823493" lon="-4.5788684673506825"><ele>88.14285714285714</ele><time>2026-03-30T12:42:47Z</time></trkpt><trkpt lat="48.37308929462363" lon="-4.578955876864969"><ele>88.28571428571428</ele><time>2026-03-30T12:42:48Z</time></trkpt><trkpt lat="48.37304674191138" lon="-4.579042682607197"><ele>88.42857142857142</ele><time>2026-03-30T12:42:49Z</time></trkpt><trkpt lat="48.37301205102561" lon="-4.579142215752717"><ele>88.57142857142857</ele><time>2026-03-30T12:42:50Z</time></trkpt><trkpt lat="48.37297296110124" lon="-4.579228593623191"><ele>88.71428571428571</ele><time>2026-03-30T12:42:51Z</time></trkpt><trkpt lat="48.37293378320365" lon="-4.579320624875041"><ele>88.85714285714285</ele><time>2026-03-30T12:42:52Z</time></trkpt><trkpt lat="48.372896737797994" lon="-4.579412627713029"><ele>89.0</ele><time>2026-03-30T12:42:53Z</time></trkpt><trkpt lat="48.37287229046032" lon="-4.5795203637199275"><ele>88.16666666666667</ele><time>2026-03-30T12:42:54Z</time></trkpt><trkpt lat="48.37286699000974" lon="-4.579633307626551"><ele>87.33333333333334</ele><time>2026-03-30T12:42:55Z</time></trkpt><trkpt lat="48.372876723321426" lon="-4.579738376724948"><ele>86.5</ele><time>2026-03-30T12:42:56Z</time></trkpt><trkpt lat="48.37288182954828" lon="-4.579885577316696"><ele>85.66666666666667</ele><time>2026-03-30T12:42:58Z</time></trkpt><trkpt lat="48.37278935551437" lon="-4.57989974445601"><ele>84.83333333333333</ele><time>2026-03-30T12:42:59Z</time></trkpt><trkpt lat="48.37270855784672" lon="-4.579915013982362"><ele>84.0</ele><time>2026-03-30T12:43:01Z</time></trkpt><trkpt lat="48.37264720261829" lon="-4.579957362872031"><ele>84.0</ele><time>2026-03-30T12:43:02Z</time></trkpt><trkpt lat="48.37252502533016" lon="-4.580022306525297"><ele>84.0</ele><time>2026-03-30T12:43:04Z</time></trkpt><trkpt lat="48.37251804829479" lon="-4.580273324267774"><ele>84.0</ele><time>2026-03-30T12:43:05Z</time></trkpt><trkpt lat="48.37247568487417" lon="-4.580369438153989"><ele>84.0</ele><time>2026-03-30T12:43:06Z</time></trkpt><trkpt lat="48.37242712783593" lon="-4.580474204566603"><ele>83.6</ele><time>2026-03-30T12:43:07Z</time></trkpt><trkpt lat="48.37238172379051" lon="-4.580580609500441"><ele>83.2</ele><time>2026-03-30T12:43:08Z</time></trkpt><trkpt lat="48.372331994550535" lon="-4.580689273748729"><ele>82.8</ele><time>2026-03-30T12:43:09Z</time></trkpt><trkpt lat="48.37224289232455" lon="-4.580908252386895"><ele>82.39999999999999</ele><time>2026-03-30T12:43:11Z</time></trkpt><trkpt lat="48.372202353998794" lon="-4.581016835886291"><ele>82.0</ele><time>2026-03-30T12:43:12Z</time></trkpt><trkpt lat="48.37215342511152" lon="-4.581122573543155"><ele>81.5</ele><time>2026-03-30T12:43:13Z</time></trkpt><trkpt lat="48.37211949857633" lon="-4.581239190571327"><ele>81.0</ele><time>2026-03-30T12:43:14Z</time></trkpt><trkpt lat="48.3720928087871" lon="-4.581351239276599"><ele>80.5</ele><time>2026-03-30T12:43:15Z</time></trkpt><trkpt lat="48.37206246051814" lon="-4.5814467833266574"><ele>80.0</ele><time>2026-03-30T12:43:16Z</time></trkpt><trkpt lat="48.37203411043697" lon="-4.581552224087779"><ele>79.5</ele><time>2026-03-30T12:43:17Z</time></trkpt><trkpt lat="48.3720052231164" lon="-4.5816625762032785"><ele>79.0</ele><time>2026-03-30T12:43:18Z</time></trkpt><trkpt lat="48.37197704146722" lon="-4.581777729884924"><ele>79.0</ele><time>2026-03-30T12:43:19Z</time></trkpt><trkpt lat="48.371953175730745" lon="-4.581891797396815"><ele>79.0</ele><time>2026-03-30T12:43:20Z</time></trkpt><trkpt lat="48.37194138564945" lon="-4.582009587187371"><ele>79.0</ele><time>2026-03-30T12:43:21Z</time></trkpt><trkpt lat="48.37192494884373" lon="-4.582102555632147"><ele>79.0</ele><time>2026-03-30T12:43:22Z</time></trkpt><trkpt lat="48.37189619449279" lon="-4.582250029210424"><ele>79.0</ele><time>2026-03-30T12:43:24Z</time></trkpt><trkpt lat="48.37186174830923" lon="-4.582417264376395"><ele>79.0</ele><time>2026-03-30T12:43:26Z</time></trkpt><trkpt lat="48.37181537359597" lon="-4.582605406098952"><ele>79.2</ele><time>2026-03-30T12:43:28Z</time></trkpt><trkpt lat="48.37175857285042" lon="-4.5828315438986875"><ele>79.4</ele><time>2026-03-30T12:43:30Z</time></trkpt><trkpt lat="48.37173861745451" lon="-4.582951166096607"><ele>79.6</ele><time>2026-03-30T12:43:31Z</time></trkpt><trkpt lat="48.3717072774867" lon="-4.583055083068376"><ele>79.8</ele><time>2026-03-30T12:43:32Z</time></trkpt><trkpt lat="48.371681358907644" lon="-4.583151819841892"><ele>80.0</ele><time>2026-03-30T12:43:33Z</time></trkpt><trkpt lat="48.37165193255891" lon="-4.583258078544825"><ele>80.0</ele><time>2026-03-30T12:43:34Z</time></trkpt><trkpt lat="48.371622580072064" lon="-4.583351759709243"><ele>80.0</ele><time>2026-03-30T12:43:35Z</time></trkpt><trkpt lat="48.37159404875308" lon="-4.583456279753013"><ele>80.0</ele><time>2026-03-30T12:43:36Z</time></trkpt><trkpt lat="48.37157041385737" lon="-4.5835666067647685"><ele>80.0</ele><time>2026-03-30T12:43:37Z</time></trkpt><trkpt lat="48.371555581816686" lon="-4.583663989967642"><ele>80.0</ele><time>2026-03-30T12:43:38Z</time></trkpt><trkpt lat="48.371522971178365" lon="-4.583766699128713"><ele>80.0</ele><time>2026-03-30T12:43:39Z</time></trkpt><trkpt lat="48.37149057135026" lon="-4.583868412161397"><ele>80.0</ele><time>2026-03-30T12:43:39.999Z</time></trkpt><trkpt lat="48.37146049921547" lon="-4.583957649176251"><ele>80.0</ele><time>2026-03-30T12:43:40.999Z</time></trkpt><trkpt lat="48.37143139887295" lon="-4.584048834588815"><ele>80.0</ele><time>2026-03-30T12:43:41.999Z</time></trkpt><trkpt lat="48.37140809278573" lon="-4.584139923486711"><ele>80.0</ele><time>2026-03-30T12:43:42.999Z</time></trkpt><trkpt lat="48.371380559364184" lon="-4.5842262500064255"><ele>80.0</ele><time>2026-03-30T12:43:43.999Z</time></trkpt><trkpt lat="48.37133500819612" lon="-4.584393265648668"><ele>80.0</ele><time>2026-03-30T12:43:45.999Z</time></trkpt><trkpt lat="48.37128375830478" lon="-4.584562397139278"><ele>80.0</ele><time>2026-03-30T12:43:47.999Z</time></trkpt><trkpt lat="48.37123691468314" lon="-4.584695344104298"><ele>80.0</ele><time>2026-03-30T12:43:49.999Z</time></trkpt><trkpt lat="48.37118991833902" lon="-4.58482872449366"><ele>80.0</ele><time>2026-03-30T12:43:51.999Z</time></trkpt><trkpt lat="48.371139284835294" lon="-4.584972424356755"><ele>80.0</ele><time>2026-03-30T12:43:53.999Z</time></trkpt><trkpt lat="48.37108964499286" lon="-4.58511074919296"><ele>80.0</ele><time>2026-03-30T12:43:55.999Z</time></trkpt><trkpt lat="48.37103781136448" lon="-4.585252780088202"><ele>80.0</ele><time>2026-03-30T12:43:57.999Z</time></trkpt><trkpt lat="48.37099369245094" lon="-4.58537252282129"><ele>80.33333333333334</ele><time>2026-03-30T12:43:59.999Z</time></trkpt><trkpt lat="48.37101534746724" lon="-4.585695580439569"><ele>80.66666666666667</ele><time>2026-03-30T12:44:00.999Z</time></trkpt><trkpt lat="48.37117543534386" lon="-4.585602842216662"><ele>81.0</ele><time>2026-03-30T12:44:01.999Z</time></trkpt><trkpt lat="48.37122410346912" lon="-4.585717254051957"><ele>81.0</ele><time>2026-03-30T12:44:03.999Z</time></trkpt><trkpt lat="48.37123749054253" lon="-4.58585932776922"><ele>81.0</ele><time>2026-03-30T12:44:05.999Z</time></trkpt><trkpt lat="48.37116974984096" lon="-4.585938447878075"><ele>81.0</ele><time>2026-03-30T12:44:06.999Z</time></trkpt><trkpt lat="48.371178923282386" lon="-4.586075692586415"><ele>81.0</ele><time>2026-03-30T12:44:08.999Z</time></trkpt><trkpt lat="48.371228355101685" lon="-4.5861659955800045"><ele>81.0</ele><time>2026-03-30T12:44:09.999Z</time></trkpt><trkpt lat="48.371276120242634" lon="-4.5862666902417555"><ele>81.0</ele><time>2026-03-30T12:44:11.999Z</time></trkpt><trkpt lat="48.37132527829125" lon="-4.586362247364524"><ele>81.85714285714286</ele><time>2026-03-30T12:44:13.999Z</time></trkpt><trkpt lat="48.3713725375305" lon="-4.586447343154056"><ele>82.71428571428571</ele><time>2026-03-30T12:44:15.999Z</time></trkpt><trkpt lat="48.37142827129496" lon="-4.58652614733206"><ele>83.57142857142857</ele><time>2026-03-30T12:44:17.999Z</time></trkpt><trkpt lat="48.371481008492175" lon="-4.586595084879641"><ele>84.42857142857143</ele><time>2026-03-30T12:44:19.999Z</time></trkpt><trkpt lat="48.37153864819244" lon="-4.586635914044796"><ele>85.28571428571429</ele><time>2026-03-30T12:44:21.999Z</time></trkpt><trkpt lat="48.371601531487364" lon="-4.5867145906801525"><ele>86.14285714285714</ele><time>2026-03-30T12:44:24.999Z</time></trkpt><trkpt lat="48.37166590681791" lon="-4.586772231456021"><ele>87.0</ele><time>2026-03-30T12:44:26.999Z</time></trkpt><trkpt lat="48.37172861796818" lon="-4.586816968921453"><ele>87.0</ele><time>2026-03-30T12:44:28.999Z</time></trkpt><trkpt lat="48.37178804137589" lon="-4.586872318905736"><ele>87.0</ele><time>2026-03-30T12:44:32Z</time></trkpt><trkpt lat="48.37186026707713" lon="-4.586925077638523"><ele>87.0</ele><time>2026-03-30T12:44:35Z</time></trkpt><trkpt lat="48.37195575231367" lon="-4.5869909451399025"><ele>87.0</ele><time>2026-03-30T12:44:38Z</time></trkpt><trkpt lat="48.37203558548372" lon="-4.5870585215865445"><ele>87.0</ele><time>2026-03-30T12:44:41Z</time></trkpt><trkpt lat="48.37210145913611" lon="-4.587108746753732"><ele>87.0</ele><time>2026-03-30T12:44:44Z</time></trkpt><trkpt lat="48.37213482523345" lon="-4.587191169617656"><ele>87.5</ele><time>2026-03-30T12:44:47Z</time></trkpt><trkpt lat="48.37211058737259" lon="-4.587342370554523"><ele>88.0</ele><time>2026-03-30T12:44:50Z</time></trkpt><trkpt lat="48.372106120023716" lon="-4.5874371658520925"><ele>88.5</ele><time>2026-03-30T12:44:52Z</time></trkpt><trkpt lat="48.37216603240697" lon="-4.587404363904131"><ele>89.0</ele><time>2026-03-30T12:44:53Z</time></trkpt><trkpt lat="48.37221624497542" lon="-4.587463275799608"><ele>89.5</ele><time>2026-03-30T12:44:55Z</time></trkpt><trkpt lat="48.372262829453284" lon="-4.587561546398627"><ele>90.0</ele><time>2026-03-30T12:44:58Z</time></trkpt><trkpt lat="48.372224866425256" lon="-4.587700589882658"><ele>90.0</ele><time>2026-03-30T12:45:01Z</time></trkpt><trkpt lat="48.37221147429324" lon="-4.587831051410564"><ele>90.0</ele><time>2026-03-30T12:45:03Z</time></trkpt><trkpt lat="48.37229024780142" lon="-4.587923643639173"><ele>90.0</ele><time>2026-03-30T12:45:05Z</time></trkpt><trkpt lat="48.37239241648493" lon="-4.587952833114323"><ele>90.0</ele><time>2026-03-30T12:45:07Z</time></trkpt><trkpt lat="48.372481902414975" lon="-4.587992665748886"><ele>90.0</ele><time>2026-03-30T12:45:09Z</time></trkpt><trkpt lat="48.3725667543494" lon="-4.58806168113844"><ele>90.6</ele><time>2026-03-30T12:45:11Z</time></trkpt><trkpt lat="48.37265126469823" lon="-4.588125234759822"><ele>91.2</ele><time>2026-03-30T12:45:13Z</time></trkpt><trkpt lat="48.37273921055659" lon="-4.588166456930808"><ele>91.80000000000001</ele><time>2026-03-30T12:45:15Z</time></trkpt><trkpt lat="48.372825811796865" lon="-4.58820202893491"><ele>92.4</ele><time>2026-03-30T12:45:17Z</time></trkpt><trkpt lat="48.372916696535334" lon="-4.5882426514578185"><ele>93.0</ele><time>2026-03-30T12:45:19Z</time></trkpt><trkpt lat="48.37299784226951" lon="-4.588310652743747"><ele>93.2</ele><time>2026-03-30T12:45:21Z</time></trkpt><trkpt lat="48.37306783250813" lon="-4.588366849184305"><ele>93.4</ele><time>2026-03-30T12:45:23Z</time></trkpt><trkpt lat="48.37314863751788" lon="-4.588436989356625"><ele>93.60000000000001</ele><time>2026-03-30T12:45:25Z</time></trkpt><trkpt lat="48.37326075943575" lon="-4.588534438257145"><ele>93.80000000000001</ele><time>2026-03-30T12:45:28Z</time></trkpt><trkpt lat="48.373292407668444" lon="-4.588646314979648"><ele>94.0</ele><time>2026-03-30T12:45:30Z</time></trkpt><trkpt lat="48.373236810815726" lon="-4.58877024246822"><ele>94.0</ele><time>2026-03-30T12:45:32Z</time></trkpt><trkpt lat="48.37318618441966" lon="-4.588867792814464"><ele>94.0</ele><time>2026-03-30T12:45:34Z</time></trkpt><trkpt lat="48.37313924446066" lon="-4.589001514734846"><ele>94.0</ele><time>2026-03-30T12:45:36Z</time></trkpt><trkpt lat="48.37310714054542" lon="-4.589144924916078"><ele>94.0</ele><time>2026-03-30T12:45:38Z</time></trkpt><trkpt lat="48.37306740150712" lon="-4.589283409481515"><ele>94.0</ele><time>2026-03-30T12:45:40Z</time></trkpt><trkpt lat="48.37301725611247" lon="-4.589425338720396"><ele>93.5</ele><time>2026-03-30T12:45:42Z</time></trkpt><trkpt lat="48.37295854053285" lon="-4.589567251274948"><ele>93.0</ele><time>2026-03-30T12:45:43.999Z</time></trkpt><trkpt lat="48.3728909893809" lon="-4.58970334286375"><ele>92.5</ele><time>2026-03-30T12:45:45.999Z</time></trkpt><trkpt lat="48.372828250441394" lon="-4.589843057188702"><ele>92.0</ele><time>2026-03-30T12:45:47.999Z</time></trkpt><trkpt lat="48.372759903073096" lon="-4.589989969581565"><ele>92.0</ele><time>2026-03-30T12:45:49.999Z</time></trkpt><trkpt lat="48.37269137413313" lon="-4.590136303249903"><ele>92.0</ele><time>2026-03-30T12:45:51.999Z</time></trkpt><trkpt lat="48.3726282793521" lon="-4.590299198984415"><ele>92.0</ele><time>2026-03-30T12:45:53.999Z</time></trkpt><trkpt lat="48.372591031305376" lon="-4.590377001868392"><ele>92.0</ele><time>2026-03-30T12:45:54.999Z</time></trkpt><trkpt lat="48.37255247167301" lon="-4.590457542408637"><ele>92.0</ele><time>2026-03-30T12:45:55.999Z</time></trkpt><trkpt lat="48.37250128719843" lon="-4.59051961295709"><ele>92.0</ele><time>2026-03-30T12:45:56.999Z</time></trkpt><trkpt lat="48.37246071319864" lon="-4.5905999419504155"><ele>91.85714285714286</ele><time>2026-03-30T12:45:57.999Z</time></trkpt><trkpt lat="48.37242165538416" lon="-4.590681729631721"><ele>91.71428571428571</ele><time>2026-03-30T12:45:58.999Z</time></trkpt><trkpt lat="48.37238045402035" lon="-4.590757905446532"><ele>91.57142857142857</ele><time>2026-03-30T12:45:59.999Z</time></trkpt><trkpt lat="48.37234586574636" lon="-4.5908418746372925"><ele>91.42857142857143</ele><time>2026-03-30T12:46:00.999Z</time></trkpt><trkpt lat="48.37231868052836" lon="-4.590930451808716"><ele>91.28571428571428</ele><time>2026-03-30T12:46:01.999Z</time></trkpt><trkpt lat="48.372293471095766" lon="-4.591020676344496"><ele>91.14285714285714</ele><time>2026-03-30T12:46:02.999Z</time></trkpt><trkpt lat="48.37223270925405" lon="-4.5911599294779935"><ele>91.0</ele><time>2026-03-30T12:46:04.999Z</time></trkpt><trkpt lat="48.372180310126254" lon="-4.591279233236602"><ele>91.16666666666666</ele><time>2026-03-30T12:46:08.999Z</time></trkpt><trkpt lat="48.37217886642536" lon="-4.591414183746367"><ele>91.33333333333333</ele><time>2026-03-30T12:46:11.999Z</time></trkpt><trkpt lat="48.37218555730831" lon="-4.591513210144559"><ele>91.5</ele><time>2026-03-30T12:46:13.999Z</time></trkpt><trkpt lat="48.37220648141365" lon="-4.5916249224912775"><ele>91.66666666666667</ele><time>2026-03-30T12:46:16.999Z</time></trkpt><trkpt lat="48.37227414361185" lon="-4.5916232157824295"><ele>91.83333333333334</ele><time>2026-03-30T12:46:18.999Z</time></trkpt><trkpt lat="48.37234912613345" lon="-4.591702886055022"><ele>92.0</ele><time>2026-03-30T12:46:20.999Z</time></trkpt><trkpt lat="48.37244044206523" lon="-4.591784640570587"><ele>92.0</ele><time>2026-03-30T12:46:22.999Z</time></trkpt><trkpt lat="48.372507188215586" lon="-4.591960811681018"><ele>92.0</ele><time>2026-03-30T12:46:24.999Z</time></trkpt><trkpt lat="48.37260987861183" lon="-4.592046754732598"><ele>92.0</ele><time>2026-03-30T12:46:26.999Z</time></trkpt><trkpt lat="48.37265754925257" lon="-4.592124556093963"><ele>92.0</ele><time>2026-03-30T12:46:27.999Z</time></trkpt><trkpt lat="48.37271954287327" lon="-4.592170740668791"><ele>92.0</ele><time>2026-03-30T12:46:28.999Z</time></trkpt><trkpt lat="48.37283749131376" lon="-4.592256052463888"><ele>92.0</ele><time>2026-03-30T12:46:30.999Z</time></trkpt><trkpt lat="48.372896807632955" lon="-4.5923008158541085"><ele>92.0</ele><time>2026-03-30T12:46:31.999Z</time></trkpt><trkpt lat="48.37301634568877" lon="-4.592391062037991"><ele>92.0</ele><time>2026-03-30T12:46:33.999Z</time></trkpt><trkpt lat="48.373077476351654" lon="-4.592437213100245"><ele>92.0</ele><time>2026-03-30T12:46:34.999Z</time></trkpt><trkpt lat="48.37313900760887" lon="-4.592483666337029"><ele>92.0</ele><time>2026-03-30T12:46:35.999Z</time></trkpt><trkpt lat="48.373247483447955" lon="-4.5925792231228675"><ele>91.83333333333334</ele><time>2026-03-30T12:46:38Z</time></trkpt><trkpt lat="48.37330389903776" lon="-4.592633720289344"><ele>91.66666666666667</ele><time>2026-03-30T12:46:39Z</time></trkpt><trkpt lat="48.37336286722286" lon="-4.592693180826172"><ele>91.5</ele><time>2026-03-30T12:46:40Z</time></trkpt><trkpt lat="48.37346358464301" lon="-4.592811313903636"><ele>91.33333333333333</ele><time>2026-03-30T12:46:42Z</time></trkpt><trkpt lat="48.37352101068308" lon="-4.5928839850399505"><ele>91.16666666666666</ele><time>2026-03-30T12:46:43Z</time></trkpt><trkpt lat="48.373583931407126" lon="-4.592965422903592"><ele>91.0</ele><time>2026-03-30T12:46:44Z</time></trkpt><trkpt lat="48.373641956170324" lon="-4.593040521524336"><ele>90.83333333333333</ele><time>2026-03-30T12:46:45Z</time></trkpt><trkpt lat="48.37369786352076" lon="-4.593112879650125"><ele>90.66666666666666</ele><time>2026-03-30T12:46:46Z</time></trkpt><trkpt lat="48.37375896839924" lon="-4.5931919646751265"><ele>90.5</ele><time>2026-03-30T12:46:47Z</time></trkpt><trkpt lat="48.37382783708319" lon="-4.593256403975774"><ele>90.33333333333333</ele><time>2026-03-30T12:46:48Z</time></trkpt><trkpt lat="48.37385817840081" lon="-4.593392111423302"><ele>90.16666666666667</ele><time>2026-03-30T12:46:49Z</time></trkpt><trkpt lat="48.37391091421813" lon="-4.593482982549314"><ele>90.0</ele><time>2026-03-30T12:46:50Z</time></trkpt><trkpt lat="48.373946730770804" lon="-4.593608174743749"><ele>89.4</ele><time>2026-03-30T12:46:51Z</time></trkpt><trkpt lat="48.37396487754926" lon="-4.593743035066345"><ele>88.8</ele><time>2026-03-30T12:46:52Z</time></trkpt><trkpt lat="48.37399637751257" lon="-4.593871973652657"><ele>88.19999999999999</ele><time>2026-03-30T12:46:53Z</time></trkpt><trkpt lat="48.373969433177706" lon="-4.594026356393784"><ele>87.6</ele><time>2026-03-30T12:46:54Z</time></trkpt><trkpt lat="48.37399410931601" lon="-4.5941335274208255"><ele>87.0</ele><time>2026-03-30T12:46:55Z</time></trkpt><trkpt lat="48.37402583980858" lon="-4.594283266041788"><ele>87.0</ele><time>2026-03-30T12:46:57Z</time></trkpt><trkpt lat="48.37407692459312" lon="-4.594362929890746"><ele>87.0</ele><time>2026-03-30T12:46:59Z</time></trkpt><trkpt lat="48.37413159705493" lon="-4.594491481731599"><ele>87.0</ele><time>2026-03-30T12:47:01Z</time></trkpt><trkpt lat="48.37415933382895" lon="-4.594582022729209"><ele>87.0</ele><time>2026-03-30T12:47:02Z</time></trkpt><trkpt lat="48.37418076579738" lon="-4.594674597020824"><ele>87.0</ele><time>2026-03-30T12:47:03Z</time></trkpt><trkpt lat="48.37420760116155" lon="-4.594774169721261"><ele>87.0</ele><time>2026-03-30T12:47:04Z</time></trkpt><trkpt lat="48.37403565038537" lon="-4.595017238025247"><ele>86.6</ele><time>2026-03-30T12:47:05Z</time></trkpt><trkpt lat="48.374172945969974" lon="-4.59512401704835"><ele>86.19999999999999</ele><time>2026-03-30T12:47:06Z</time></trkpt><trkpt lat="48.37422788438032" lon="-4.5952172649464655"><ele>85.8</ele><time>2026-03-30T12:47:07Z</time></trkpt><trkpt lat="48.37428082703641" lon="-4.595303789081165"><ele>85.4</ele><time>2026-03-30T12:47:08Z</time></trkpt><trkpt lat="48.3743346512127" lon="-4.595391523988175"><ele>85.0</ele><time>2026-03-30T12:47:09Z</time></trkpt><trkpt lat="48.37439509953642" lon="-4.5954655749642885"><ele>84.8</ele><time>2026-03-30T12:47:10Z</time></trkpt><trkpt lat="48.37445513098534" lon="-4.5955664300845225"><ele>84.6</ele><time>2026-03-30T12:47:11Z</time></trkpt><trkpt lat="48.37451707585061" lon="-4.595664702634024"><ele>84.4</ele><time>2026-03-30T12:47:12Z</time></trkpt><trkpt lat="48.37458282119724" lon="-4.59575067943894"><ele>84.2</ele><time>2026-03-30T12:47:13Z</time></trkpt><trkpt lat="48.37466326296959" lon="-4.595832154322123"><ele>84.0</ele><time>2026-03-30T12:47:14Z</time></trkpt><trkpt lat="48.37473641882983" lon="-4.595929580144152"><ele>83.6</ele><time>2026-03-30T12:47:15Z</time></trkpt><trkpt lat="48.37481651250805" lon="-4.596011997808837"><ele>83.2</ele><time>2026-03-30T12:47:16Z</time></trkpt><trkpt lat="48.374900875874246" lon="-4.596091315916802"><ele>82.8</ele><time>2026-03-30T12:47:17Z</time></trkpt><trkpt lat="48.37497264198099" lon="-4.5961562792732735"><ele>82.39999999999999</ele><time>2026-03-30T12:47:18Z</time></trkpt><trkpt lat="48.375055137037286" lon="-4.596229023978361"><ele>82.0</ele><time>2026-03-30T12:47:19Z</time></trkpt><trkpt lat="48.37514352282772" lon="-4.596302896824388"><ele>81.8</ele><time>2026-03-30T12:47:20Z</time></trkpt><trkpt lat="48.37522963622151" lon="-4.596371283955634"><ele>81.6</ele><time>2026-03-30T12:47:21Z</time></trkpt><trkpt lat="48.37532028059546" lon="-4.596441942389292"><ele>81.39999999999999</ele><time>2026-03-30T12:47:22Z</time></trkpt><trkpt lat="48.37540581941775" lon="-4.596508621065607"><ele>81.19999999999999</ele><time>2026-03-30T12:47:23Z</time></trkpt><trkpt lat="48.37549127227675" lon="-4.596575232688192"><ele>81.0</ele><time>2026-03-30T12:47:24Z</time></trkpt><trkpt lat="48.375576410471766" lon="-4.596640259780428"><ele>80.39999999999999</ele><time>2026-03-30T12:47:25Z</time></trkpt><trkpt lat="48.37569721430081" lon="-4.5967328986663825"><ele>79.8</ele><time>2026-03-30T12:47:27Z</time></trkpt><trkpt lat="48.375807346447026" lon="-4.596815744017707"><ele>79.19999999999999</ele><time>2026-03-30T12:47:29Z</time></trkpt><trkpt lat="48.37586969448881" lon="-4.596862763603451"><ele>78.6</ele><time>2026-03-30T12:47:30Z</time></trkpt><trkpt lat="48.375934348812805" lon="-4.596911107357671"><ele>78.0</ele><time>2026-03-30T12:47:31Z</time></trkpt><trkpt lat="48.376004129258206" lon="-4.596939459663127"><ele>77.83333333333333</ele><time>2026-03-30T12:47:32Z</time></trkpt><trkpt lat="48.376073510044606" lon="-4.597015600655545"><ele>77.66666666666667</ele><time>2026-03-30T12:47:33Z</time></trkpt><trkpt lat="48.376143120226324" lon="-4.597067870379154"><ele>77.5</ele><time>2026-03-30T12:47:34Z</time></trkpt><trkpt lat="48.37621878606082" lon="-4.597124859505667"><ele>77.33333333333334</ele><time>2026-03-30T12:47:35Z</time></trkpt><trkpt lat="48.376287131811246" lon="-4.597176335433262"><ele>77.16666666666667</ele><time>2026-03-30T12:47:36Z</time></trkpt><trkpt lat="48.376355122237214" lon="-4.597226605633964"><ele>77.0</ele><time>2026-03-30T12:47:37Z</time></trkpt><trkpt lat="48.37642688167368" lon="-4.597279313520247"><ele>77.0</ele><time>2026-03-30T12:47:38Z</time></trkpt><trkpt lat="48.37649717454986" lon="-4.597330207755039"><ele>77.0</ele><time>2026-03-30T12:47:39Z</time></trkpt><trkpt lat="48.37657132395499" lon="-4.597383289572359"><ele>77.0</ele><time>2026-03-30T12:47:40Z</time></trkpt><trkpt lat="48.37664284112556" lon="-4.597434517120878"><ele>77.0</ele><time>2026-03-30T12:47:41Z</time></trkpt><trkpt lat="48.37671141415282" lon="-4.5974836912019885"><ele>77.0</ele><time>2026-03-30T12:47:42Z</time></trkpt><trkpt lat="48.37678828119547" lon="-4.597538812555213"><ele>77.0</ele><time>2026-03-30T12:47:43Z</time></trkpt><trkpt lat="48.37685938993195" lon="-4.597589804824621"><ele>77.0</ele><time>2026-03-30T12:47:44Z</time></trkpt><trkpt lat="48.37692546596787" lon="-4.597638219442727"><ele>77.0</ele><time>2026-03-30T12:47:45Z</time></trkpt><trkpt lat="48.37700050110594" lon="-4.597693834460283"><ele>77.0</ele><time>2026-03-30T12:47:46Z</time></trkpt><trkpt lat="48.377075290846804" lon="-4.597752117272731"><ele>77.0</ele><time>2026-03-30T12:47:47Z</time></trkpt><trkpt lat="48.37715090188995" lon="-4.597811378779593"><ele>77.0</ele><time>2026-03-30T12:47:48Z</time></trkpt><trkpt lat="48.37722122007262" lon="-4.59787020011387"><ele>77.0</ele><time>2026-03-30T12:47:49Z</time></trkpt><trkpt lat="48.37729751560436" lon="-4.597933542911657"><ele>76.83333333333334</ele><time>2026-03-30T12:47:50Z</time></trkpt><trkpt lat="48.37736513685755" lon="-4.597994448694351"><ele>76.66666666666667</ele><time>2026-03-30T12:47:51Z</time></trkpt><trkpt lat="48.37743483625691" lon="-4.598061334180529"><ele>76.5</ele><time>2026-03-30T12:47:51.999Z</time></trkpt><trkpt lat="48.37750272438917" lon="-4.598131536150095"><ele>76.33333333333333</ele><time>2026-03-30T12:47:52.999Z</time></trkpt><trkpt lat="48.37756576080135" lon="-4.598204377664394"><ele>76.16666666666666</ele><time>2026-03-30T12:47:53.999Z</time></trkpt><trkpt lat="48.37762311651731" lon="-4.598276666698617"><ele>76.0</ele><time>2026-03-30T12:47:54.999Z</time></trkpt><trkpt lat="48.3776738500265" lon="-4.598351551381488"><ele>76.0</ele><time>2026-03-30T12:47:55.999Z</time></trkpt><trkpt lat="48.377725574869935" lon="-4.598431202434887"><ele>76.0</ele><time>2026-03-30T12:47:56.999Z</time></trkpt><trkpt lat="48.377778343653226" lon="-4.598517197989415"><ele>76.0</ele><time>2026-03-30T12:47:57.999Z</time></trkpt><trkpt lat="48.37783180171676" lon="-4.5986073084635395"><ele>76.0</ele><time>2026-03-30T12:47:58.999Z</time></trkpt><trkpt lat="48.37788492923359" lon="-4.598698926345632"><ele>76.0</ele><time>2026-03-30T12:47:59.999Z</time></trkpt><trkpt lat="48.37793651194328" lon="-4.598790617634567"><ele>76.0</ele><time>2026-03-30T12:48:00.999Z</time></trkpt><trkpt lat="48.37798954411699" lon="-4.598894583434445"><ele>76.0</ele><time>2026-03-30T12:48:01.999Z</time></trkpt><trkpt lat="48.37803587148946" lon="-4.598998454593283"><ele>76.0</ele><time>2026-03-30T12:48:02.999Z</time></trkpt><trkpt lat="48.378072881879106" lon="-4.599089004247786"><ele>76.0</ele><time>2026-03-30T12:48:03.999Z</time></trkpt><trkpt lat="48.3781102911682" lon="-4.599180717582322"><ele>76.0</ele><time>2026-03-30T12:48:04.999Z</time></trkpt><trkpt lat="48.378138554747046" lon="-4.599266722905348"><ele>76.0</ele><time>2026-03-30T12:48:05.999Z</time></trkpt><trkpt lat="48.37819524323955" lon="-4.599422552174299"><ele>76.0</ele><time>2026-03-30T12:48:07.999Z</time></trkpt><trkpt lat="48.37835050208444" lon="-4.599814550934287"><ele>75.25</ele><time>2026-03-30T12:48:08.999Z</time></trkpt><trkpt lat="48.37841606920685" lon="-4.599872492655717"><ele>74.5</ele><time>2026-03-30T12:48:09.999Z</time></trkpt><trkpt lat="48.37847804079467" lon="-4.599927256381923"><ele>73.75</ele><time>2026-03-30T12:48:10.999Z</time></trkpt><trkpt lat="48.37852515795618" lon="-4.600066771909154"><ele>73.0</ele><time>2026-03-30T12:48:15.999Z</time></trkpt><trkpt lat="48.37878850669985" lon="-4.600357572521336"><ele>73.33333333333333</ele><time>2026-03-30T12:48:16.999Z</time></trkpt><trkpt lat="48.378858281395495" lon="-4.6003861206832815"><ele>73.66666666666666</ele><time>2026-03-30T12:48:18.999Z</time></trkpt><trkpt lat="48.37891593694477" lon="-4.600426532912291"><ele>74.0</ele><time>2026-03-30T12:48:19.999Z</time></trkpt><trkpt lat="48.37899107938964" lon="-4.60047587117858"><ele>74.33333333333333</ele><time>2026-03-30T12:48:21.999Z</time></trkpt><trkpt lat="48.379056134643555" lon="-4.600536972297977"><ele>74.66666666666667</ele><time>2026-03-30T12:48:22.999Z</time></trkpt><trkpt lat="48.3791197081349" lon="-4.600631526195761"><ele>75.0</ele><time>2026-03-30T12:48:25.999Z</time></trkpt><trkpt lat="48.37916238883957" lon="-4.6007123888137675"><ele>75.0</ele><time>2026-03-30T12:48:27.999Z</time></trkpt><trkpt lat="48.37920133015196" lon="-4.600811417457519"><ele>75.0</ele><time>2026-03-30T12:48:30.999Z</time></trkpt><trkpt lat="48.37924023355877" lon="-4.600899272574733"><ele>75.0</ele><time>2026-03-30T12:48:36.999Z</time></trkpt><trkpt lat="48.379679037359296" lon="-4.6006047088657445"><ele>75.14285714285714</ele><time>2026-03-30T12:48:37.999Z</time></trkpt><trkpt lat="48.379730696209" lon="-4.600499876485568"><ele>75.28571428571428</ele><time>2026-03-30T12:48:40.999Z</time></trkpt><trkpt lat="48.379756706212774" lon="-4.6004061939921685"><ele>75.42857142857142</ele><time>2026-03-30T12:48:44Z</time></trkpt><trkpt lat="48.37980828903959" lon="-4.600307879963466"><ele>75.57142857142857</ele><time>2026-03-30T12:48:48Z</time></trkpt><trkpt lat="48.3798716308778" lon="-4.600270784846218"><ele>75.71428571428572</ele><time>2026-03-30T12:48:51Z</time></trkpt><trkpt lat="48.37991160453747" lon="-4.600351713038396"><ele>75.85714285714285</ele><time>2026-03-30T12:48:53Z</time></trkpt><trkpt lat="48.379920598792346" lon="-4.600462569454791"><ele>76.0</ele><time>2026-03-30T12:48:55Z</time></trkpt><trkpt lat="48.3798749997583" lon="-4.600532178814651"><ele>76.0</ele><time>2026-03-30T12:48:57Z</time></trkpt><trkpt lat="48.37982384550477" lon="-4.600663366290683"><ele>76.0</ele><time>2026-03-30T12:49:00Z</time></trkpt><trkpt lat="48.37986080353829" lon="-4.600809178995014"><ele>76.0</ele><time>2026-03-30T12:49:02Z</time></trkpt><trkpt lat="48.379925252871466" lon="-4.6009293886971205"><ele>76.0</ele><time>2026-03-30T12:49:04Z</time></trkpt><trkpt lat="48.37998504373896" lon="-4.601079258508823"><ele>76.0</ele><time>2026-03-30T12:49:06Z</time></trkpt><trkpt lat="48.38002342498421" lon="-4.601161531504728"><ele>75.83333333333333</ele><time>2026-03-30T12:49:07Z</time></trkpt><trkpt lat="48.380056237940295" lon="-4.6012506449258055"><ele>75.66666666666666</ele><time>2026-03-30T12:49:08Z</time></trkpt><trkpt lat="48.38009782282241" lon="-4.601343084015846"><ele>75.5</ele><time>2026-03-30T12:49:09Z</time></trkpt><trkpt lat="48.38013336409844" lon="-4.601427316456799"><ele>75.33333333333333</ele><time>2026-03-30T12:49:10Z</time></trkpt><trkpt lat="48.380202847657905" lon="-4.601548048541413"><ele>75.16666666666667</ele><time>2026-03-30T12:49:12Z</time></trkpt><trkpt lat="48.3802643698683" lon="-4.601691653390998"><ele>75.0</ele><time>2026-03-30T12:49:14Z</time></trkpt><trkpt lat="48.38031691302854" lon="-4.601871637897131"><ele>75.0</ele><time>2026-03-30T12:49:16Z</time></trkpt><trkpt lat="48.38036043933334" lon="-4.602019746916411"><ele>75.0</ele><time>2026-03-30T12:49:18Z</time></trkpt><trkpt lat="48.38039858542784" lon="-4.602162722422862"><ele>75.0</ele><time>2026-03-30T12:49:20Z</time></trkpt><trkpt lat="48.38044345617462" lon="-4.602308641814439"><ele>75.0</ele><time>2026-03-30T12:49:22Z</time></trkpt><trkpt lat="48.38048182571846" lon="-4.602476808433375"><ele>75.0</ele><time>2026-03-30T12:49:24Z</time></trkpt><trkpt lat="48.38052063668394" lon="-4.60264303785632"><ele>75.6</ele><time>2026-03-30T12:49:26Z</time></trkpt><trkpt lat="48.3805630802411" lon="-4.6028181240079915"><ele>76.2</ele><time>2026-03-30T12:49:28Z</time></trkpt><trkpt lat="48.38059411063283" lon="-4.6029770239666385"><ele>76.8</ele><time>2026-03-30T12:49:30Z</time></trkpt><trkpt lat="48.38062321785861" lon="-4.603076512105951"><ele>77.4</ele><time>2026-03-30T12:49:32Z</time></trkpt><trkpt lat="48.38065452975659" lon="-4.603178339543538"><ele>78.0</ele><time>2026-03-30T12:49:37Z</time></trkpt><trkpt lat="48.380643144499764" lon="-4.603301742349455"><ele>78.0</ele><time>2026-03-30T12:49:40Z</time></trkpt><trkpt lat="48.38068814818457" lon="-4.603503004718202"><ele>78.0</ele><time>2026-03-30T12:49:43Z</time></trkpt><trkpt lat="48.380707744885584" lon="-4.603596127541103"><ele>78.0</ele><time>2026-03-30T12:49:44Z</time></trkpt><trkpt lat="48.380725293685515" lon="-4.6036951768732255"><ele>78.0</ele><time>2026-03-30T12:49:45Z</time></trkpt><trkpt lat="48.38074873191345" lon="-4.603798168849009"><ele>78.0</ele><time>2026-03-30T12:49:46Z</time></trkpt><trkpt lat="48.38076802180216" lon="-4.603902229285707"><ele>78.0</ele><time>2026-03-30T12:49:47Z</time></trkpt><trkpt lat="48.380783558371235" lon="-4.60400959246862"><ele>77.66666666666667</ele><time>2026-03-30T12:49:48Z</time></trkpt><trkpt lat="48.38080440677546" lon="-4.604107743526422"><ele>77.33333333333333</ele><time>2026-03-30T12:49:49Z</time></trkpt><trkpt lat="48.38082334557737" lon="-4.604205028363304"><ele>77.0</ele><time>2026-03-30T12:49:50Z</time></trkpt><trkpt lat="48.38084885053917" lon="-4.604300358960081"><ele>76.66666666666666</ele><time>2026-03-30T12:49:51Z</time></trkpt><trkpt lat="48.3808672620068" lon="-4.60439367133187"><ele>76.33333333333333</ele><time>2026-03-30T12:49:52Z</time></trkpt><trkpt lat="48.38089015786494" lon="-4.6045014060885485"><ele>76.0</ele><time>2026-03-30T12:49:53Z</time></trkpt><trkpt lat="48.38092679059912" lon="-4.604684458296159"><ele>75.83333333333333</ele><time>2026-03-30T12:49:55Z</time></trkpt><trkpt lat="48.380965991433" lon="-4.604868081606006"><ele>75.66666666666666</ele><time>2026-03-30T12:49:57Z</time></trkpt><trkpt lat="48.3809953712655" lon="-4.604972843753653"><ele>75.5</ele><time>2026-03-30T12:49:58Z</time></trkpt><trkpt lat="48.381019837786596" lon="-4.6050847468635165"><ele>75.33333333333333</ele><time>2026-03-30T12:49:58.999Z</time></trkpt><trkpt lat="48.38104136067817" lon="-4.60519492053067"><ele>75.16666666666667</ele><time>2026-03-30T12:49:59.999Z</time></trkpt><trkpt lat="48.38106566609279" lon="-4.60530188199535"><ele>75.0</ele><time>2026-03-30T12:50:00.999Z</time></trkpt><trkpt lat="48.381082152703705" lon="-4.605407913772878"><ele>74.66666666666667</ele><time>2026-03-30T12:50:01.999Z</time></trkpt><trkpt lat="48.381102851536404" lon="-4.605515357670345"><ele>74.33333333333333</ele><time>2026-03-30T12:50:02.999Z</time></trkpt><trkpt lat="48.38113640459212" lon="-4.605606209884924"><ele>74.0</ele><time>2026-03-30T12:50:03.999Z</time></trkpt><trkpt lat="48.38114903764487" lon="-4.605780258592791"><ele>73.66666666666666</ele><time>2026-03-30T12:50:05.999Z</time></trkpt><trkpt lat="48.381101989831585" lon="-4.605856308708583"><ele>73.33333333333333</ele><time>2026-03-30T12:50:06.999Z</time></trkpt><trkpt lat="48.38108548850713" lon="-4.6059959298988895"><ele>73.0</ele><time>2026-03-30T12:50:08.999Z</time></trkpt><trkpt lat="48.38113641783084" lon="-4.6061395231122795"><ele>72.6</ele><time>2026-03-30T12:50:10.999Z</time></trkpt><trkpt lat="48.381087418141334" lon="-4.606298389794952"><ele>72.19999999999999</ele><time>2026-03-30T12:50:11.999Z</time></trkpt><trkpt lat="48.381151765884546" lon="-4.606405683147917"><ele>71.8</ele><time>2026-03-30T12:50:13.999Z</time></trkpt><trkpt lat="48.381226562656224" lon="-4.606550364250345"><ele>71.39999999999999</ele><time>2026-03-30T12:50:15.999Z</time></trkpt><trkpt lat="48.38126840386672" lon="-4.60663607586229"><ele>71.0</ele><time>2026-03-30T12:50:16.999Z</time></trkpt><trkpt lat="48.381308550364515" lon="-4.606728653065178"><ele>71.28571428571428</ele><time>2026-03-30T12:50:17.999Z</time></trkpt><trkpt lat="48.38134891794203" lon="-4.606820373479734"><ele>71.57142857142857</ele><time>2026-03-30T12:50:18.999Z</time></trkpt><trkpt lat="48.38138520219958" lon="-4.606907470246255"><ele>71.85714285714286</ele><time>2026-03-30T12:50:19.999Z</time></trkpt><trkpt lat="48.381432966911895" lon="-4.606987332770944"><ele>72.14285714285714</ele><time>2026-03-30T12:50:20.999Z</time></trkpt><trkpt lat="48.381466379647286" lon="-4.607084898448668"><ele>72.42857142857143</ele><time>2026-03-30T12:50:21.999Z</time></trkpt><trkpt lat="48.38148557446388" lon="-4.607196179443905"><ele>72.71428571428571</ele><time>2026-03-30T12:50:22.999Z</time></trkpt><trkpt lat="48.38154573915706" lon="-4.607269842734844"><ele>73.0</ele><time>2026-03-30T12:50:23.999Z</time></trkpt><trkpt lat="48.38156138562018" lon="-4.607377748799771"><ele>73.0</ele><time>2026-03-30T12:50:24.999Z</time></trkpt><trkpt lat="48.38158912406229" lon="-4.607474026410921"><ele>73.0</ele><time>2026-03-30T12:50:25.999Z</time></trkpt><trkpt lat="48.38161452282888" lon="-4.607566138705487"><ele>73.0</ele><time>2026-03-30T12:50:26.999Z</time></trkpt><trkpt lat="48.38163819241355" lon="-4.60765542248777"><ele>73.0</ele><time>2026-03-30T12:50:27.999Z</time></trkpt><trkpt lat="48.38166412587337" lon="-4.607754595281717"><ele>73.0</ele><time>2026-03-30T12:50:28.999Z</time></trkpt><trkpt lat="48.38168982834049" lon="-4.607855961101851"><ele>73.0</ele><time>2026-03-30T12:50:29.999Z</time></trkpt><trkpt lat="48.38171231924616" lon="-4.60794466213871"><ele>73.0</ele><time>2026-03-30T12:50:30.999Z</time></trkpt><trkpt lat="48.381752004980946" lon="-4.608122114815188"><ele>72.6</ele><time>2026-03-30T12:50:32.999Z</time></trkpt><trkpt lat="48.381795165696936" lon="-4.608253188675322"><ele>72.19999999999999</ele><time>2026-03-30T12:50:33.999Z</time></trkpt><trkpt lat="48.38180966794978" lon="-4.608361801920393"><ele>71.8</ele><time>2026-03-30T12:50:34.999Z</time></trkpt><trkpt lat="48.38183286286511" lon="-4.608453067697101"><ele>71.39999999999999</ele><time>2026-03-30T12:50:35.999Z</time></trkpt><trkpt lat="48.38185695954775" lon="-4.60861518783935"><ele>71.0</ele><time>2026-03-30T12:50:37.999Z</time></trkpt><trkpt lat="48.3818926253786" lon="-4.608797405253754"><ele>70.8</ele><time>2026-03-30T12:50:39.999Z</time></trkpt><trkpt lat="48.381937649297875" lon="-4.6089677869093375"><ele>70.6</ele><time>2026-03-30T12:50:41.999Z</time></trkpt><trkpt lat="48.38200032137445" lon="-4.609119637176957"><ele>70.4</ele><time>2026-03-30T12:50:43.999Z</time></trkpt><trkpt lat="48.38211795976878" lon="-4.609161320870169"><ele>70.2</ele><time>2026-03-30T12:50:45.999Z</time></trkpt><trkpt lat="48.38216986782138" lon="-4.609246969110539"><ele>70.0</ele><time>2026-03-30T12:50:47.999Z</time></trkpt><trkpt lat="48.382184345509316" lon="-4.609344863531679"><ele>70.4</ele><time>2026-03-30T12:50:50Z</time></trkpt><trkpt lat="48.382166918159804" lon="-4.609496770154541"><ele>70.8</ele><time>2026-03-30T12:50:52Z</time></trkpt><trkpt lat="48.38211239297755" lon="-4.609585603541107"><ele>71.2</ele><time>2026-03-30T12:50:54Z</time></trkpt><trkpt lat="48.38207647128337" lon="-4.609737716669831"><ele>71.6</ele><time>2026-03-30T12:50:56Z</time></trkpt><trkpt lat="48.38206584701488" lon="-4.609866924976773"><ele>72.0</ele><time>2026-03-30T12:50:58Z</time></trkpt><trkpt lat="48.382079449714524" lon="-4.609988890713632"><ele>72.00000000000001</ele><time>2026-03-30T12:51:00Z</time></trkpt><trkpt lat="48.3820912809885" lon="-4.6101142797355354"><ele>72.0</ele><time>2026-03-30T12:51:02Z</time></trkpt><trkpt lat="48.3821000685504" lon="-4.610221458713145"><ele>72.0</ele><time>2026-03-30T12:51:04Z</time></trkpt><trkpt lat="48.382106755101816" lon="-4.610320600512"><ele>72.0</ele><time>2026-03-30T12:51:06Z</time></trkpt><trkpt lat="48.382112922619754" lon="-4.610424072771562"><ele>72.0</ele><time>2026-03-30T12:51:08Z</time></trkpt><trkpt lat="48.382117707485506" lon="-4.61052897017174"><ele>72.00000000000001</ele><time>2026-03-30T12:51:10Z</time></trkpt><trkpt lat="48.3821209009299" lon="-4.610628614672042"><ele>72.0</ele><time>2026-03-30T12:51:12Z</time></trkpt><trkpt lat="48.382121678364626" lon="-4.61073815633627"><ele>72.0</ele><time>2026-03-30T12:51:14Z</time></trkpt><trkpt lat="48.38213071330335" lon="-4.6108481256595"><ele>72.0</ele><time>2026-03-30T12:51:16Z</time></trkpt><trkpt lat="48.382097880355424" lon="-4.610970692438967"><ele>72.0</ele><time>2026-03-30T12:51:18Z</time></trkpt><trkpt lat="48.38208987810924" lon="-4.611104110306332"><ele>72.0</ele><time>2026-03-30T12:51:20Z</time></trkpt><trkpt lat="48.38207307691242" lon="-4.611224619194346"><ele>72.0</ele><time>2026-03-30T12:51:22Z</time></trkpt><trkpt lat="48.38206690841405" lon="-4.61136488863006"><ele>72.0</ele><time>2026-03-30T12:51:24Z</time></trkpt><trkpt lat="48.38205442275788" lon="-4.611503478001054"><ele>72.33333333333333</ele><time>2026-03-30T12:51:26Z</time></trkpt><trkpt lat="48.38203723063551" lon="-4.611630720402018"><ele>72.66666666666667</ele><time>2026-03-30T12:51:28Z</time></trkpt><trkpt lat="48.38202552170717" lon="-4.611744199163185"><ele>73.0</ele><time>2026-03-30T12:51:30Z</time></trkpt><trkpt lat="48.38202276454962" lon="-4.611850372334538"><ele>73.33333333333334</ele><time>2026-03-30T12:51:32Z</time></trkpt><trkpt lat="48.382032463373655" lon="-4.6119606812203"><ele>73.66666666666667</ele><time>2026-03-30T12:51:34Z</time></trkpt><trkpt lat="48.382023371765186" lon="-4.61206444136445"><ele>74.0</ele><time>2026-03-30T12:51:36Z</time></trkpt><trkpt lat="48.38197856524934" lon="-4.612155657252246"><ele>74.33333333333334</ele><time>2026-03-30T12:51:38Z</time></trkpt><trkpt lat="48.38192888138262" lon="-4.612267849384466"><ele>74.66666666666667</ele><time>2026-03-30T12:51:40Z</time></trkpt><trkpt lat="48.38190025729132" lon="-4.612383668872415"><ele>75.0</ele><time>2026-03-30T12:51:42Z</time></trkpt><trkpt lat="48.381882290803496" lon="-4.612508047248128"><ele>75.33333333333333</ele><time>2026-03-30T12:51:44Z</time></trkpt><trkpt lat="48.38185682498728" lon="-4.612634348888326"><ele>75.66666666666666</ele><time>2026-03-30T12:51:46Z</time></trkpt><trkpt lat="48.38181859267036" lon="-4.612745686275026"><ele>76.0</ele><time>2026-03-30T12:51:48Z</time></trkpt><trkpt lat="48.38179680980242" lon="-4.612886110724116"><ele>76.6</ele><time>2026-03-30T12:51:50Z</time></trkpt><trkpt lat="48.38178033643417" lon="-4.613025160718548"><ele>77.19999999999999</ele><time>2026-03-30T12:51:52Z</time></trkpt><trkpt lat="48.3817524352539" lon="-4.613169015512955"><ele>77.80000000000001</ele><time>2026-03-30T12:51:54Z</time></trkpt><trkpt lat="48.381729091668674" lon="-4.613299209219929"><ele>78.4</ele><time>2026-03-30T12:51:56Z</time></trkpt><trkpt lat="48.381703474152" lon="-4.613419758839865"><ele>79.0</ele><time>2026-03-30T12:51:58Z</time></trkpt><trkpt lat="48.38168940818952" lon="-4.613545424410388"><ele>78.83333333333333</ele><time>2026-03-30T12:52:00Z</time></trkpt><trkpt lat="48.381672539991115" lon="-4.613658477251433"><ele>78.66666666666666</ele><time>2026-03-30T12:52:02Z</time></trkpt><trkpt lat="48.3816627709503" lon="-4.613771796429661"><ele>78.5</ele><time>2026-03-30T12:52:04Z</time></trkpt><trkpt lat="48.38167392676236" lon="-4.6138744357781265"><ele>78.33333333333333</ele><time>2026-03-30T12:52:06Z</time></trkpt><trkpt lat="48.38166191755067" lon="-4.613976439844458"><ele>78.16666666666667</ele><time>2026-03-30T12:52:07.999Z</time></trkpt><trkpt lat="48.38162303474471" lon="-4.614075984183481"><ele>78.0</ele><time>2026-03-30T12:52:09.999Z</time></trkpt><trkpt lat="48.38158776003393" lon="-4.61419012908467"><ele>78.0</ele><time>2026-03-30T12:52:11.999Z</time></trkpt><trkpt lat="48.381551381126876" lon="-4.614312569873724"><ele>78.0</ele><time>2026-03-30T12:52:13.999Z</time></trkpt><trkpt lat="48.38151591255581" lon="-4.614430260248282"><ele>78.0</ele><time>2026-03-30T12:52:15.999Z</time></trkpt><trkpt lat="48.381493010273786" lon="-4.614559704760186"><ele>78.0</ele><time>2026-03-30T12:52:17.999Z</time></trkpt><trkpt lat="48.38148360439075" lon="-4.61469298419418"><ele>78.0</ele><time>2026-03-30T12:52:19.999Z</time></trkpt><trkpt lat="48.38148507552163" lon="-4.614810638415178"><ele>78.0</ele><time>2026-03-30T12:52:21.999Z</time></trkpt><trkpt lat="48.38147230764699" lon="-4.6149402835950735"><ele>78.0</ele><time>2026-03-30T12:52:23.999Z</time></trkpt><trkpt lat="48.38147059912849" lon="-4.615067145240142"><ele>78.0</ele><time>2026-03-30T12:52:25.999Z</time></trkpt><trkpt lat="48.38146973035732" lon="-4.615203935236256"><ele>78.0</ele><time>2026-03-30T12:52:27.999Z</time></trkpt><trkpt lat="48.38147114700584" lon="-4.615354983885285"><ele>78.0</ele><time>2026-03-30T12:52:29.999Z</time></trkpt><trkpt lat="48.381473946157676" lon="-4.615501096940268"><ele>78.0</ele><time>2026-03-30T12:52:31.999Z</time></trkpt><trkpt lat="48.38148384833055" lon="-4.615628137487392"><ele>78.0</ele><time>2026-03-30T12:52:33.999Z</time></trkpt><trkpt lat="48.38150856788679" lon="-4.615767946964304"><ele>78.0</ele><time>2026-03-30T12:52:35.999Z</time></trkpt><trkpt lat="48.381550884066215" lon="-4.615865808298142"><ele>78.0</ele><time>2026-03-30T12:52:37.999Z</time></trkpt><trkpt lat="48.38161366249821" lon="-4.615969030407826"><ele>78.0</ele><time>2026-03-30T12:52:39.999Z</time></trkpt><trkpt lat="48.38162866149385" lon="-4.616094937719535"><ele>78.0</ele><time>2026-03-30T12:52:42.999Z</time></trkpt><trkpt lat="48.38157796040547" lon="-4.616219260921868"><ele>78.0</ele><time>2026-03-30T12:52:44.999Z</time></trkpt><trkpt lat="48.38152968242699" lon="-4.616372114669361"><ele>77.4</ele><time>2026-03-30T12:52:46.999Z</time></trkpt><trkpt lat="48.38154453626405" lon="-4.616470125015355"><ele>76.8</ele><time>2026-03-30T12:52:47.999Z</time></trkpt><trkpt lat="48.38156170452353" lon="-4.616564798796369"><ele>76.2</ele><time>2026-03-30T12:52:48.999Z</time></trkpt><trkpt lat="48.381570774396074" lon="-4.61675394487485"><ele>75.6</ele><time>2026-03-30T12:52:50.999Z</time></trkpt><trkpt lat="48.38158180041472" lon="-4.616931749035765"><ele>75.0</ele><time>2026-03-30T12:52:52.999Z</time></trkpt><trkpt lat="48.38160100198104" lon="-4.617067232895632"><ele>74.57142857142857</ele><time>2026-03-30T12:52:55Z</time></trkpt><trkpt lat="48.38163092313487" lon="-4.617162595677996"><ele>74.14285714285714</ele><time>2026-03-30T12:52:57Z</time></trkpt><trkpt lat="48.38162889207249" lon="-4.617265370783084"><ele>73.71428571428572</ele><time>2026-03-30T12:53:00Z</time></trkpt><trkpt lat="48.381589168419204" lon="-4.617372312014264"><ele>73.28571428571428</ele><time>2026-03-30T12:54:46.999Z</time></trkpt><trkpt lat="48.381565105786486" lon="-4.617470517617808"><ele>72.85714285714286</ele><time>2026-03-30T12:54:48.999Z</time></trkpt><trkpt lat="48.38154494212909" lon="-4.6175890337498"><ele>72.42857142857143</ele><time>2026-03-30T12:54:51.999Z</time></trkpt><trkpt lat="48.38154995173745" lon="-4.617704540909905"><ele>72.0</ele><time>2026-03-30T12:54:54.999Z</time></trkpt><trkpt lat="48.3815628444577" lon="-4.617838836929898"><ele>71.33333333333333</ele><time>2026-03-30T12:54:59.999Z</time></trkpt><trkpt lat="48.38156320994389" lon="-4.617945902378198"><ele>70.66666666666667</ele><time>2026-03-30T12:55:02Z</time></trkpt><trkpt lat="48.38155703793446" lon="-4.618053690611511"><ele>70.0</ele><time>2026-03-30T12:55:04Z</time></trkpt><trkpt lat="48.38156404896948" lon="-4.618155196826436"><ele>69.33333333333334</ele><time>2026-03-30T12:55:06Z</time></trkpt><trkpt lat="48.38156978673114" lon="-4.618267385762336"><ele>68.66666666666667</ele><time>2026-03-30T12:55:08Z</time></trkpt><trkpt lat="48.381592282211514" lon="-4.618390946252897"><ele>68.0</ele><time>2026-03-30T12:55:10Z</time></trkpt><trkpt lat="48.3816124669121" lon="-4.6185268563983515"><ele>68.0</ele><time>2026-03-30T12:55:13Z</time></trkpt><trkpt lat="48.381627415705026" lon="-4.618646406190801"><ele>68.0</ele><time>2026-03-30T12:55:15Z</time></trkpt><trkpt lat="48.3816040063933" lon="-4.618747793401194"><ele>68.0</ele><time>2026-03-30T12:55:19Z</time></trkpt><trkpt lat="48.38163776104222" lon="-4.618845285036108"><ele>68.0</ele><time>2026-03-30T12:55:25Z</time></trkpt><trkpt lat="48.38168556061355" lon="-4.6189850027479435"><ele>68.0</ele><time>2026-03-30T12:55:28Z</time></trkpt><trkpt lat="48.38170746577671" lon="-4.619136818319559"><ele>68.0</ele><time>2026-03-30T12:55:30Z</time></trkpt><trkpt lat="48.38171127085779" lon="-4.619322360447911"><ele>68.0</ele><time>2026-03-30T12:55:32Z</time></trkpt><trkpt lat="48.38174029247143" lon="-4.619416551829957"><ele>68.0</ele><time>2026-03-30T12:55:33Z</time></trkpt><trkpt lat="48.381740116917875" lon="-4.619598530232097"><ele>68.0</ele><time>2026-03-30T12:55:35Z</time></trkpt><trkpt lat="48.38173956038411" lon="-4.619698640879093"><ele>68.0</ele><time>2026-03-30T12:55:36Z</time></trkpt><trkpt lat="48.381739029030165" lon="-4.619794221947174"><ele>68.0</ele><time>2026-03-30T12:55:37Z</time></trkpt><trkpt lat="48.38173135794453" lon="-4.619953255550875"><ele>68.0</ele><time>2026-03-30T12:55:39Z</time></trkpt><trkpt lat="48.38172416353089" lon="-4.620064083344856"><ele>68.2</ele><time>2026-03-30T12:55:40Z</time></trkpt><trkpt lat="48.38173829690581" lon="-4.620165638467906"><ele>68.4</ele><time>2026-03-30T12:55:41Z</time></trkpt><trkpt lat="48.38174302576323" lon="-4.620326789314918"><ele>68.60000000000001</ele><time>2026-03-30T12:55:43Z</time></trkpt><trkpt lat="48.38174731810761" lon="-4.6204809435454335"><ele>68.8</ele><time>2026-03-30T12:55:45Z</time></trkpt><trkpt lat="48.38177927732881" lon="-4.620617239985185"><ele>69.0</ele><time>2026-03-30T12:55:47Z</time></trkpt><trkpt lat="48.38178741387448" lon="-4.620748413572304"><ele>69.0</ele><time>2026-03-30T12:55:49Z</time></trkpt><trkpt lat="48.381826920333694" lon="-4.620865873895175"><ele>69.0</ele><time>2026-03-30T12:55:51Z</time></trkpt><trkpt lat="48.38183302803008" lon="-4.620981374557084"><ele>69.0</ele><time>2026-03-30T12:55:53Z</time></trkpt><trkpt lat="48.38187220496023" lon="-4.621064806713397"><ele>69.0</ele><time>2026-03-30T12:55:55Z</time></trkpt><trkpt lat="48.381967585301176" lon="-4.621067639506114"><ele>69.0</ele><time>2026-03-30T12:55:57Z</time></trkpt><trkpt lat="48.382046593558236" lon="-4.621135868277006"><ele>69.0</ele><time>2026-03-30T12:55:59Z</time></trkpt><trkpt lat="48.38209379921421" lon="-4.6212668146916185"><ele>69.0</ele><time>2026-03-30T12:56:01Z</time></trkpt><trkpt lat="48.38215876857547" lon="-4.621373647694882"><ele>69.0</ele><time>2026-03-30T12:56:03Z</time></trkpt><trkpt lat="48.38222089310494" lon="-4.621494039232833"><ele>69.0</ele><time>2026-03-30T12:56:05Z</time></trkpt><trkpt lat="48.38226823103152" lon="-4.621620853169452"><ele>69.0</ele><time>2026-03-30T12:56:07Z</time></trkpt><trkpt lat="48.38231047112602" lon="-4.621737298274402"><ele>69.0</ele><time>2026-03-30T12:56:09Z</time></trkpt><trkpt lat="48.38237537961894" lon="-4.621859205692139"><ele>69.8</ele><time>2026-03-30T12:56:11Z</time></trkpt><trkpt lat="48.382480411258456" lon="-4.621912650341739"><ele>70.60000000000001</ele><time>2026-03-30T12:56:13Z</time></trkpt><trkpt lat="48.382584371796696" lon="-4.621874151452198"><ele>71.4</ele><time>2026-03-30T12:56:14.999Z</time></trkpt><trkpt lat="48.38268262573281" lon="-4.621842490100157"><ele>72.2</ele><time>2026-03-30T12:56:16.999Z</time></trkpt><trkpt lat="48.38277812549093" lon="-4.621808191602633"><ele>73.0</ele><time>2026-03-30T12:56:18.999Z</time></trkpt><trkpt lat="48.38287561233848" lon="-4.621778188727461"><ele>73.0</ele><time>2026-03-30T12:56:20.999Z</time></trkpt><trkpt lat="48.38296475966638" lon="-4.621754155212367"><ele>73.0</ele><time>2026-03-30T12:56:22.999Z</time></trkpt><trkpt lat="48.38307925247839" lon="-4.621721521256039"><ele>73.0</ele><time>2026-03-30T12:56:24.999Z</time></trkpt><trkpt lat="48.38318350181983" lon="-4.621686506729414"><ele>73.0</ele><time>2026-03-30T12:56:26.999Z</time></trkpt><trkpt lat="48.383287119905546" lon="-4.621654985090946"><ele>73.0</ele><time>2026-03-30T12:56:28.999Z</time></trkpt><trkpt lat="48.38339135699476" lon="-4.621616916353248"><ele>73.2</ele><time>2026-03-30T12:56:30.999Z</time></trkpt><trkpt lat="48.383500943699424" lon="-4.621577900813486"><ele>73.4</ele><time>2026-03-30T12:56:32.999Z</time></trkpt><trkpt lat="48.383596529452696" lon="-4.621530145215118"><ele>73.60000000000001</ele><time>2026-03-30T12:56:34.999Z</time></trkpt><trkpt lat="48.38367409046269" lon="-4.621480823100593"><ele>73.8</ele><time>2026-03-30T12:56:36.999Z</time></trkpt><trkpt lat="48.38374008217332" lon="-4.621412485985033"><ele>74.0</ele><time>2026-03-30T12:56:38.999Z</time></trkpt><trkpt lat="48.38375607264818" lon="-4.62126296875547"><ele>74.5</ele><time>2026-03-30T12:56:40.999Z</time></trkpt><trkpt lat="48.38373067327659" lon="-4.62114736964832"><ele>75.0</ele><time>2026-03-30T12:56:43.999Z</time></trkpt><trkpt lat="48.383715961837595" lon="-4.621022421732818"><ele>75.5</ele><time>2026-03-30T12:56:46.999Z</time></trkpt><trkpt lat="48.383679104687786" lon="-4.620904035734089"><ele>76.0</ele><time>2026-03-30T12:56:49.999Z</time></trkpt><trkpt lat="48.38368287092322" lon="-4.620799563360642"><ele>76.5</ele><time>2026-03-30T12:56:53.999Z</time></trkpt><trkpt lat="48.383726188723074" lon="-4.620886111695513"><ele>77.0</ele><time>2026-03-30T12:56:57.999Z</time></trkpt><trkpt lat="48.38371404702274" lon="-4.621007752526079"><ele>77.0</ele><time>2026-03-30T12:57:39Z</time></trkpt><trkpt lat="48.383741381936815" lon="-4.621142557194399"><ele>77.0</ele><time>2026-03-30T12:57:42Z</time></trkpt><trkpt lat="48.383749306504676" lon="-4.621244124917181"><ele>77.0</ele><time>2026-03-30T12:57:44Z</time></trkpt><trkpt lat="48.383779734592714" lon="-4.621360373360574"><ele>77.0</ele><time>2026-03-30T12:57:46Z</time></trkpt><trkpt lat="48.383850179880945" lon="-4.6214176197287475"><ele>77.0</ele><time>2026-03-30T12:57:48Z</time></trkpt><trkpt lat="48.38394447243083" lon="-4.621378935922329"><ele>77.0</ele><time>2026-03-30T12:57:50Z</time></trkpt><trkpt lat="48.38404769871602" lon="-4.6213149629693415"><ele>76.8</ele><time>2026-03-30T12:57:52Z</time></trkpt><trkpt lat="48.38414312049613" lon="-4.6212580777320875"><ele>76.6</ele><time>2026-03-30T12:57:54Z</time></trkpt><trkpt lat="48.38424426130874" lon="-4.621222552429668"><ele>76.39999999999999</ele><time>2026-03-30T12:57:56Z</time></trkpt><trkpt lat="48.3843472970155" lon="-4.62116044148439"><ele>76.2</ele><time>2026-03-30T12:57:58Z</time></trkpt><trkpt lat="48.38446181274946" lon="-4.621125727644609"><ele>76.0</ele><time>2026-03-30T12:58:00Z</time></trkpt><trkpt lat="48.384564218797856" lon="-4.621057848771517"><ele>76.25</ele><time>2026-03-30T12:58:02Z</time></trkpt><trkpt lat="48.38468186582059" lon="-4.620987317500716"><ele>76.5</ele><time>2026-03-30T12:58:04Z</time></trkpt><trkpt lat="48.38477682097337" lon="-4.62094221763181"><ele>76.75</ele><time>2026-03-30T12:58:06Z</time></trkpt><trkpt lat="48.384884395868916" lon="-4.620883740900549"><ele>77.0</ele><time>2026-03-30T12:58:08Z</time></trkpt><trkpt lat="48.384988328733975" lon="-4.6208310192054105"><ele>77.0</ele><time>2026-03-30T12:58:10Z</time></trkpt><trkpt lat="48.38506269534259" lon="-4.620774309345778"><ele>77.0</ele><time>2026-03-30T12:58:12Z</time></trkpt><trkpt lat="48.38510479051538" lon="-4.620695411483201"><ele>77.0</ele><time>2026-03-30T12:58:15.999Z</time></trkpt><trkpt lat="48.38514767178855" lon="-4.620565029334461"><ele>77.0</ele><time>2026-03-30T12:58:18.999Z</time></trkpt><trkpt lat="48.38516149391487" lon="-4.620460538433089"><ele>77.0</ele><time>2026-03-30T12:58:20.999Z</time></trkpt><trkpt lat="48.38515617650481" lon="-4.620338293132244"><ele>77.0</ele><time>2026-03-30T12:58:22.999Z</time></trkpt><trkpt lat="48.385155334164374" lon="-4.620217800941734"><ele>77.5</ele><time>2026-03-30T12:58:24.999Z</time></trkpt><trkpt lat="48.38513637927558" lon="-4.620097818372729"><ele>78.0</ele><time>2026-03-30T12:58:26.999Z</time></trkpt><trkpt lat="48.38513571699762" lon="-4.619981733876445"><ele>78.5</ele><time>2026-03-30T12:58:28.999Z</time></trkpt><trkpt lat="48.38514909460667" lon="-4.619858361984963"><ele>79.0</ele><time>2026-03-30T12:58:30.999Z</time></trkpt><trkpt lat="48.385145466800545" lon="-4.619731568588678"><ele>79.5</ele><time>2026-03-30T12:58:32.999Z</time></trkpt><trkpt lat="48.38514560175836" lon="-4.619600837076058"><ele>80.0</ele><time>2026-03-30T12:58:34.999Z</time></trkpt><trkpt lat="48.38514181367538" lon="-4.6194700723165445"><ele>80.0</ele><time>2026-03-30T12:58:36.999Z</time></trkpt><trkpt lat="48.38510390496298" lon="-4.619344681585002"><ele>80.0</ele><time>2026-03-30T12:58:38.999Z</time></trkpt><trkpt lat="48.38507819923729" lon="-4.61923131462487"><ele>80.0</ele><time>2026-03-30T12:58:40.999Z</time></trkpt><trkpt lat="48.38501773650131" lon="-4.619115902243188"><ele>80.0</ele><time>2026-03-30T12:58:42.999Z</time></trkpt><trkpt lat="48.384963629277394" lon="-4.619002539883632"><ele>80.0</ele><time>2026-03-30T12:58:44.999Z</time></trkpt><trkpt lat="48.38492759290134" lon="-4.618873305173356"><ele>80.0</ele><time>2026-03-30T12:58:46.999Z</time></trkpt><trkpt lat="48.38487510736898" lon="-4.618743287104672"><ele>80.0</ele><time>2026-03-30T12:58:48.999Z</time></trkpt><trkpt lat="48.38483141357103" lon="-4.618580513138575"><ele>80.0</ele><time>2026-03-30T12:58:50.999Z</time></trkpt><trkpt lat="48.384779875728036" lon="-4.618521509693413"><ele>80.0</ele><time>2026-03-30T12:58:51.999Z</time></trkpt><trkpt lat="48.38474047570275" lon="-4.618363109204063"><ele>80.0</ele><time>2026-03-30T12:58:53.999Z</time></trkpt><trkpt lat="48.38470636942999" lon="-4.6182236646646775"><ele>80.4</ele><time>2026-03-30T12:58:55.999Z</time></trkpt><trkpt lat="48.38466587287239" lon="-4.61807923409098"><ele>80.8</ele><time>2026-03-30T12:58:57.999Z</time></trkpt><trkpt lat="48.38463760323056" lon="-4.617937649175336"><ele>81.19999999999999</ele><time>2026-03-30T12:58:59.999Z</time></trkpt><trkpt lat="48.38446642595203" lon="-4.617950730743145"><ele>81.6</ele><time>2026-03-30T12:59:02.999Z</time></trkpt><trkpt lat="48.384399930706856" lon="-4.617942172158309"><ele>82.0</ele><time>2026-03-30T12:59:03.999Z</time></trkpt><trkpt lat="48.38427376825909" lon="-4.617976425783928"><ele>81.99999999999999</ele><time>2026-03-30T12:59:05.999Z</time></trkpt><trkpt lat="48.38422356860453" lon="-4.6180490828148395"><ele>82.0</ele><time>2026-03-30T12:59:06.999Z</time></trkpt><trkpt lat="48.38416410224054" lon="-4.618099717594401"><ele>82.0</ele><time>2026-03-30T12:59:07.999Z</time></trkpt><trkpt lat="48.384105777779894" lon="-4.618148853645475"><ele>82.0</ele><time>2026-03-30T12:59:08.999Z</time></trkpt><trkpt lat="48.384042928821714" lon="-4.618201672675182"><ele>82.0</ele><time>2026-03-30T12:59:09.999Z</time></trkpt><trkpt lat="48.38398281055979" lon="-4.618254147276597"><ele>81.99999999999999</ele><time>2026-03-30T12:59:10.999Z</time></trkpt><trkpt lat="48.38392417815548" lon="-4.618304752139813"><ele>82.0</ele><time>2026-03-30T12:59:11.999Z</time></trkpt><trkpt lat="48.383862796937535" lon="-4.618357729447884"><ele>81.5</ele><time>2026-03-30T12:59:13Z</time></trkpt><trkpt lat="48.383799057729306" lon="-4.6184117874653365"><ele>81.0</ele><time>2026-03-30T12:59:14Z</time></trkpt><trkpt lat="48.383734977814086" lon="-4.6184661244578535"><ele>80.5</ele><time>2026-03-30T12:59:15Z</time></trkpt><trkpt lat="48.383668214792955" lon="-4.618523050582313"><ele>80.0</ele><time>2026-03-30T12:59:16Z</time></trkpt><trkpt lat="48.38360224375467" lon="-4.6185809685400745"><ele>79.5</ele><time>2026-03-30T12:59:17Z</time></trkpt><trkpt lat="48.383534042282555" lon="-4.6186373102580704"><ele>79.0</ele><time>2026-03-30T12:59:18Z</time></trkpt><trkpt lat="48.38344793235837" lon="-4.618674695641309"><ele>79.0</ele><time>2026-03-30T12:59:19Z</time></trkpt><trkpt lat="48.38335346022847" lon="-4.618591069837438"><ele>79.0</ele><time>2026-03-30T12:59:20Z</time></trkpt><trkpt lat="48.38327167619914" lon="-4.618549290567265"><ele>79.0</ele><time>2026-03-30T12:59:21Z</time></trkpt><trkpt lat="48.383197314478096" lon="-4.618478636709264"><ele>79.0</ele><time>2026-03-30T12:59:22Z</time></trkpt><trkpt lat="48.38312236929213" lon="-4.618460129151747"><ele>79.0</ele><time>2026-03-30T12:59:23Z</time></trkpt><trkpt lat="48.383063368204276" lon="-4.618426118385101"><ele>79.0</ele><time>2026-03-30T12:59:24Z</time></trkpt><trkpt lat="48.38297902646976" lon="-4.618377500049331"><ele>78.16666666666666</ele><time>2026-03-30T12:59:26Z</time></trkpt><trkpt lat="48.38291480645974" lon="-4.618367234187656"><ele>77.33333333333333</ele><time>2026-03-30T12:59:28Z</time></trkpt><trkpt lat="48.382914425279274" lon="-4.618518034767369"><ele>76.5</ele><time>2026-03-30T12:59:29Z</time></trkpt><trkpt lat="48.38288710622416" lon="-4.618610741429692"><ele>75.66666666666667</ele><time>2026-03-30T12:59:30Z</time></trkpt><trkpt lat="48.38284716647946" lon="-4.6186907908959505"><ele>74.83333333333334</ele><time>2026-03-30T12:59:31Z</time></trkpt><trkpt lat="48.38280301477585" lon="-4.618856210338831"><ele>74.0</ele><time>2026-03-30T12:59:33Z</time></trkpt><trkpt lat="48.382784402283704" lon="-4.618956983810542"><ele>74.0</ele><time>2026-03-30T12:59:34Z</time></trkpt><trkpt lat="48.38273261877489" lon="-4.619120604460861"><ele>74.0</ele><time>2026-03-30T12:59:36Z</time></trkpt><trkpt lat="48.3826991104106" lon="-4.619237524191541"><ele>74.0</ele><time>2026-03-30T12:59:38Z</time></trkpt><trkpt lat="48.38252985458796" lon="-4.619088472989206"><ele>74.0</ele><time>2026-03-30T12:59:40Z</time></trkpt><trkpt lat="48.3824218681157" lon="-4.618988717620294"><ele>74.0</ele><time>2026-03-30T12:59:42Z</time></trkpt><trkpt lat="48.382475740448456" lon="-4.618758431880223"><ele>74.0</ele><time>2026-03-30T12:59:44Z</time></trkpt><trkpt lat="48.38250582519162" lon="-4.6186741234745226"><ele>74.0</ele><time>2026-03-30T12:59:45Z</time></trkpt><trkpt lat="48.3825778024214" lon="-4.618535008578945"><ele>74.0</ele><time>2026-03-30T12:59:47Z</time></trkpt><trkpt lat="48.382610268317265" lon="-4.618370175107247"><ele>74.0</ele><time>2026-03-30T12:59:49Z</time></trkpt><trkpt lat="48.3826622886032" lon="-4.618241394543838"><ele>74.0</ele><time>2026-03-30T12:59:51Z</time></trkpt><trkpt lat="48.382691519445174" lon="-4.6181033871145605"><ele>74.0</ele><time>2026-03-30T12:59:53Z</time></trkpt><trkpt lat="48.38273802180573" lon="-4.617997676590009"><ele>74.0</ele><time>2026-03-30T12:59:55Z</time></trkpt><trkpt lat="48.38276630790904" lon="-4.617878910507764"><ele>74.0</ele><time>2026-03-30T12:59:57Z</time></trkpt><trkpt lat="48.38280503176194" lon="-4.617755865751281"><ele>74.33333333333334</ele><time>2026-03-30T12:59:59Z</time></trkpt><trkpt lat="48.38281819691687" lon="-4.617631925318203"><ele>74.66666666666667</ele><time>2026-03-30T13:00:01Z</time></trkpt><trkpt lat="48.38284951857958" lon="-4.617507116520202"><ele>75.0</ele><time>2026-03-30T13:00:03Z</time></trkpt><trkpt lat="48.38285612296304" lon="-4.6173780124174115"><ele>75.33333333333333</ele><time>2026-03-30T13:00:05Z</time></trkpt><trkpt lat="48.38283946277999" lon="-4.617251606407452"><ele>75.66666666666666</ele><time>2026-03-30T13:00:07Z</time></trkpt><trkpt lat="48.38284583539739" lon="-4.6170975032958586"><ele>76.0</ele><time>2026-03-30T13:00:09Z</time></trkpt><trkpt lat="48.38281589702191" lon="-4.61697145008817"><ele>76.33333333333333</ele><time>2026-03-30T13:00:11Z</time></trkpt><trkpt lat="48.382809027122605" lon="-4.616824543473051"><ele>76.66666666666666</ele><time>2026-03-30T13:00:13Z</time></trkpt><trkpt lat="48.38277437397468" lon="-4.616710601200221"><ele>77.0</ele><time>2026-03-30T13:00:15Z</time></trkpt><trkpt lat="48.38275074949589" lon="-4.616614940886239"><ele>77.33333333333333</ele><time>2026-03-30T13:00:17Z</time></trkpt><trkpt lat="48.38272822919821" lon="-4.6165251407356065"><ele>77.66666666666667</ele><time>2026-03-30T13:00:19Z</time></trkpt><trkpt lat="48.38283755495813" lon="-4.616454579078217"><ele>78.0</ele><time>2026-03-30T13:00:20Z</time></trkpt><trkpt lat="48.38286869809892" lon="-4.616333311071414"><ele>78.0</ele><time>2026-03-30T13:00:21.999Z</time></trkpt><trkpt lat="48.38283630363032" lon="-4.616202296285336"><ele>78.0</ele><time>2026-03-30T13:00:23.999Z</time></trkpt><trkpt lat="48.38279166625593" lon="-4.616078061362967"><ele>78.0</ele><time>2026-03-30T13:00:25.999Z</time></trkpt><trkpt lat="48.38273796276187" lon="-4.615951241619579"><ele>78.0</ele><time>2026-03-30T13:00:27.999Z</time></trkpt><trkpt lat="48.382679360223705" lon="-4.615805626221556"><ele>78.0</ele><time>2026-03-30T13:00:29.999Z</time></trkpt><trkpt lat="48.38263272688932" lon="-4.615665931074252"><ele>78.4</ele><time>2026-03-30T13:00:31.999Z</time></trkpt><trkpt lat="48.38257476796739" lon="-4.61553484969031"><ele>78.8</ele><time>2026-03-30T13:00:33.999Z</time></trkpt><trkpt lat="48.38252244839597" lon="-4.61538373875825"><ele>79.2</ele><time>2026-03-30T13:00:35.999Z</time></trkpt><trkpt lat="48.382470736695666" lon="-4.6151976978192915"><ele>79.6</ele><time>2026-03-30T13:00:37.999Z</time></trkpt><trkpt lat="48.38244252455234" lon="-4.615102893557302"><ele>80.0</ele><time>2026-03-30T13:00:38.999Z</time></trkpt><trkpt lat="48.38240514247257" lon="-4.615013254084783"><ele>80.16666666666667</ele><time>2026-03-30T13:00:39.999Z</time></trkpt><trkpt lat="48.38236582053108" lon="-4.61492025878531"><ele>80.33333333333334</ele><time>2026-03-30T13:00:40.999Z</time></trkpt><trkpt lat="48.382343658026855" lon="-4.614816075896106"><ele>80.5</ele><time>2026-03-30T13:00:41.999Z</time></trkpt><trkpt lat="48.38229777385574" lon="-4.614718627560443"><ele>80.66666666666667</ele><time>2026-03-30T13:00:42.999Z</time></trkpt><trkpt lat="48.38225211928078" lon="-4.61462434467683"><ele>80.83333333333333</ele><time>2026-03-30T13:00:43.999Z</time></trkpt><trkpt lat="48.382186659695016" lon="-4.61454511556395"><ele>81.0</ele><time>2026-03-30T13:00:44.999Z</time></trkpt><trkpt lat="48.382105842950075" lon="-4.614491629101191"><ele>80.5</ele><time>2026-03-30T13:00:45.999Z</time></trkpt><trkpt lat="48.38202781443172" lon="-4.614411345114506"><ele>80.0</ele><time>2026-03-30T13:00:46.999Z</time></trkpt><trkpt lat="48.38196882708966" lon="-4.614336051813701"><ele>79.5</ele><time>2026-03-30T13:00:47.999Z</time></trkpt><trkpt lat="48.38190975724958" lon="-4.614258479881819"><ele>79.0</ele><time>2026-03-30T13:00:48.999Z</time></trkpt><trkpt lat="48.38186021259422" lon="-4.6141924203354066"><ele>78.5</ele><time>2026-03-30T13:00:49.999Z</time></trkpt><trkpt lat="48.38176595924649" lon="-4.6140721304716354"><ele>78.0</ele><time>2026-03-30T13:00:51.999Z</time></trkpt><trkpt lat="48.3816791957261" lon="-4.6139864705665286"><ele>78.0</ele><time>2026-03-30T13:00:53.999Z</time></trkpt><trkpt lat="48.381571612272694" lon="-4.61373531636079"><ele>78.0</ele><time>2026-03-30T13:00:55.999Z</time></trkpt><trkpt lat="48.38161015233279" lon="-4.613552647128656"><ele>78.0</ele><time>2026-03-30T13:00:57.999Z</time></trkpt><trkpt lat="48.381632252342676" lon="-4.613447899119026"><ele>78.0</ele><time>2026-03-30T13:00:58.999Z</time></trkpt><trkpt lat="48.38165581933218" lon="-4.613332575250909"><ele>78.16666666666667</ele><time>2026-03-30T13:00:59.999Z</time></trkpt><trkpt lat="48.38167762676764" lon="-4.6132243707862015"><ele>78.33333333333333</ele><time>2026-03-30T13:01:00.999Z</time></trkpt><trkpt lat="48.38170057451632" lon="-4.613108809116332"><ele>78.5</ele><time>2026-03-30T13:01:01.999Z</time></trkpt><trkpt lat="48.38172320204019" lon="-4.612994534039302"><ele>78.66666666666666</ele><time>2026-03-30T13:01:02.999Z</time></trkpt><trkpt lat="48.381745118990494" lon="-4.612883847741894"><ele>78.83333333333333</ele><time>2026-03-30T13:01:03.999Z</time></trkpt><trkpt lat="48.381769100222016" lon="-4.612762735969096"><ele>79.0</ele><time>2026-03-30T13:01:04.999Z</time></trkpt><trkpt lat="48.38179160918372" lon="-4.612643739119004"><ele>78.5</ele><time>2026-03-30T13:01:05.999Z</time></trkpt><trkpt lat="48.38181321288403" lon="-4.612527790704725"><ele>78.0</ele><time>2026-03-30T13:01:06.999Z</time></trkpt><trkpt lat="48.38183300888614" lon="-4.612421544155864"><ele>77.5</ele><time>2026-03-30T13:01:07.999Z</time></trkpt><trkpt lat="48.38185229796256" lon="-4.612318018541291"><ele>77.0</ele><time>2026-03-30T13:01:08.999Z</time></trkpt><trkpt lat="48.38187152141011" lon="-4.612214844939058"><ele>76.5</ele><time>2026-03-30T13:01:09.999Z</time></trkpt><trkpt lat="48.38190231497006" lon="-4.61204529034841"><ele>76.0</ele><time>2026-03-30T13:01:11.999Z</time></trkpt><trkpt lat="48.38192524319184" lon="-4.61191702621427"><ele>75.66666666666666</ele><time>2026-03-30T13:01:13.999Z</time></trkpt><trkpt lat="48.381949633011416" lon="-4.611779983765844"><ele>75.33333333333333</ele><time>2026-03-30T13:01:15.999Z</time></trkpt><trkpt lat="48.38197658245206" lon="-4.611596695665062"><ele>75.0</ele><time>2026-03-30T13:01:17.999Z</time></trkpt><trkpt lat="48.38199193291427" lon="-4.611480858228"><ele>74.66666666666667</ele><time>2026-03-30T13:01:19Z</time></trkpt><trkpt lat="48.38200510441286" lon="-4.6113715721686415"><ele>74.33333333333334</ele><time>2026-03-30T13:01:20Z</time></trkpt><trkpt lat="48.38201748401882" lon="-4.611268856150638"><ele>74.0</ele><time>2026-03-30T13:01:21Z</time></trkpt><trkpt lat="48.382027234498935" lon="-4.611163452411598"><ele>73.71428571428572</ele><time>2026-03-30T13:01:22Z</time></trkpt><trkpt lat="48.38203491298104" lon="-4.611060433063963"><ele>73.42857142857143</ele><time>2026-03-30T13:01:23Z</time></trkpt><trkpt lat="48.38203988249052" lon="-4.610948967167806"><ele>73.14285714285714</ele><time>2026-03-30T13:01:24Z</time></trkpt><trkpt lat="48.38204445547129" lon="-4.610846395656793"><ele>72.85714285714286</ele><time>2026-03-30T13:01:25Z</time></trkpt><trkpt lat="48.38204675534137" lon="-4.610739792777519"><ele>72.57142857142857</ele><time>2026-03-30T13:01:26Z</time></trkpt><trkpt lat="48.38204603745512" lon="-4.6106295153006"><ele>72.28571428571429</ele><time>2026-03-30T13:01:27Z</time></trkpt><trkpt lat="48.38204238427111" lon="-4.610521777196537"><ele>72.0</ele><time>2026-03-30T13:01:28Z</time></trkpt><trkpt lat="48.38203685016038" lon="-4.610403773446379"><ele>72.0</ele><time>2026-03-30T13:01:29Z</time></trkpt><trkpt lat="48.38202896766545" lon="-4.610282955693041"><ele>72.0</ele><time>2026-03-30T13:01:30Z</time></trkpt><trkpt lat="48.38201950712312" lon="-4.610155781735372"><ele>72.0</ele><time>2026-03-30T13:01:31Z</time></trkpt><trkpt lat="48.38200773698618" lon="-4.61002700751283"><ele>72.0</ele><time>2026-03-30T13:01:32Z</time></trkpt><trkpt lat="48.3819944317919" lon="-4.609904520786612"><ele>72.0</ele><time>2026-03-30T13:01:33Z</time></trkpt><trkpt lat="48.38198353915338" lon="-4.60977642596689"><ele>72.0</ele><time>2026-03-30T13:01:34Z</time></trkpt><trkpt lat="48.382002076572405" lon="-4.609645377937548"><ele>72.0</ele><time>2026-03-30T13:01:35Z</time></trkpt><trkpt lat="48.382000327354575" lon="-4.609543730558976"><ele>72.0</ele><time>2026-03-30T13:01:36Z</time></trkpt><trkpt lat="48.38199833767546" lon="-4.609428110994698"><ele>72.0</ele><time>2026-03-30T13:01:39Z</time></trkpt><trkpt lat="48.38199654951468" lon="-4.609324203000385"><ele>72.0</ele><time>2026-03-30T13:01:41Z</time></trkpt><trkpt lat="48.38192303057955" lon="-4.6092991799155945"><ele>72.0</ele><time>2026-03-30T13:01:43Z</time></trkpt><trkpt lat="48.38193358241606" lon="-4.609173256790769"><ele>72.0</ele><time>2026-03-30T13:01:45Z</time></trkpt><trkpt lat="48.381891714957696" lon="-4.609074250616397"><ele>71.83333333333333</ele><time>2026-03-30T13:01:46Z</time></trkpt><trkpt lat="48.38185017901392" lon="-4.6089580088685285"><ele>71.66666666666667</ele><time>2026-03-30T13:01:47Z</time></trkpt><trkpt lat="48.38181709372443" lon="-4.608813188974631"><ele>71.5</ele><time>2026-03-30T13:01:48Z</time></trkpt><trkpt lat="48.38179379599858" lon="-4.608691290847754"><ele>71.33333333333334</ele><time>2026-03-30T13:01:49Z</time></trkpt><trkpt lat="48.381772185410284" lon="-4.608582622152553"><ele>71.16666666666667</ele><time>2026-03-30T13:01:50Z</time></trkpt><trkpt lat="48.381744177336664" lon="-4.608452124156513"><ele>71.0</ele><time>2026-03-30T13:01:51Z</time></trkpt><trkpt lat="48.38171809512252" lon="-4.60833059886905"><ele>71.0</ele><time>2026-03-30T13:01:52Z</time></trkpt><trkpt lat="48.38168844791819" lon="-4.608192463707929"><ele>71.0</ele><time>2026-03-30T13:01:53Z</time></trkpt><trkpt lat="48.38165938337331" lon="-4.608060592781035"><ele>71.0</ele><time>2026-03-30T13:01:54Z</time></trkpt><trkpt lat="48.38163252551001" lon="-4.6079458920604255"><ele>71.0</ele><time>2026-03-30T13:01:55Z</time></trkpt><trkpt lat="48.38160605463169" lon="-4.607782443463405"><ele>71.0</ele><time>2026-03-30T13:01:56Z</time></trkpt><trkpt lat="48.38155937868171" lon="-4.607662071988456"><ele>70.83333333333334</ele><time>2026-03-30T13:01:57Z</time></trkpt><trkpt lat="48.381527982311134" lon="-4.607544923048254"><ele>70.66666666666667</ele><time>2026-03-30T13:01:58Z</time></trkpt><trkpt lat="48.38149232851762" lon="-4.607421172818632"><ele>70.5</ele><time>2026-03-30T13:01:59Z</time></trkpt><trkpt lat="48.381459176737145" lon="-4.607306106311482"><ele>70.33333333333333</ele><time>2026-03-30T13:02:00Z</time></trkpt><trkpt lat="48.38142860031727" lon="-4.607199980178306"><ele>70.16666666666666</ele><time>2026-03-30T13:02:01Z</time></trkpt><trkpt lat="48.38138861331481" lon="-4.607114408576966"><ele>70.0</ele><time>2026-03-30T13:02:02Z</time></trkpt><trkpt lat="48.381341825247915" lon="-4.607003691305922"><ele>70.16666666666666</ele><time>2026-03-30T13:02:03Z</time></trkpt><trkpt lat="48.381293352383196" lon="-4.606900603248683"><ele>70.33333333333333</ele><time>2026-03-30T13:02:04Z</time></trkpt><trkpt lat="48.38124119917418" lon="-4.606795621231061"><ele>70.5</ele><time>2026-03-30T13:02:05Z</time></trkpt><trkpt lat="48.3811935418472" lon="-4.606703445333313"><ele>70.66666666666667</ele><time>2026-03-30T13:02:06Z</time></trkpt><trkpt lat="48.38113238451463" lon="-4.606587933027331"><ele>70.83333333333334</ele><time>2026-03-30T13:02:08Z</time></trkpt><trkpt lat="48.381089539174226" lon="-4.606507836136821"><ele>71.0</ele><time>2026-03-30T13:02:10Z</time></trkpt><trkpt lat="48.381028588849915" lon="-4.6064072158508935"><ele>71.0</ele><time>2026-03-30T13:02:13Z</time></trkpt><trkpt lat="48.38097141224386" lon="-4.606315069808147"><ele>71.0</ele><time>2026-03-30T13:02:16Z</time></trkpt><trkpt lat="48.380908183726056" lon="-4.606216900957125"><ele>71.0</ele><time>2026-03-30T13:02:19Z</time></trkpt><trkpt lat="48.381149000136396" lon="-4.605971668527818"><ele>71.5</ele><time>2026-03-30T13:02:21Z</time></trkpt><trkpt lat="48.38124292987232" lon="-4.605952853436219"><ele>72.0</ele><time>2026-03-30T13:02:24Z</time></trkpt><trkpt lat="48.38121809908777" lon="-4.6056000997045"><ele>72.5</ele><time>2026-03-30T13:02:25Z</time></trkpt><trkpt lat="48.381163596358434" lon="-4.605470482260273"><ele>73.0</ele><time>2026-03-30T13:02:27Z</time></trkpt><trkpt lat="48.3811170465221" lon="-4.605401666157141"><ele>73.4</ele><time>2026-03-30T13:02:28Z</time></trkpt><trkpt lat="48.38109273450152" lon="-4.605291250017162"><ele>73.8</ele><time>2026-03-30T13:02:28.999Z</time></trkpt><trkpt lat="48.3810502883955" lon="-4.605186177444245"><ele>74.2</ele><time>2026-03-30T13:02:29.999Z</time></trkpt><trkpt lat="48.3810371397257" lon="-4.605053285155275"><ele>74.6</ele><time>2026-03-30T13:02:30.999Z</time></trkpt><trkpt lat="48.380972992720764" lon="-4.604817269494259"><ele>75.0</ele><time>2026-03-30T13:02:32.999Z</time></trkpt><trkpt lat="48.38087465651452" lon="-4.604748580729701"><ele>75.0</ele><time>2026-03-30T13:02:33.999Z</time></trkpt><trkpt lat="48.38085045432417" lon="-4.604636258170337"><ele>75.0</ele><time>2026-03-30T13:02:34.999Z</time></trkpt><trkpt lat="48.38082803568651" lon="-4.604532213278629"><ele>75.0</ele><time>2026-03-30T13:02:35.999Z</time></trkpt><trkpt lat="48.38080361426961" lon="-4.604413846142149"><ele>75.0</ele><time>2026-03-30T13:02:36.999Z</time></trkpt><trkpt lat="48.38078107559951" lon="-4.604312126156359"><ele>75.0</ele><time>2026-03-30T13:02:37.999Z</time></trkpt><trkpt lat="48.380759184862875" lon="-4.604211445899343"><ele>75.0</ele><time>2026-03-30T13:02:38.999Z</time></trkpt><trkpt lat="48.38073351990048" lon="-4.60409340802569"><ele>75.2</ele><time>2026-03-30T13:02:39.999Z</time></trkpt><trkpt lat="48.38071033696363" lon="-4.603986785450799"><ele>75.4</ele><time>2026-03-30T13:02:40.999Z</time></trkpt><trkpt lat="48.38076342962114" lon="-4.603862268892032"><ele>75.6</ele><time>2026-03-30T13:02:41.999Z</time></trkpt><trkpt lat="48.380742584681904" lon="-4.603759252689451"><ele>75.8</ele><time>2026-03-30T13:02:42.999Z</time></trkpt><trkpt lat="48.38070190990346" lon="-4.603573994285546"><ele>76.0</ele><time>2026-03-30T13:02:44.999Z</time></trkpt><trkpt lat="48.38067577422295" lon="-4.6034106821770795"><ele>76.39999999999999</ele><time>2026-03-30T13:02:46.999Z</time></trkpt><trkpt lat="48.38066019411754" lon="-4.603274089513909"><ele>76.8</ele><time>2026-03-30T13:02:48.999Z</time></trkpt><trkpt lat="48.38067207219147" lon="-4.603149741322572"><ele>77.19999999999999</ele><time>2026-03-30T13:02:51.999Z</time></trkpt><trkpt lat="48.38063833628414" lon="-4.603039329256536"><ele>77.6</ele><time>2026-03-30T13:02:53.999Z</time></trkpt><trkpt lat="48.38061373828144" lon="-4.602924128251825"><ele>78.0</ele><time>2026-03-30T13:02:55.999Z</time></trkpt><trkpt lat="48.38058174211176" lon="-4.602759392159542"><ele>78.4</ele><time>2026-03-30T13:02:57.999Z</time></trkpt><trkpt lat="48.380558292160835" lon="-4.602669028100627"><ele>78.8</ele><time>2026-03-30T13:02:58.999Z</time></trkpt><trkpt lat="48.38051246305393" lon="-4.602497176586293"><ele>79.2</ele><time>2026-03-30T13:03:00.999Z</time></trkpt><trkpt lat="48.38047835790756" lon="-4.602316911019366"><ele>79.6</ele><time>2026-03-30T13:03:02.999Z</time></trkpt><trkpt lat="48.38039086820309" lon="-4.602257955154622"><ele>80.0</ele><time>2026-03-30T13:03:03.999Z</time></trkpt><trkpt lat="48.38036645381999" lon="-4.602158360132791"><ele>79.0</ele><time>2026-03-30T13:03:04.999Z</time></trkpt><trkpt lat="48.38031159427478" lon="-4.601960536282388"><ele>78.0</ele><time>2026-03-30T13:03:06.999Z</time></trkpt><trkpt lat="48.38028921614262" lon="-4.601864654434003"><ele>77.0</ele><time>2026-03-30T13:03:07.999Z</time></trkpt><trkpt lat="48.380243198883676" lon="-4.601748002167979"><ele>76.0</ele><time>2026-03-30T13:03:09.999Z</time></trkpt><trkpt lat="48.38020610624801" lon="-4.601617860160305"><ele>75.0</ele><time>2026-03-30T13:03:12.999Z</time></trkpt><trkpt lat="48.38014358412913" lon="-4.601478480104122"><ele>75.0</ele><time>2026-03-30T13:03:14.999Z</time></trkpt><trkpt lat="48.380115390250864" lon="-4.6013875130191675"><ele>75.0</ele><time>2026-03-30T13:03:15.999Z</time></trkpt><trkpt lat="48.38007817316048" lon="-4.601291948415997"><ele>75.0</ele><time>2026-03-30T13:03:16.999Z</time></trkpt><trkpt lat="48.38005075004123" lon="-4.601193630190717"><ele>75.0</ele><time>2026-03-30T13:03:17.999Z</time></trkpt><trkpt lat="48.38001061720107" lon="-4.60109595251306"><ele>75.0</ele><time>2026-03-30T13:03:18.999Z</time></trkpt><trkpt lat="48.37999713650486" lon="-4.600972145909854"><ele>75.0</ele><time>2026-03-30T13:03:19.999Z</time></trkpt><trkpt lat="48.379938684344665" lon="-4.600891492917151"><ele>75.0</ele><time>2026-03-30T13:03:20.999Z</time></trkpt><trkpt lat="48.379895929191456" lon="-4.60080703303687"><ele>75.0</ele><time>2026-03-30T13:03:21.999Z</time></trkpt><trkpt lat="48.37985021612662" lon="-4.600736090614519"><ele>75.0</ele><time>2026-03-30T13:03:22.999Z</time></trkpt><trkpt lat="48.37976456785158" lon="-4.600627951532711"><ele>75.0</ele><time>2026-03-30T13:03:25Z</time></trkpt><trkpt lat="48.379640942029724" lon="-4.6006536046040125"><ele>75.0</ele><time>2026-03-30T13:03:27Z</time></trkpt><trkpt lat="48.3795725983317" lon="-4.6007007771976935"><ele>75.0</ele><time>2026-03-30T13:03:28Z</time></trkpt><trkpt lat="48.37950731499021" lon="-4.600772746075574"><ele>75.0</ele><time>2026-03-30T13:03:29Z</time></trkpt><trkpt lat="48.37943360885857" lon="-4.600831990715913"><ele>75.0</ele><time>2026-03-30T13:03:30Z</time></trkpt><trkpt lat="48.379364498551006" lon="-4.60087493004841"><ele>75.0</ele><time>2026-03-30T13:03:31Z</time></trkpt><trkpt lat="48.37927500374049" lon="-4.600926441942676"><ele>75.0</ele><time>2026-03-30T13:03:33Z</time></trkpt><trkpt lat="48.37920075394259" lon="-4.6009386874756135"><ele>75.0</ele><time>2026-03-30T13:03:36Z</time></trkpt><trkpt lat="48.37914376294519" lon="-4.600812806072594"><ele>75.0</ele><time>2026-03-30T13:03:38Z</time></trkpt><trkpt lat="48.37909659578642" lon="-4.600650250075648"><ele>75.0</ele><time>2026-03-30T13:03:40Z</time></trkpt><trkpt lat="48.37899991728523" lon="-4.60053768153811"><ele>75.0</ele><time>2026-03-30T13:03:42Z</time></trkpt><trkpt lat="48.37889242424711" lon="-4.6004620204438424"><ele>75.0</ele><time>2026-03-30T13:03:44Z</time></trkpt><trkpt lat="48.37879066986114" lon="-4.600416959068229"><ele>75.0</ele><time>2026-03-30T13:03:46Z</time></trkpt><trkpt lat="48.37869371612436" lon="-4.600375087334499"><ele>75.0</ele><time>2026-03-30T13:03:48Z</time></trkpt><trkpt lat="48.378623901251046" lon="-4.600341929789243"><ele>74.16666666666667</ele><time>2026-03-30T13:03:50Z</time></trkpt><trkpt lat="48.37855568887504" lon="-4.600333609059939"><ele>73.33333333333333</ele><time>2026-03-30T13:03:52Z</time></trkpt><trkpt lat="48.37846723348481" lon="-4.6004048440466665"><ele>72.5</ele><time>2026-03-30T13:03:54Z</time></trkpt><trkpt lat="48.37841474175981" lon="-4.6004645354223275"><ele>71.66666666666666</ele><time>2026-03-30T13:03:55Z</time></trkpt><trkpt lat="48.37829021651816" lon="-4.600504353686579"><ele>70.83333333333333</ele><time>2026-03-30T13:03:57Z</time></trkpt><trkpt lat="48.37822412787247" lon="-4.600490854253492"><ele>70.0</ele><time>2026-03-30T13:03:58Z</time></trkpt><trkpt lat="48.3781681411505" lon="-4.600446058060907"><ele>70.0</ele><time>2026-03-30T13:03:59Z</time></trkpt><trkpt lat="48.37811230944639" lon="-4.600391457873758"><ele>70.0</ele><time>2026-03-30T13:04:00Z</time></trkpt><trkpt lat="48.378084611384175" lon="-4.600301861322551"><ele>70.0</ele><time>2026-03-30T13:04:01Z</time></trkpt><trkpt lat="48.37805475673778" lon="-4.600205246420169"><ele>70.0</ele><time>2026-03-30T13:04:02Z</time></trkpt><trkpt lat="48.37804528134898" lon="-4.6000210549596785"><ele>70.0</ele><time>2026-03-30T13:04:04Z</time></trkpt><trkpt lat="48.37810403729251" lon="-4.5999460696301515"><ele>70.0</ele><time>2026-03-30T13:04:05Z</time></trkpt><trkpt lat="48.37817297755409" lon="-4.599824091522042"><ele>70.75</ele><time>2026-03-30T13:04:07Z</time></trkpt><trkpt lat="48.37811747700033" lon="-4.599615332119408"><ele>71.5</ele><time>2026-03-30T13:04:09Z</time></trkpt><trkpt lat="48.3780817823304" lon="-4.599483109082621"><ele>72.25</ele><time>2026-03-30T13:04:11Z</time></trkpt><trkpt lat="48.37803220120548" lon="-4.599350457200512"><ele>73.0</ele><time>2026-03-30T13:04:13Z</time></trkpt><trkpt lat="48.37798129627421" lon="-4.599206176921904"><ele>73.0</ele><time>2026-03-30T13:04:15Z</time></trkpt><trkpt lat="48.37792272061724" lon="-4.59906011336931"><ele>73.0</ele><time>2026-03-30T13:04:17Z</time></trkpt><trkpt lat="48.37781918122829" lon="-4.5988411021373405"><ele>73.0</ele><time>2026-03-30T13:04:20Z</time></trkpt><trkpt lat="48.3777396871251" lon="-4.598688151657618"><ele>73.0</ele><time>2026-03-30T13:04:22Z</time></trkpt><trkpt lat="48.37770065573716" lon="-4.598610746720669"><ele>73.42857142857143</ele><time>2026-03-30T13:04:23Z</time></trkpt><trkpt lat="48.37765105655874" lon="-4.598536990689919"><ele>73.85714285714286</ele><time>2026-03-30T13:04:24Z</time></trkpt><trkpt lat="48.37760670476779" lon="-4.598460163436641"><ele>74.28571428571428</ele><time>2026-03-30T13:04:25Z</time></trkpt><trkpt lat="48.37755597479743" lon="-4.598387244438518"><ele>74.71428571428572</ele><time>2026-03-30T13:04:26Z</time></trkpt><trkpt lat="48.37750546598564" lon="-4.598320522807644"><ele>75.14285714285715</ele><time>2026-03-30T13:04:27Z</time></trkpt><trkpt lat="48.37745733705747" lon="-4.598253801322471"><ele>75.57142857142857</ele><time>2026-03-30T13:04:28Z</time></trkpt><trkpt lat="48.377407243714046" lon="-4.598189128528375"><ele>76.0</ele><time>2026-03-30T13:04:29Z</time></trkpt><trkpt lat="48.37735065511565" lon="-4.598135320061131"><ele>76.0</ele><time>2026-03-30T13:04:30Z</time></trkpt><trkpt lat="48.37729446138424" lon="-4.598082273933988"><ele>76.0</ele><time>2026-03-30T13:04:31Z</time></trkpt><trkpt lat="48.377235827470265" lon="-4.598026617605011"><ele>76.0</ele><time>2026-03-30T13:04:31.999Z</time></trkpt><trkpt lat="48.37717811275958" lon="-4.59796877892573"><ele>76.0</ele><time>2026-03-30T13:04:32.999Z</time></trkpt><trkpt lat="48.37712207226063" lon="-4.59791552009644"><ele>76.0</ele><time>2026-03-30T13:04:33.999Z</time></trkpt><trkpt lat="48.377060266430526" lon="-4.597865066968847"><ele>76.0</ele><time>2026-03-30T13:04:34.999Z</time></trkpt><trkpt lat="48.376999365899636" lon="-4.597814928033612"><ele>76.0</ele><time>2026-03-30T13:04:35.999Z</time></trkpt><trkpt lat="48.37693611614721" lon="-4.597767678158291"><ele>76.14285714285714</ele><time>2026-03-30T13:04:36.999Z</time></trkpt><trkpt lat="48.37687204379166" lon="-4.597720464762685"><ele>76.28571428571429</ele><time>2026-03-30T13:04:37.999Z</time></trkpt><trkpt lat="48.376807375227564" lon="-4.597675119650367"><ele>76.42857142857143</ele><time>2026-03-30T13:04:38.999Z</time></trkpt><trkpt lat="48.376743561311336" lon="-4.597630761046633"><ele>76.57142857142857</ele><time>2026-03-30T13:04:39.999Z</time></trkpt><trkpt lat="48.37668608530921" lon="-4.5975751682065935"><ele>76.71428571428572</ele><time>2026-03-30T13:04:40.999Z</time></trkpt><trkpt lat="48.37662699404319" lon="-4.597526904596597"><ele>76.85714285714286</ele><time>2026-03-30T13:04:41.999Z</time></trkpt><trkpt lat="48.376561838721074" lon="-4.597487071974044"><ele>77.0</ele><time>2026-03-30T13:04:42.999Z</time></trkpt><trkpt lat="48.37649270502681" lon="-4.5974540962405115"><ele>77.0</ele><time>2026-03-30T13:04:43.999Z</time></trkpt><trkpt lat="48.37642354550959" lon="-4.597411521761147"><ele>77.0</ele><time>2026-03-30T13:04:44.999Z</time></trkpt><trkpt lat="48.376355205464336" lon="-4.597366221814664"><ele>77.0</ele><time>2026-03-30T13:04:45.999Z</time></trkpt><trkpt lat="48.37629241867186" lon="-4.597314433759978"><ele>77.0</ele><time>2026-03-30T13:04:46.999Z</time></trkpt><trkpt lat="48.37623135513862" lon="-4.597263948589923"><ele>77.0</ele><time>2026-03-30T13:04:47.999Z</time></trkpt><trkpt lat="48.37613932710876" lon="-4.597190742523139"><ele>77.0</ele><time>2026-03-30T13:04:49.999Z</time></trkpt><trkpt lat="48.37608111114594" lon="-4.597146952674437"><ele>77.0</ele><time>2026-03-30T13:04:51.999Z</time></trkpt><trkpt lat="48.375976733106185" lon="-4.597068577446788"><ele>77.0</ele><time>2026-03-30T13:04:53.999Z</time></trkpt><trkpt lat="48.37587652195658" lon="-4.596993330646795"><ele>77.0</ele><time>2026-03-30T13:04:55.999Z</time></trkpt><trkpt lat="48.375791092099874" lon="-4.596929183466486"><ele>77.0</ele><time>2026-03-30T13:04:57.999Z</time></trkpt><trkpt lat="48.37578765478072" lon="-4.596654603279771"><ele>77.2</ele><time>2026-03-30T13:04:59.999Z</time></trkpt><trkpt lat="48.37568726945001" lon="-4.596638532045716"><ele>77.4</ele><time>2026-03-30T13:05:01.999Z</time></trkpt><trkpt lat="48.375587948380065" lon="-4.596580660804359"><ele>77.6</ele><time>2026-03-30T13:05:03.999Z</time></trkpt><trkpt lat="48.37549143834582" lon="-4.59650017429776"><ele>77.8</ele><time>2026-03-30T13:05:05.999Z</time></trkpt><trkpt lat="48.37539246932583" lon="-4.596624832630762"><ele>78.0</ele><time>2026-03-30T13:05:06.999Z</time></trkpt><trkpt lat="48.37530604058975" lon="-4.596557460317053"><ele>78.6</ele><time>2026-03-30T13:05:08.999Z</time></trkpt><trkpt lat="48.3751683335247" lon="-4.596449872808766"><ele>79.19999999999999</ele><time>2026-03-30T13:05:11.999Z</time></trkpt><trkpt lat="48.37508962003326" lon="-4.596387171076665"><ele>79.8</ele><time>2026-03-30T13:05:13.999Z</time></trkpt><trkpt lat="48.37500862870533" lon="-4.596318337832077"><ele>80.39999999999999</ele><time>2026-03-30T13:05:15.999Z</time></trkpt><trkpt lat="48.37493624335715" lon="-4.596254507986423"><ele>81.0</ele><time>2026-03-30T13:05:17.999Z</time></trkpt><trkpt lat="48.37487067499171" lon="-4.596195313764918"><ele>81.16666666666667</ele><time>2026-03-30T13:05:19.999Z</time></trkpt><trkpt lat="48.374789843167704" lon="-4.596121076365029"><ele>81.33333333333333</ele><time>2026-03-30T13:05:22.999Z</time></trkpt><trkpt lat="48.37472122608366" lon="-4.596050602980239"><ele>81.5</ele><time>2026-03-30T13:05:24.999Z</time></trkpt><trkpt lat="48.374656291228355" lon="-4.595979695221008"><ele>81.66666666666666</ele><time>2026-03-30T13:05:25.999Z</time></trkpt><trkpt lat="48.37458314938449" lon="-4.595891934312252"><ele>81.83333333333333</ele><time>2026-03-30T13:05:27.999Z</time></trkpt><trkpt lat="48.374518012557864" lon="-4.595810513333397"><ele>82.0</ele><time>2026-03-30T13:05:29.999Z</time></trkpt><trkpt lat="48.37444848820289" lon="-4.595716320406868"><ele>82.5</ele><time>2026-03-30T13:05:32Z</time></trkpt><trkpt lat="48.37448653945714" lon="-4.5954885882570995"><ele>83.0</ele><time>2026-03-30T13:05:34Z</time></trkpt><trkpt lat="48.37430031747181" lon="-4.595501446033641"><ele>83.5</ele><time>2026-03-30T13:05:36Z</time></trkpt><trkpt lat="48.374239877731455" lon="-4.595402927387845"><ele>84.0</ele><time>2026-03-30T13:05:38Z</time></trkpt><trkpt lat="48.374167941376626" lon="-4.595285150334517"><ele>84.2</ele><time>2026-03-30T13:05:40Z</time></trkpt><trkpt lat="48.37410472348886" lon="-4.595177849750866"><ele>84.4</ele><time>2026-03-30T13:05:42Z</time></trkpt><trkpt lat="48.37404337406131" lon="-4.595073718580853"><ele>84.6</ele><time>2026-03-30T13:05:44Z</time></trkpt><trkpt lat="48.37398085402136" lon="-4.594967606004054"><ele>84.8</ele><time>2026-03-30T13:05:46Z</time></trkpt><trkpt lat="48.37391828272645" lon="-4.594861406659744"><ele>85.0</ele><time>2026-03-30T13:05:48Z</time></trkpt><trkpt lat="48.37414763242399" lon="-4.5944763799338215"><ele>85.4</ele><time>2026-03-30T13:05:49Z</time></trkpt><trkpt lat="48.37411377920194" lon="-4.594376017403715"><ele>85.8</ele><time>2026-03-30T13:05:51Z</time></trkpt><trkpt lat="48.37403021796983" lon="-4.59441493571801"><ele>86.19999999999999</ele><time>2026-03-30T13:05:52Z</time></trkpt><trkpt lat="48.37398383114276" lon="-4.594252556552573"><ele>86.6</ele><time>2026-03-30T13:05:54Z</time></trkpt><trkpt lat="48.37395675216343" lon="-4.5941241798234955"><ele>87.0</ele><time>2026-03-30T13:05:56Z</time></trkpt><trkpt lat="48.37392615749482" lon="-4.594007433371214"><ele>87.0</ele><time>2026-03-30T13:05:58Z</time></trkpt><trkpt lat="48.37387638285407" lon="-4.59389864670795"><ele>87.0</ele><time>2026-03-30T13:06:00Z</time></trkpt><trkpt lat="48.373825494303475" lon="-4.593828905612532"><ele>87.0</ele><time>2026-03-30T13:06:02Z</time></trkpt><trkpt lat="48.37375754773161" lon="-4.593716553127087"><ele>87.0</ele><time>2026-03-30T13:06:04Z</time></trkpt><trkpt lat="48.373688045998556" lon="-4.59360141462114"><ele>87.0</ele><time>2026-03-30T13:06:06Z</time></trkpt><trkpt lat="48.37361938151602" lon="-4.5934861489140015"><ele>87.6</ele><time>2026-03-30T13:06:08Z</time></trkpt><trkpt lat="48.37353893804945" lon="-4.593359370065204"><ele>88.19999999999999</ele><time>2026-03-30T13:06:10Z</time></trkpt><trkpt lat="48.37346452795916" lon="-4.593225951220906"><ele>88.8</ele><time>2026-03-30T13:06:12Z</time></trkpt><trkpt lat="48.37339602177937" lon="-4.593103120510886"><ele>89.4</ele><time>2026-03-30T13:06:14Z</time></trkpt><trkpt lat="48.37333485414718" lon="-4.592990670954044"><ele>90.0</ele><time>2026-03-30T13:06:16Z</time></trkpt><trkpt lat="48.37327926767231" lon="-4.592885329358723"><ele>90.25</ele><time>2026-03-30T13:06:18Z</time></trkpt><trkpt lat="48.37320759115985" lon="-4.592768932712913"><ele>90.5</ele><time>2026-03-30T13:06:20Z</time></trkpt><trkpt lat="48.37313730733314" lon="-4.592654795288835"><ele>90.75</ele><time>2026-03-30T13:06:22Z</time></trkpt><trkpt lat="48.37305933980602" lon="-4.592528178517938"><ele>91.0</ele><time>2026-03-30T13:06:24Z</time></trkpt><trkpt lat="48.373100205629264" lon="-4.592227888683792"><ele>91.25</ele><time>2026-03-30T13:06:26Z</time></trkpt><trkpt lat="48.37299408672815" lon="-4.592139312675562"><ele>91.5</ele><time>2026-03-30T13:06:28Z</time></trkpt><trkpt lat="48.37286160987149" lon="-4.592330146928614"><ele>91.75</ele><time>2026-03-30T13:06:29Z</time></trkpt><trkpt lat="48.37280335243156" lon="-4.592286220894999"><ele>92.0</ele><time>2026-03-30T13:06:30Z</time></trkpt><trkpt lat="48.37269245050845" lon="-4.5922067797904615"><ele>92.0</ele><time>2026-03-30T13:06:32Z</time></trkpt><trkpt lat="48.372632338632926" lon="-4.592154113765247"><ele>92.0</ele><time>2026-03-30T13:06:33Z</time></trkpt><trkpt lat="48.37258569738308" lon="-4.592083522571091"><ele>92.0</ele><time>2026-03-30T13:06:34Z</time></trkpt><trkpt lat="48.37252770494578" lon="-4.592033663888689"><ele>92.0</ele><time>2026-03-30T13:06:35Z</time></trkpt><trkpt lat="48.37243835858195" lon="-4.59196491166535"><ele>92.0</ele><time>2026-03-30T13:06:37Z</time></trkpt><trkpt lat="48.37231959545228" lon="-4.59191185893555"><ele>92.0</ele><time>2026-03-30T13:06:40Z</time></trkpt><trkpt lat="48.37224768606207" lon="-4.591857192829098"><ele>92.0</ele><time>2026-03-30T13:06:42Z</time></trkpt><trkpt lat="48.37217767557402" lon="-4.591711814020516"><ele>92.0</ele><time>2026-03-30T13:06:43Z</time></trkpt><trkpt lat="48.37223718328263" lon="-4.591577270278855"><ele>92.0</ele><time>2026-03-30T13:06:46.999Z</time></trkpt><trkpt lat="48.37217932370722" lon="-4.591534780897884"><ele>92.0</ele><time>2026-03-30T13:06:55.999Z</time></trkpt><trkpt lat="48.37211918682249" lon="-4.591593338088673"><ele>92.0</ele><time>2026-03-30T13:06:59.999Z</time></trkpt><trkpt lat="48.37205362459244" lon="-4.591624352593249"><ele>92.0</ele><time>2026-03-30T13:07:02.999Z</time></trkpt><trkpt lat="48.37197223657599" lon="-4.59159624584658"><ele>92.19999999999999</ele><time>2026-03-30T13:07:04.999Z</time></trkpt><trkpt lat="48.37190545471716" lon="-4.5914777076789175"><ele>92.4</ele><time>2026-03-30T13:07:06.999Z</time></trkpt><trkpt lat="48.371913712555184" lon="-4.591317553272837"><ele>92.6</ele><time>2026-03-30T13:07:08.999Z</time></trkpt><trkpt lat="48.371852002766445" lon="-4.591169888628822"><ele>92.80000000000001</ele><time>2026-03-30T13:07:10.999Z</time></trkpt><trkpt lat="48.37177737606676" lon="-4.591032895230844"><ele>93.0</ele><time>2026-03-30T13:07:12.999Z</time></trkpt><trkpt lat="48.37169274403008" lon="-4.59089655043621"><ele>93.0</ele><time>2026-03-30T13:07:14.999Z</time></trkpt><trkpt lat="48.371608267266" lon="-4.590767873510364"><ele>93.0</ele><time>2026-03-30T13:07:16.999Z</time></trkpt><trkpt lat="48.37153117977334" lon="-4.590630289630455"><ele>93.0</ele><time>2026-03-30T13:07:18.999Z</time></trkpt><trkpt lat="48.371445485887044" lon="-4.590502768693387"><ele>93.0</ele><time>2026-03-30T13:07:20.999Z</time></trkpt><trkpt lat="48.3713978519255" lon="-4.590438114373947"><ele>93.0</ele><time>2026-03-30T13:07:21.999Z</time></trkpt><trkpt lat="48.371300921704865" lon="-4.590317850616289"><ele>92.5</ele><time>2026-03-30T13:07:23.999Z</time></trkpt><trkpt lat="48.37120398739631" lon="-4.590186813354328"><ele>92.0</ele><time>2026-03-30T13:07:25.999Z</time></trkpt><trkpt lat="48.371164468494996" lon="-4.590106806348853"><ele>91.5</ele><time>2026-03-30T13:07:26.999Z</time></trkpt><trkpt lat="48.37111350452828" lon="-4.590046434877119"><ele>91.0</ele><time>2026-03-30T13:07:27.999Z</time></trkpt><trkpt lat="48.37105824218639" lon="-4.589988579775524"><ele>90.5</ele><time>2026-03-30T13:07:28.999Z</time></trkpt><trkpt lat="48.37100808834227" lon="-4.589931090400478"><ele>90.0</ele><time>2026-03-30T13:07:29.999Z</time></trkpt><trkpt lat="48.37095443391076" lon="-4.5898702842827035"><ele>90.0</ele><time>2026-03-30T13:07:30.999Z</time></trkpt><trkpt lat="48.37089607094239" lon="-4.589804317524913"><ele>90.0</ele><time>2026-03-30T13:07:31.999Z</time></trkpt><trkpt lat="48.370833508632494" lon="-4.5897441560492505"><ele>90.0</ele><time>2026-03-30T13:07:32.999Z</time></trkpt><trkpt lat="48.3707701067266" lon="-4.5896822114138685"><ele>90.0</ele><time>2026-03-30T13:07:33.999Z</time></trkpt><trkpt lat="48.37070260805735" lon="-4.589615289150815"><ele>90.0</ele><time>2026-03-30T13:07:34.999Z</time></trkpt><trkpt lat="48.37063221443792" lon="-4.5895541474477195"><ele>90.0</ele><time>2026-03-30T13:07:35.999Z</time></trkpt><trkpt lat="48.370560694268256" lon="-4.5894909042253"><ele>89.6</ele><time>2026-03-30T13:07:37Z</time></trkpt><trkpt lat="48.370481057621134" lon="-4.589422418363638"><ele>89.2</ele><time>2026-03-30T13:07:38Z</time></trkpt><trkpt lat="48.37039510221878" lon="-4.589364547907128"><ele>88.80000000000001</ele><time>2026-03-30T13:07:39Z</time></trkpt><trkpt lat="48.37032088046508" lon="-4.589291808530968"><ele>88.4</ele><time>2026-03-30T13:07:40Z</time></trkpt><trkpt lat="48.37024684892894" lon="-4.5892302554755835"><ele>88.0</ele><time>2026-03-30T13:07:41Z</time></trkpt><trkpt lat="48.37016820638792" lon="-4.589162428057334"><ele>88.0</ele><time>2026-03-30T13:07:42Z</time></trkpt><trkpt lat="48.370090796011034" lon="-4.589102941213788"><ele>88.0</ele><time>2026-03-30T13:07:43Z</time></trkpt><trkpt lat="48.37001765652952" lon="-4.5890516226430345"><ele>88.0</ele><time>2026-03-30T13:07:44Z</time></trkpt><trkpt lat="48.369943224919744" lon="-4.589005341550253"><ele>88.0</ele><time>2026-03-30T13:07:45Z</time></trkpt><trkpt lat="48.369868009004115" lon="-4.588969288231967"><ele>88.0</ele><time>2026-03-30T13:07:46Z</time></trkpt><trkpt lat="48.36978948449058" lon="-4.588914136523566"><ele>88.0</ele><time>2026-03-30T13:07:47Z</time></trkpt><trkpt lat="48.36971549196716" lon="-4.588852722137053"><ele>87.83333333333333</ele><time>2026-03-30T13:07:48Z</time></trkpt><trkpt lat="48.369647495462544" lon="-4.588769013650106"><ele>87.66666666666666</ele><time>2026-03-30T13:07:49Z</time></trkpt><trkpt lat="48.369576224448345" lon="-4.5887000301776775"><ele>87.5</ele><time>2026-03-30T13:07:50Z</time></trkpt><trkpt lat="48.369501847566454" lon="-4.588638775509475"><ele>87.33333333333333</ele><time>2026-03-30T13:07:51Z</time></trkpt><trkpt lat="48.36942929066907" lon="-4.5885838856488865"><ele>87.16666666666667</ele><time>2026-03-30T13:07:52Z</time></trkpt><trkpt lat="48.369329418451066" lon="-4.588513659411608"><ele>87.0</ele><time>2026-03-30T13:07:54Z</time></trkpt><trkpt lat="48.36927290453299" lon="-4.588469743525246"><ele>86.8</ele><time>2026-03-30T13:07:56Z</time></trkpt><trkpt lat="48.36920364017806" lon="-4.588408530407343"><ele>86.6</ele><time>2026-03-30T13:07:59Z</time></trkpt><trkpt lat="48.36911845825074" lon="-4.588364628320157"><ele>86.39999999999999</ele><time>2026-03-30T13:08:01Z</time></trkpt><trkpt lat="48.36902020890507" lon="-4.588340271924573"><ele>86.19999999999999</ele><time>2026-03-30T13:08:03Z</time></trkpt><trkpt lat="48.36892590972036" lon="-4.5883146025613195"><ele>86.0</ele><time>2026-03-30T13:08:05Z</time></trkpt><trkpt lat="48.36884302471575" lon="-4.588264916534258"><ele>86.0</ele><time>2026-03-30T13:08:07Z</time></trkpt><trkpt lat="48.368749530795235" lon="-4.58835510770082"><ele>86.0</ele><time>2026-03-30T13:08:09Z</time></trkpt><trkpt lat="48.3686816502503" lon="-4.588360339767719"><ele>86.0</ele><time>2026-03-30T13:08:13Z</time></trkpt><trkpt lat="48.3686097693801" lon="-4.588361455563581"><ele>86.0</ele><time>2026-03-30T13:08:24Z</time></trkpt><trkpt lat="48.36852218640895" lon="-4.588308130061611"><ele>86.0</ele><time>2026-03-30T13:08:27Z</time></trkpt><trkpt lat="48.36846503547937" lon="-4.588240722407962"><ele>86.0</ele><time>2026-03-30T13:08:29Z</time></trkpt><trkpt lat="48.36840435847992" lon="-4.588154940792903"><ele>86.0</ele><time>2026-03-30T13:08:31Z</time></trkpt><trkpt lat="48.36832942523885" lon="-4.588081373724105"><ele>86.0</ele><time>2026-03-30T13:08:33Z</time></trkpt><trkpt lat="48.368253974534035" lon="-4.588003662207748"><ele>86.0</ele><time>2026-03-30T13:08:35Z</time></trkpt><trkpt lat="48.36816069455828" lon="-4.587907130917994"><ele>86.0</ele><time>2026-03-30T13:08:37Z</time></trkpt><trkpt lat="48.36805518572588" lon="-4.587803614261143"><ele>86.0</ele><time>2026-03-30T13:08:39Z</time></trkpt><trkpt lat="48.368001641737926" lon="-4.587750306262545"><ele>86.14285714285715</ele><time>2026-03-30T13:08:40Z</time></trkpt><trkpt lat="48.367945977477405" lon="-4.587693854185217"><ele>86.28571428571429</ele><time>2026-03-30T13:08:41Z</time></trkpt><trkpt lat="48.367890111350974" lon="-4.587642004944209"><ele>86.42857142857143</ele><time>2026-03-30T13:08:42Z</time></trkpt><trkpt lat="48.36783238127769" lon="-4.587583412579582"><ele>86.57142857142858</ele><time>2026-03-30T13:08:43Z</time></trkpt><trkpt lat="48.367773664494955" lon="-4.58752329983099"><ele>86.71428571428572</ele><time>2026-03-30T13:08:44Z</time></trkpt><trkpt lat="48.367710645499834" lon="-4.5874627792151585"><ele>86.85714285714286</ele><time>2026-03-30T13:08:45Z</time></trkpt><trkpt lat="48.36764684733671" lon="-4.587399980995791"><ele>87.0</ele><time>2026-03-30T13:08:46Z</time></trkpt><trkpt lat="48.367583249018566" lon="-4.58733346684499"><ele>87.0</ele><time>2026-03-30T13:08:46.999Z</time></trkpt><trkpt lat="48.367522247960444" lon="-4.587259733807953"><ele>87.0</ele><time>2026-03-30T13:08:47.999Z</time></trkpt><trkpt lat="48.36745608391752" lon="-4.587189663448048"><ele>87.0</ele><time>2026-03-30T13:08:48.999Z</time></trkpt><trkpt lat="48.367391804942415" lon="-4.58711338831282"><ele>87.0</ele><time>2026-03-30T13:08:49.999Z</time></trkpt><trkpt lat="48.367326725179616" lon="-4.587035670775616"><ele>87.0</ele><time>2026-03-30T13:08:50.999Z</time></trkpt><trkpt lat="48.367262155176945" lon="-4.586952413674748"><ele>87.0</ele><time>2026-03-30T13:08:51.999Z</time></trkpt><trkpt lat="48.3671972561911" lon="-4.5868675589954035"><ele>87.0</ele><time>2026-03-30T13:08:52.999Z</time></trkpt><trkpt lat="48.36714139786382" lon="-4.5867719264801385"><ele>87.0</ele><time>2026-03-30T13:08:53.999Z</time></trkpt><trkpt lat="48.36709154461681" lon="-4.586663153764467"><ele>87.0</ele><time>2026-03-30T13:08:54.999Z</time></trkpt><trkpt lat="48.3670353399312" lon="-4.586557568295233"><ele>87.0</ele><time>2026-03-30T13:08:55.999Z</time></trkpt><trkpt lat="48.36697565199524" lon="-4.586453623188095"><ele>87.0</ele><time>2026-03-30T13:08:56.999Z</time></trkpt><trkpt lat="48.36691713091144" lon="-4.58634507256896"><ele>87.0</ele><time>2026-03-30T13:08:57.999Z</time></trkpt><trkpt lat="48.366855453941156" lon="-4.586237163583311"><ele>86.6</ele><time>2026-03-30T13:08:58.999Z</time></trkpt><trkpt lat="48.3667907842028" lon="-4.586129459671081"><ele>86.19999999999999</ele><time>2026-03-30T13:08:59.999Z</time></trkpt><trkpt lat="48.366730183789755" lon="-4.586013397977943"><ele>85.8</ele><time>2026-03-30T13:09:00.999Z</time></trkpt><trkpt lat="48.366668666791995" lon="-4.5858969883554375"><ele>85.4</ele><time>2026-03-30T13:09:01.999Z</time></trkpt><trkpt lat="48.36660209825413" lon="-4.585782742523912"><ele>85.0</ele><time>2026-03-30T13:09:02.999Z</time></trkpt><trkpt lat="48.36653639307307" lon="-4.585668113271733"><ele>85.0</ele><time>2026-03-30T13:09:03.999Z</time></trkpt><trkpt lat="48.36646473327683" lon="-4.58555835372337"><ele>85.0</ele><time>2026-03-30T13:09:04.999Z</time></trkpt><trkpt lat="48.3663799978048" lon="-4.585473914182199"><ele>85.0</ele><time>2026-03-30T13:09:05.999Z</time></trkpt><trkpt lat="48.36629385543291" lon="-4.585400320223975"><ele>85.0</ele><time>2026-03-30T13:09:06.999Z</time></trkpt><trkpt lat="48.36620428292627" lon="-4.585326109342987"><ele>85.0</ele><time>2026-03-30T13:09:07.999Z</time></trkpt><trkpt lat="48.366114916386124" lon="-4.585257616506035"><ele>84.8</ele><time>2026-03-30T13:09:08.999Z</time></trkpt><trkpt lat="48.36602668652272" lon="-4.585189757862999"><ele>84.6</ele><time>2026-03-30T13:09:09.999Z</time></trkpt><trkpt lat="48.36593996472658" lon="-4.585120527732534"><ele>84.4</ele><time>2026-03-30T13:09:10.999Z</time></trkpt><trkpt lat="48.3658507369633" lon="-4.585051565652431"><ele>84.2</ele><time>2026-03-30T13:09:11.999Z</time></trkpt><trkpt lat="48.3657655827766" lon="-4.584981439550845"><ele>84.0</ele><time>2026-03-30T13:09:12.999Z</time></trkpt><trkpt lat="48.36567939063875" lon="-4.584910949930081"><ele>84.5</ele><time>2026-03-30T13:09:13.999Z</time></trkpt><trkpt lat="48.36549784826689" lon="-4.584803176371299"><ele>85.0</ele><time>2026-03-30T13:09:15.999Z</time></trkpt><trkpt lat="48.365407746522905" lon="-4.584778693200026"><ele>85.5</ele><time>2026-03-30T13:09:16.999Z</time></trkpt><trkpt lat="48.36531704851815" lon="-4.584763416718212"><ele>86.0</ele><time>2026-03-30T13:09:17.999Z</time></trkpt><trkpt lat="48.36522932874258" lon="-4.584742652579504"><ele>86.0</ele><time>2026-03-30T13:09:18.999Z</time></trkpt><trkpt lat="48.365140663310214" lon="-4.584716902882697"><ele>86.0</ele><time>2026-03-30T13:09:19.999Z</time></trkpt><trkpt lat="48.365054889297824" lon="-4.584696989258632"><ele>86.0</ele><time>2026-03-30T13:09:20.999Z</time></trkpt><trkpt lat="48.36497237651918" lon="-4.584676731254819"><ele>86.0</ele><time>2026-03-30T13:09:21.999Z</time></trkpt><trkpt lat="48.36489007709811" lon="-4.584654649751765"><ele>86.0</ele><time>2026-03-30T13:09:22.999Z</time></trkpt><trkpt lat="48.36480437517071" lon="-4.584638235728628"><ele>86.0</ele><time>2026-03-30T13:09:23.999Z</time></trkpt><trkpt lat="48.364720875822" lon="-4.584626871214574"><ele>86.4</ele><time>2026-03-30T13:09:24.999Z</time></trkpt><trkpt lat="48.36463267853767" lon="-4.584616562216625"><ele>86.8</ele><time>2026-03-30T13:09:25.999Z</time></trkpt><trkpt lat="48.364542635972605" lon="-4.58461087079197"><ele>87.2</ele><time>2026-03-30T13:09:26.999Z</time></trkpt><trkpt lat="48.36444959110101" lon="-4.584621102997972"><ele>87.60000000000001</ele><time>2026-03-30T13:09:27.999Z</time></trkpt><trkpt lat="48.36435644545991" lon="-4.584637032394759"><ele>88.0</ele><time>2026-03-30T13:09:28.999Z</time></trkpt><trkpt lat="48.36426520566018" lon="-4.584656272229378"><ele>88.0</ele><time>2026-03-30T13:09:29.999Z</time></trkpt><trkpt lat="48.364174582388806" lon="-4.584694672641916"><ele>88.0</ele><time>2026-03-30T13:09:30.999Z</time></trkpt><trkpt lat="48.364084612669885" lon="-4.584742233930033"><ele>88.0</ele><time>2026-03-30T13:09:31.999Z</time></trkpt><trkpt lat="48.363995603850334" lon="-4.5847924991594855"><ele>88.0</ele><time>2026-03-30T13:09:32.999Z</time></trkpt><trkpt lat="48.363910018034986" lon="-4.584838264006003"><ele>88.0</ele><time>2026-03-30T13:09:33.999Z</time></trkpt><trkpt lat="48.36382090054303" lon="-4.5848747522117534"><ele>88.33333333333333</ele><time>2026-03-30T13:09:34.999Z</time></trkpt><trkpt lat="48.363735136343685" lon="-4.584902309832262"><ele>88.66666666666666</ele><time>2026-03-30T13:09:35.999Z</time></trkpt><trkpt lat="48.36364783093418" lon="-4.584909775336729"><ele>89.0</ele><time>2026-03-30T13:09:36.999Z</time></trkpt><trkpt lat="48.363559814963416" lon="-4.584895940994624"><ele>89.33333333333333</ele><time>2026-03-30T13:09:37.999Z</time></trkpt><trkpt lat="48.363475268136135" lon="-4.584868751016424"><ele>89.66666666666667</ele><time>2026-03-30T13:09:38.999Z</time></trkpt><trkpt lat="48.3633937865082" lon="-4.584830070958841"><ele>90.0</ele><time>2026-03-30T13:09:39.999Z</time></trkpt><trkpt lat="48.36331211280199" lon="-4.584786983074048"><ele>90.0</ele><time>2026-03-30T13:09:40.999Z</time></trkpt><trkpt lat="48.363233001740326" lon="-4.584752767370561"><ele>90.0</ele><time>2026-03-30T13:09:41.999Z</time></trkpt><trkpt lat="48.363155561829345" lon="-4.584737377777565"><ele>90.0</ele><time>2026-03-30T13:09:43Z</time></trkpt><trkpt lat="48.36307489024997" lon="-4.584741203199412"><ele>90.0</ele><time>2026-03-30T13:09:44Z</time></trkpt><trkpt lat="48.362998054393024" lon="-4.584701594401949"><ele>90.0</ele><time>2026-03-30T13:09:45Z</time></trkpt><trkpt lat="48.36293476502514" lon="-4.584620179914842"><ele>90.0</ele><time>2026-03-30T13:09:46Z</time></trkpt><trkpt lat="48.3628757427096" lon="-4.58452659571217"><ele>89.5</ele><time>2026-03-30T13:09:47Z</time></trkpt><trkpt lat="48.362825847295916" lon="-4.584419437961083"><ele>89.0</ele><time>2026-03-30T13:09:48Z</time></trkpt><trkpt lat="48.36277878894296" lon="-4.584305018909882"><ele>88.5</ele><time>2026-03-30T13:09:49Z</time></trkpt><trkpt lat="48.36273700374467" lon="-4.584196738937195"><ele>88.0</ele><time>2026-03-30T13:09:50Z</time></trkpt><trkpt lat="48.36269209825629" lon="-4.584084785278287"><ele>87.5</ele><time>2026-03-30T13:09:51Z</time></trkpt><trkpt lat="48.36263442144368" lon="-4.58397660313999"><ele>87.0</ele><time>2026-03-30T13:09:52Z</time></trkpt><trkpt lat="48.3625685918267" lon="-4.5838844990254515"><ele>87.0</ele><time>2026-03-30T13:09:53Z</time></trkpt><trkpt lat="48.36250447094372" lon="-4.583792479946533"><ele>87.0</ele><time>2026-03-30T13:09:54Z</time></trkpt><trkpt lat="48.362466822354094" lon="-4.583653330389357"><ele>87.0</ele><time>2026-03-30T13:09:55Z</time></trkpt><trkpt lat="48.3624480036595" lon="-4.583521605134672"><ele>87.0</ele><time>2026-03-30T13:09:56Z</time></trkpt><trkpt lat="48.362413599618975" lon="-4.583390275859425"><ele>87.0</ele><time>2026-03-30T13:09:57Z</time></trkpt><trkpt lat="48.36236268297504" lon="-4.5832666038967975"><ele>87.0</ele><time>2026-03-30T13:09:58Z</time></trkpt><trkpt lat="48.362312970657" lon="-4.583147839104416"><ele>87.0</ele><time>2026-03-30T13:09:59Z</time></trkpt><trkpt lat="48.362264591242294" lon="-4.583027417429424"><ele>87.0</ele><time>2026-03-30T13:10:00Z</time></trkpt><trkpt lat="48.36221887492196" lon="-4.582905085547751"><ele>87.0</ele><time>2026-03-30T13:10:01Z</time></trkpt><trkpt lat="48.36216396177803" lon="-4.582788655184072"><ele>87.0</ele><time>2026-03-30T13:10:02Z</time></trkpt><trkpt lat="48.36211555842262" lon="-4.582666190731826"><ele>86.8</ele><time>2026-03-30T13:10:03Z</time></trkpt><trkpt lat="48.362068519993706" lon="-4.5825402305293155"><ele>86.6</ele><time>2026-03-30T13:10:04Z</time></trkpt><trkpt lat="48.36202236478265" lon="-4.582417431180164"><ele>86.39999999999999</ele><time>2026-03-30T13:10:05Z</time></trkpt><trkpt lat="48.361970941479775" lon="-4.58229891584915"><ele>86.19999999999999</ele><time>2026-03-30T13:10:06Z</time></trkpt><trkpt lat="48.361917206960236" lon="-4.582173136569693"><ele>86.0</ele><time>2026-03-30T13:10:07Z</time></trkpt><trkpt lat="48.361865422882566" lon="-4.582053166055656"><ele>86.0</ele><time>2026-03-30T13:10:08Z</time></trkpt><trkpt lat="48.36181823188606" lon="-4.581923956756742"><ele>86.0</ele><time>2026-03-30T13:10:09Z</time></trkpt><trkpt lat="48.36176436878349" lon="-4.581798966458372"><ele>86.0</ele><time>2026-03-30T13:10:10Z</time></trkpt><trkpt lat="48.36171859943768" lon="-4.581679921682031"><ele>86.0</ele><time>2026-03-30T13:10:11Z</time></trkpt><trkpt lat="48.361656323233525" lon="-4.5815548043813195"><ele>86.0</ele><time>2026-03-30T13:10:12Z</time></trkpt><trkpt lat="48.36159622173224" lon="-4.5814257361193285"><ele>86.0</ele><time>2026-03-30T13:10:13Z</time></trkpt><trkpt lat="48.36153198855776" lon="-4.58129975975609"><ele>86.0</ele><time>2026-03-30T13:10:14Z</time></trkpt><trkpt lat="48.3614720802502" lon="-4.581168100861039"><ele>86.0</ele><time>2026-03-30T13:10:15Z</time></trkpt><trkpt lat="48.36141212812435" lon="-4.58103725327895"><ele>86.0</ele><time>2026-03-30T13:10:16Z</time></trkpt><trkpt lat="48.361345809491745" lon="-4.580906515871823"><ele>86.0</ele><time>2026-03-30T13:10:17Z</time></trkpt><trkpt lat="48.361274882741995" lon="-4.580776710228231"><ele>85.0</ele><time>2026-03-30T13:10:18Z</time></trkpt><trkpt lat="48.36120844318017" lon="-4.580650280779841"><ele>84.0</ele><time>2026-03-30T13:10:19Z</time></trkpt><trkpt lat="48.36114048525622" lon="-4.580510924292364"><ele>83.0</ele><time>2026-03-30T13:10:20Z</time></trkpt><trkpt lat="48.36107635739182" lon="-4.5803761343713285"><ele>82.0</ele><time>2026-03-30T13:10:21Z</time></trkpt><trkpt lat="48.36101855991975" lon="-4.5802394724365305"><ele>81.0</ele><time>2026-03-30T13:10:22Z</time></trkpt><trkpt lat="48.360950585222504" lon="-4.580101578295162"><ele>80.5</ele><time>2026-03-30T13:10:23Z</time></trkpt><trkpt lat="48.360889897560604" lon="-4.57995381571614"><ele>80.0</ele><time>2026-03-30T13:10:24Z</time></trkpt><trkpt lat="48.36082670800323" lon="-4.579809058147454"><ele>79.5</ele><time>2026-03-30T13:10:25Z</time></trkpt><trkpt lat="48.36077268941493" lon="-4.579652905872876"><ele>79.0</ele><time>2026-03-30T13:10:26Z</time></trkpt><trkpt lat="48.36072266858562" lon="-4.57949696831899"><ele>79.0</ele><time>2026-03-30T13:10:27Z</time></trkpt><trkpt lat="48.36067477802093" lon="-4.579343227708995"><ele>79.0</ele><time>2026-03-30T13:10:28Z</time></trkpt><trkpt lat="48.36063454518629" lon="-4.5791842671609775"><ele>79.0</ele><time>2026-03-30T13:10:29Z</time></trkpt><trkpt lat="48.360601259490366" lon="-4.579025704264095"><ele>79.0</ele><time>2026-03-30T13:10:30Z</time></trkpt><trkpt lat="48.36056107158152" lon="-4.578875291537453"><ele>79.0</ele><time>2026-03-30T13:10:31Z</time></trkpt><trkpt lat="48.36053153010086" lon="-4.578722617139144"><ele>78.4</ele><time>2026-03-30T13:10:32Z</time></trkpt><trkpt lat="48.3605007013222" lon="-4.578573088306952"><ele>77.80000000000001</ele><time>2026-03-30T13:10:33Z</time></trkpt><trkpt lat="48.36046885262746" lon="-4.578418554578322"><ele>77.19999999999999</ele><time>2026-03-30T13:10:34Z</time></trkpt><trkpt lat="48.360435488637734" lon="-4.578268550025499"><ele>76.6</ele><time>2026-03-30T13:10:35Z</time></trkpt><trkpt lat="48.360406336030884" lon="-4.578114335923223"><ele>76.0</ele><time>2026-03-30T13:10:36Z</time></trkpt><trkpt lat="48.36037116627433" lon="-4.577962035548589"><ele>76.2</ele><time>2026-03-30T13:10:37Z</time></trkpt><trkpt lat="48.36034813227174" lon="-4.577809672885232"><ele>76.39999999999999</ele><time>2026-03-30T13:10:38Z</time></trkpt><trkpt lat="48.36031750598323" lon="-4.5776695969191135"><ele>76.6</ele><time>2026-03-30T13:10:39Z</time></trkpt><trkpt lat="48.36027890310306" lon="-4.5775245714586275"><ele>76.8</ele><time>2026-03-30T13:10:40Z</time></trkpt><trkpt lat="48.360251165886915" lon="-4.577377701906524"><ele>77.0</ele><time>2026-03-30T13:10:41Z</time></trkpt><trkpt lat="48.36022796336929" lon="-4.577236835886471"><ele>77.0</ele><time>2026-03-30T13:10:42Z</time></trkpt><trkpt lat="48.360197266681006" lon="-4.577095810773102"><ele>77.0</ele><time>2026-03-30T13:10:43Z</time></trkpt><trkpt lat="48.36015965866375" lon="-4.576952568357443"><ele>77.0</ele><time>2026-03-30T13:10:44Z</time></trkpt><trkpt lat="48.360144630853334" lon="-4.576811537265638"><ele>77.0</ele><time>2026-03-30T13:10:45Z</time></trkpt><trkpt lat="48.36013234552304" lon="-4.576667156619486"><ele>77.0</ele><time>2026-03-30T13:10:46Z</time></trkpt><trkpt lat="48.36012609603695" lon="-4.576522260556997"><ele>77.0</ele><time>2026-03-30T13:10:47Z</time></trkpt><trkpt lat="48.36012906935415" lon="-4.576377389772584"><ele>77.0</ele><time>2026-03-30T13:10:48Z</time></trkpt><trkpt lat="48.36013514322167" lon="-4.576235571405696"><ele>77.0</ele><time>2026-03-30T13:10:49Z</time></trkpt><trkpt lat="48.36015837164481" lon="-4.576096161052597"><ele>77.0</ele><time>2026-03-30T13:10:50Z</time></trkpt><trkpt lat="48.360177810668205" lon="-4.575958571777306"><ele>77.0</ele><time>2026-03-30T13:10:51Z</time></trkpt><trkpt lat="48.3602001001706" lon="-4.575828334759111"><ele>76.6</ele><time>2026-03-30T13:10:52Z</time></trkpt><trkpt lat="48.36022770854929" lon="-4.575695631813664"><ele>76.2</ele><time>2026-03-30T13:10:53Z</time></trkpt><trkpt lat="48.36025668834508" lon="-4.575564496048362"><ele>75.8</ele><time>2026-03-30T13:10:53.999Z</time></trkpt><trkpt lat="48.36028269162351" lon="-4.575435712581116"><ele>75.4</ele><time>2026-03-30T13:10:54.999Z</time></trkpt><trkpt lat="48.3603074923703" lon="-4.575301340353101"><ele>75.0</ele><time>2026-03-30T13:10:55.999Z</time></trkpt><trkpt lat="48.36033409517407" lon="-4.575163759335605"><ele>74.6</ele><time>2026-03-30T13:10:56.999Z</time></trkpt><trkpt lat="48.36036687988682" lon="-4.575026797596416"><ele>74.2</ele><time>2026-03-30T13:10:57.999Z</time></trkpt><trkpt lat="48.36039794224549" lon="-4.574895481587824"><ele>73.8</ele><time>2026-03-30T13:10:58.999Z</time></trkpt><trkpt lat="48.36042637398412" lon="-4.574756067062288"><ele>73.4</ele><time>2026-03-30T13:10:59.999Z</time></trkpt><trkpt lat="48.36044863872401" lon="-4.574619829609722"><ele>73.0</ele><time>2026-03-30T13:11:00.999Z</time></trkpt><trkpt lat="48.36046395322475" lon="-4.574480437531772"><ele>72.6</ele><time>2026-03-30T13:11:01.999Z</time></trkpt><trkpt lat="48.36047549911134" lon="-4.574339285039067"><ele>72.19999999999999</ele><time>2026-03-30T13:11:02.999Z</time></trkpt><trkpt lat="48.36048700247672" lon="-4.5741961232751756"><ele>71.8</ele><time>2026-03-30T13:11:03.999Z</time></trkpt><trkpt lat="48.36049581951196" lon="-4.574052004965752"><ele>71.39999999999999</ele><time>2026-03-30T13:11:04.999Z</time></trkpt><trkpt lat="48.36048484830138" lon="-4.573906896755709"><ele>71.0</ele><time>2026-03-30T13:11:05.999Z</time></trkpt><trkpt lat="48.36048941339686" lon="-4.5737577342193125"><ele>70.8</ele><time>2026-03-30T13:11:06.999Z</time></trkpt><trkpt lat="48.36047524266066" lon="-4.573611286083048"><ele>70.6</ele><time>2026-03-30T13:11:07.999Z</time></trkpt><trkpt lat="48.36046623971011" lon="-4.57346332823146"><ele>70.4</ele><time>2026-03-30T13:11:08.999Z</time></trkpt><trkpt lat="48.36045864126452" lon="-4.573316568721922"><ele>70.2</ele><time>2026-03-30T13:11:09.999Z</time></trkpt><trkpt lat="48.36044305205724" lon="-4.573166929418339"><ele>70.0</ele><time>2026-03-30T13:11:10.999Z</time></trkpt><trkpt lat="48.36042843167926" lon="-4.573015268809583"><ele>70.0</ele><time>2026-03-30T13:11:11.999Z</time></trkpt><trkpt lat="48.36041877692771" lon="-4.572871239215443"><ele>70.0</ele><time>2026-03-30T13:11:12.999Z</time></trkpt><trkpt lat="48.36040661627834" lon="-4.572724302088391"><ele>70.0</ele><time>2026-03-30T13:11:13.999Z</time></trkpt><trkpt lat="48.360395416342676" lon="-4.5725744154419505"><ele>70.0</ele><time>2026-03-30T13:11:14.999Z</time></trkpt><trkpt lat="48.360389442786996" lon="-4.572427505446669"><ele>70.0</ele><time>2026-03-30T13:11:15.999Z</time></trkpt><trkpt lat="48.36037615537923" lon="-4.572281179395271"><ele>70.0</ele><time>2026-03-30T13:11:16.999Z</time></trkpt><trkpt lat="48.36036052585416" lon="-4.572137677407623"><ele>70.0</ele><time>2026-03-30T13:11:17.999Z</time></trkpt><trkpt lat="48.36035041213925" lon="-4.572000853823347"><ele>70.0</ele><time>2026-03-30T13:11:18.999Z</time></trkpt><trkpt lat="48.36033210914377" lon="-4.571861354973078"><ele>70.0</ele><time>2026-03-30T13:11:19.999Z</time></trkpt><trkpt lat="48.360329923246354" lon="-4.57172976792052"><ele>70.0</ele><time>2026-03-30T13:11:20.999Z</time></trkpt><trkpt lat="48.3603245647118" lon="-4.5715986459923155"><ele>70.0</ele><time>2026-03-30T13:11:21.999Z</time></trkpt><trkpt lat="48.360321441522686" lon="-4.5714657000656915"><ele>70.0</ele><time>2026-03-30T13:11:22.999Z</time></trkpt><trkpt lat="48.360316324620456" lon="-4.571333233738529"><ele>70.0</ele><time>2026-03-30T13:11:23.999Z</time></trkpt><trkpt lat="48.360309956556144" lon="-4.571212122671579"><ele>70.0</ele><time>2026-03-30T13:11:24.999Z</time></trkpt><trkpt lat="48.360304726024545" lon="-4.5710933571258305"><ele>70.0</ele><time>2026-03-30T13:11:25.999Z</time></trkpt><trkpt lat="48.36027986698936" lon="-4.570974719004391"><ele>70.0</ele><time>2026-03-30T13:11:26.999Z</time></trkpt><trkpt lat="48.36027123675378" lon="-4.5708599853699745"><ele>70.0</ele><time>2026-03-30T13:11:27.999Z</time></trkpt><trkpt lat="48.360262195706646" lon="-4.5707402632706025"><ele>70.0</ele><time>2026-03-30T13:11:28.999Z</time></trkpt><trkpt lat="48.360233852372104" lon="-4.570638292355654"><ele>70.0</ele><time>2026-03-30T13:11:29.999Z</time></trkpt><trkpt lat="48.360164034678654" lon="-4.570572230105246"><ele>70.0</ele><time>2026-03-30T13:11:30.999Z</time></trkpt><trkpt lat="48.36015494378125" lon="-4.570455361884633"><ele>70.0</ele><time>2026-03-30T13:11:31.999Z</time></trkpt><trkpt lat="48.36024746805236" lon="-4.570340140948631"><ele>70.0</ele><time>2026-03-30T13:11:33.999Z</time></trkpt><trkpt lat="48.36032370596362" lon="-4.57035280691652"><ele>70.0</ele><time>2026-03-30T13:11:34.999Z</time></trkpt><trkpt lat="48.36041609287063" lon="-4.570339665648283"><ele>70.0</ele><time>2026-03-30T13:11:36.999Z</time></trkpt><trkpt lat="48.360458466963905" lon="-4.570507030291736"><ele>70.0</ele><time>2026-03-30T13:11:37.999Z</time></trkpt><trkpt lat="48.36055379192591" lon="-4.57042643316377"><ele>70.0</ele><time>2026-03-30T13:11:38.999Z</time></trkpt><trkpt lat="48.360621471817545" lon="-4.570411381042849"><ele>70.0</ele><time>2026-03-30T13:11:39.999Z</time></trkpt><trkpt lat="48.36069047508358" lon="-4.57039946683192"><ele>70.14285714285714</ele><time>2026-03-30T13:11:40.999Z</time></trkpt><trkpt lat="48.36076063686313" lon="-4.570379658518003"><ele>70.28571428571428</ele><time>2026-03-30T13:11:41.999Z</time></trkpt><trkpt lat="48.36082988629327" lon="-4.570370434351259"><ele>70.42857142857143</ele><time>2026-03-30T13:11:42.999Z</time></trkpt><trkpt lat="48.36089870169684" lon="-4.57035493066912"><ele>70.57142857142857</ele><time>2026-03-30T13:11:43.999Z</time></trkpt><trkpt lat="48.36096436132323" lon="-4.570347338748213"><ele>70.71428571428571</ele><time>2026-03-30T13:11:44.999Z</time></trkpt><trkpt lat="48.36103017057339" lon="-4.57033727532297"><ele>70.85714285714286</ele><time>2026-03-30T13:11:45.999Z</time></trkpt><trkpt lat="48.36109624976565" lon="-4.570344356151261"><ele>71.0</ele><time>2026-03-30T13:11:46.999Z</time></trkpt><trkpt lat="48.36116308782737" lon="-4.570337062258111"><ele>70.5</ele><time>2026-03-30T13:11:47.999Z</time></trkpt><trkpt lat="48.36123578749392" lon="-4.570318463886695"><ele>70.0</ele><time>2026-03-30T13:11:49Z</time></trkpt><trkpt lat="48.36129873693501" lon="-4.5703076251296535"><ele>69.5</ele><time>2026-03-30T13:11:50Z</time></trkpt><trkpt lat="48.3613647683587" lon="-4.570301256087413"><ele>69.0</ele><time>2026-03-30T13:11:51Z</time></trkpt><trkpt lat="48.36150370320512" lon="-4.570269217519769"><ele>68.5</ele><time>2026-03-30T13:11:53Z</time></trkpt><trkpt lat="48.361570670065475" lon="-4.5702539684491486"><ele>68.0</ele><time>2026-03-30T13:11:54Z</time></trkpt><trkpt lat="48.36164296945481" lon="-4.570246134997067"><ele>67.28571428571428</ele><time>2026-03-30T13:11:55Z</time></trkpt><trkpt lat="48.36171269517445" lon="-4.570233796295731"><ele>66.57142857142857</ele><time>2026-03-30T13:11:56Z</time></trkpt><trkpt lat="48.36177783226174" lon="-4.570225471156116"><ele>65.85714285714286</ele><time>2026-03-30T13:11:57Z</time></trkpt><trkpt lat="48.36185035389791" lon="-4.570212983997222"><ele>65.14285714285714</ele><time>2026-03-30T13:11:58Z</time></trkpt><trkpt lat="48.36192841028945" lon="-4.570207686005315"><ele>64.42857142857143</ele><time>2026-03-30T13:11:59Z</time></trkpt><trkpt lat="48.36200564791731" lon="-4.5702096779013"><ele>63.714285714285715</ele><time>2026-03-30T13:12:00Z</time></trkpt><trkpt lat="48.3620848013812" lon="-4.570185540964514"><ele>63.0</ele><time>2026-03-30T13:12:01Z</time></trkpt><trkpt lat="48.362160827088196" lon="-4.57016193529696"><ele>62.599999999999994</ele><time>2026-03-30T13:12:02Z</time></trkpt><trkpt lat="48.36223250177403" lon="-4.5701644706393765"><ele>62.199999999999996</ele><time>2026-03-30T13:12:03Z</time></trkpt><trkpt lat="48.362301344136746" lon="-4.570166305301213"><ele>61.8</ele><time>2026-03-30T13:12:04Z</time></trkpt><trkpt lat="48.36241294138669" lon="-4.570103327976366"><ele>61.4</ele><time>2026-03-30T13:12:06Z</time></trkpt><trkpt lat="48.362487390561256" lon="-4.569904118100959"><ele>61.0</ele><time>2026-03-30T13:12:08Z</time></trkpt><trkpt lat="48.36248603573345" lon="-4.569757945057712"><ele>61.0</ele><time>2026-03-30T13:12:09Z</time></trkpt><trkpt lat="48.36246883814145" lon="-4.569627416719772"><ele>60.99999999999999</ele><time>2026-03-30T13:12:10Z</time></trkpt><trkpt lat="48.36246272217123" lon="-4.56948924421708"><ele>60.99999999999999</ele><time>2026-03-30T13:12:11Z</time></trkpt><trkpt lat="48.36246906196189" lon="-4.569348439290673"><ele>61.0</ele><time>2026-03-30T13:12:12Z</time></trkpt><trkpt lat="48.36246475331596" lon="-4.569209506171335"><ele>61.0</ele><time>2026-03-30T13:12:13Z</time></trkpt><trkpt lat="48.36246743517857" lon="-4.56906950504165"><ele>60.5</ele><time>2026-03-30T13:12:14Z</time></trkpt><trkpt lat="48.36246640855521" lon="-4.568926417889477"><ele>60.0</ele><time>2026-03-30T13:12:15Z</time></trkpt><trkpt lat="48.36246922340758" lon="-4.568777279182247"><ele>59.5</ele><time>2026-03-30T13:12:16Z</time></trkpt><trkpt lat="48.36247246176237" lon="-4.568621225068586"><ele>59.0</ele><time>2026-03-30T13:12:17Z</time></trkpt><trkpt lat="48.36246944815596" lon="-4.568294011840008"><ele>58.75</ele><time>2026-03-30T13:12:19Z</time></trkpt><trkpt lat="48.36247094983308" lon="-4.568134404736257"><ele>58.5</ele><time>2026-03-30T13:12:20Z</time></trkpt><trkpt lat="48.362470760443074" lon="-4.5679691900205945"><ele>58.25</ele><time>2026-03-30T13:12:21Z</time></trkpt><trkpt lat="48.362472151788" lon="-4.567798919348172"><ele>58.0</ele><time>2026-03-30T13:12:22Z</time></trkpt><trkpt lat="48.36247376946887" lon="-4.567616644084604"><ele>58.0</ele><time>2026-03-30T13:12:23Z</time></trkpt><trkpt lat="48.36247321050322" lon="-4.567439004948218"><ele>58.0</ele><time>2026-03-30T13:12:24Z</time></trkpt><trkpt lat="48.36247021029048" lon="-4.567258839415606"><ele>58.0</ele><time>2026-03-30T13:12:25Z</time></trkpt><trkpt lat="48.362473841330704" lon="-4.567077551869184"><ele>58.0</ele><time>2026-03-30T13:12:26Z</time></trkpt><trkpt lat="48.36246604905071" lon="-4.5668969084918025"><ele>57.75</ele><time>2026-03-30T13:12:27Z</time></trkpt><trkpt lat="48.3624621904779" lon="-4.566723377565194"><ele>57.5</ele><time>2026-03-30T13:12:28Z</time></trkpt><trkpt lat="48.362455774592306" lon="-4.566542038531881"><ele>57.25</ele><time>2026-03-30T13:12:29Z</time></trkpt><trkpt lat="48.36245791282075" lon="-4.566358403831203"><ele>57.0</ele><time>2026-03-30T13:12:30Z</time></trkpt><trkpt lat="48.36246244430947" lon="-4.566173549090113"><ele>56.25</ele><time>2026-03-30T13:12:31Z</time></trkpt><trkpt lat="48.36247023951599" lon="-4.565991727449576"><ele>55.5</ele><time>2026-03-30T13:12:32Z</time></trkpt><trkpt lat="48.36247234912802" lon="-4.565811560769968"><ele>54.75</ele><time>2026-03-30T13:12:33Z</time></trkpt><trkpt lat="48.362464615713144" lon="-4.5656273750656515"><ele>54.0</ele><time>2026-03-30T13:12:34Z</time></trkpt><trkpt lat="48.36246230159144" lon="-4.5654559651009485"><ele>53.800000000000004</ele><time>2026-03-30T13:12:35Z</time></trkpt><trkpt lat="48.36246729366643" lon="-4.565289608316846"><ele>53.60000000000001</ele><time>2026-03-30T13:12:36Z</time></trkpt><trkpt lat="48.362458118372395" lon="-4.565119285852461"><ele>53.4</ele><time>2026-03-30T13:12:37Z</time></trkpt><trkpt lat="48.36245874610193" lon="-4.5649629749263285"><ele>53.2</ele><time>2026-03-30T13:12:38Z</time></trkpt><trkpt lat="48.362457881824525" lon="-4.564809243385709"><ele>53.0</ele><time>2026-03-30T13:12:39Z</time></trkpt><trkpt lat="48.362452890983874" lon="-4.564659278013474"><ele>52.833333333333336</ele><time>2026-03-30T13:12:40Z</time></trkpt><trkpt lat="48.362452794411766" lon="-4.564518346779216"><ele>52.66666666666667</ele><time>2026-03-30T13:12:41Z</time></trkpt><trkpt lat="48.36245325094882" lon="-4.5643882493053205"><ele>52.5</ele><time>2026-03-30T13:12:42Z</time></trkpt><trkpt lat="48.36245238225009" lon="-4.564253619561873"><ele>52.33333333333333</ele><time>2026-03-30T13:12:43Z</time></trkpt><trkpt lat="48.36245734389192" lon="-4.564123673806005"><ele>52.166666666666664</ele><time>2026-03-30T13:12:44Z</time></trkpt><trkpt lat="48.362434205838156" lon="-4.563991111502653"><ele>52.0</ele><time>2026-03-30T13:12:45Z</time></trkpt><trkpt lat="48.36238344157941" lon="-4.563879253052321"><ele>51.400000000000006</ele><time>2026-03-30T13:12:46Z</time></trkpt><trkpt lat="48.36229151926091" lon="-4.563671144008322"><ele>50.800000000000004</ele><time>2026-03-30T13:12:48Z</time></trkpt><trkpt lat="48.36230898152118" lon="-4.563539481757987"><ele>50.2</ele><time>2026-03-30T13:12:49Z</time></trkpt><trkpt lat="48.36233899925367" lon="-4.563426423496941"><ele>49.6</ele><time>2026-03-30T13:12:50Z</time></trkpt><trkpt lat="48.36237719958396" lon="-4.563308503829716"><ele>49.0</ele><time>2026-03-30T13:12:51Z</time></trkpt><trkpt lat="48.36227474559698" lon="-4.563152706341376"><ele>49.0</ele><time>2026-03-30T13:12:52Z</time></trkpt><trkpt lat="48.36221327404393" lon="-4.5630218249745145"><ele>49.0</ele><time>2026-03-30T13:12:53Z</time></trkpt><trkpt lat="48.362162325439485" lon="-4.562879516806253"><ele>49.0</ele><time>2026-03-30T13:12:54Z</time></trkpt><trkpt lat="48.36210145470485" lon="-4.5627493162730905"><ele>49.0</ele><time>2026-03-30T13:12:55Z</time></trkpt><trkpt lat="48.36204312060317" lon="-4.56261709132205"><ele>49.0</ele><time>2026-03-30T13:12:56Z</time></trkpt><trkpt lat="48.3619906656888" lon="-4.562476213628449"><ele>49.5</ele><time>2026-03-30T13:12:57Z</time></trkpt><trkpt lat="48.36195965776134" lon="-4.562313958217562"><ele>50.0</ele><time>2026-03-30T13:12:58Z</time></trkpt><trkpt lat="48.36193345643592" lon="-4.562151240675979"><ele>50.5</ele><time>2026-03-30T13:12:59Z</time></trkpt><trkpt lat="48.36191512717124" lon="-4.561984663684688"><ele>51.0</ele><time>2026-03-30T13:13:00Z</time></trkpt><trkpt lat="48.3619043605836" lon="-4.561811491202289"><ele>51.0</ele><time>2026-03-30T13:13:00.999Z</time></trkpt><trkpt lat="48.36190170622666" lon="-4.561642535031938"><ele>51.0</ele><time>2026-03-30T13:13:01.999Z</time></trkpt><trkpt lat="48.36191433199726" lon="-4.561463072962736"><ele>51.0</ele><time>2026-03-30T13:13:02.999Z</time></trkpt><trkpt lat="48.36193955847471" lon="-4.561291711226602"><ele>51.0</ele><time>2026-03-30T13:13:03.999Z</time></trkpt><trkpt lat="48.36196443015197" lon="-4.561115290606934"><ele>50.75</ele><time>2026-03-30T13:13:04.999Z</time></trkpt><trkpt lat="48.361985914094255" lon="-4.560942570578008"><ele>50.5</ele><time>2026-03-30T13:13:05.999Z</time></trkpt><trkpt lat="48.36199990587674" lon="-4.560758355778493"><ele>50.25</ele><time>2026-03-30T13:13:06.999Z</time></trkpt><trkpt lat="48.362018932686084" lon="-4.56058164067699"><ele>50.0</ele><time>2026-03-30T13:13:07.999Z</time></trkpt><trkpt lat="48.36202834964046" lon="-4.560406643439288"><ele>48.25</ele><time>2026-03-30T13:13:08.999Z</time></trkpt><trkpt lat="48.36204658656991" lon="-4.560222842746564"><ele>46.5</ele><time>2026-03-30T13:13:09.999Z</time></trkpt><trkpt lat="48.362067741480864" lon="-4.560046809405605"><ele>44.75</ele><time>2026-03-30T13:13:10.999Z</time></trkpt><trkpt lat="48.36206959646971" lon="-4.55987006519158"><ele>43.0</ele><time>2026-03-30T13:13:11.999Z</time></trkpt><trkpt lat="48.36206196097704" lon="-4.559690074717285"><ele>42.0</ele><time>2026-03-30T13:13:12.999Z</time></trkpt><trkpt lat="48.362049622548454" lon="-4.559509606750036"><ele>41.0</ele><time>2026-03-30T13:13:13.999Z</time></trkpt><trkpt lat="48.36201522277928" lon="-4.559330692960109"><ele>40.0</ele><time>2026-03-30T13:13:14.999Z</time></trkpt><trkpt lat="48.36197742184933" lon="-4.55915955378146"><ele>39.0</ele><time>2026-03-30T13:13:15.999Z</time></trkpt><trkpt lat="48.361933860506056" lon="-4.558984424598381"><ele>39.0</ele><time>2026-03-30T13:13:16.999Z</time></trkpt><trkpt lat="48.361874677926245" lon="-4.5588132721477015"><ele>39.0</ele><time>2026-03-30T13:13:17.999Z</time></trkpt><trkpt lat="48.36180754478675" lon="-4.558656932223867"><ele>39.0</ele><time>2026-03-30T13:13:18.999Z</time></trkpt><trkpt lat="48.3617323013855" lon="-4.558512350057468"><ele>39.0</ele><time>2026-03-30T13:13:19.999Z</time></trkpt><trkpt lat="48.36164335079453" lon="-4.558378070203327"><ele>38.0</ele><time>2026-03-30T13:13:20.999Z</time></trkpt><trkpt lat="48.361555148074636" lon="-4.55823355165816"><ele>37.0</ele><time>2026-03-30T13:13:21.999Z</time></trkpt><trkpt lat="48.36147384496912" lon="-4.558084992840445"><ele>36.0</ele><time>2026-03-30T13:13:22.999Z</time></trkpt><trkpt lat="48.361394445268594" lon="-4.557941565462422"><ele>35.0</ele><time>2026-03-30T13:13:23.999Z</time></trkpt><trkpt lat="48.36131708958561" lon="-4.557790097679579"><ele>35.0</ele><time>2026-03-30T13:13:24.999Z</time></trkpt><trkpt lat="48.36124212261346" lon="-4.5576402866957775"><ele>35.0</ele><time>2026-03-30T13:13:25.999Z</time></trkpt><trkpt lat="48.361171471391934" lon="-4.55749055099253"><ele>35.0</ele><time>2026-03-30T13:13:26.999Z</time></trkpt><trkpt lat="48.36113620435782" lon="-4.55731498905171"><ele>35.0</ele><time>2026-03-30T13:13:27.999Z</time></trkpt><trkpt lat="48.36112589889223" lon="-4.557131817812269"><ele>34.75</ele><time>2026-03-30T13:13:28.999Z</time></trkpt><trkpt lat="48.36112411499777" lon="-4.556961634546802"><ele>34.5</ele><time>2026-03-30T13:13:29.999Z</time></trkpt><trkpt lat="48.361167130160744" lon="-4.556802004376829"><ele>34.25</ele><time>2026-03-30T13:13:30.999Z</time></trkpt><trkpt lat="48.361209266527425" lon="-4.556644638283474"><ele>34.0</ele><time>2026-03-30T13:13:31.999Z</time></trkpt><trkpt lat="48.36125289213505" lon="-4.556492049526497"><ele>34.0</ele><time>2026-03-30T13:13:32.999Z</time></trkpt><trkpt lat="48.36127166937224" lon="-4.556321900657915"><ele>34.0</ele><time>2026-03-30T13:13:33.999Z</time></trkpt><trkpt lat="48.36129148155455" lon="-4.556153138197623"><ele>34.0</ele><time>2026-03-30T13:13:34.999Z</time></trkpt><trkpt lat="48.361283926309774" lon="-4.555982070728345"><ele>34.0</ele><time>2026-03-30T13:13:35.999Z</time></trkpt><trkpt lat="48.361266083075236" lon="-4.555792724501578"><ele>33.6</ele><time>2026-03-30T13:13:36.999Z</time></trkpt><trkpt lat="48.36124693059035" lon="-4.555612820601617"><ele>33.2</ele><time>2026-03-30T13:13:37.999Z</time></trkpt><trkpt lat="48.361236371199" lon="-4.555446843841829"><ele>32.800000000000004</ele><time>2026-03-30T13:13:38.999Z</time></trkpt><trkpt lat="48.36121499097644" lon="-4.555293641259924"><ele>32.4</ele><time>2026-03-30T13:13:39.999Z</time></trkpt><trkpt lat="48.36120057788212" lon="-4.555167498015237"><ele>32.0</ele><time>2026-03-30T13:13:40.999Z</time></trkpt><trkpt lat="48.36118919723225" lon="-4.555051212987842"><ele>29.400000000000002</ele><time>2026-03-30T13:13:41.999Z</time></trkpt><trkpt lat="48.36119545475874" lon="-4.554932909200796"><ele>26.800000000000004</ele><time>2026-03-30T13:13:42.999Z</time></trkpt><trkpt lat="48.36122017305118" lon="-4.554809739586479"><ele>24.2</ele><time>2026-03-30T13:13:43.999Z</time></trkpt><trkpt lat="48.361273684507616" lon="-4.554688230026594"><ele>21.6</ele><time>2026-03-30T13:13:44.999Z</time></trkpt><trkpt lat="48.36135450426305" lon="-4.554590047589696"><ele>19.0</ele><time>2026-03-30T13:13:45.999Z</time></trkpt><trkpt lat="48.3614669242305" lon="-4.554537618043906"><ele>16.2</ele><time>2026-03-30T13:13:46.999Z</time></trkpt><trkpt lat="48.36156362339853" lon="-4.554481207022717"><ele>13.399999999999999</ele><time>2026-03-30T13:13:47.999Z</time></trkpt><trkpt lat="48.361645447925596" lon="-4.554434738918357"><ele>10.6</ele><time>2026-03-30T13:13:48.999Z</time></trkpt><trkpt lat="48.36172089662906" lon="-4.554350951989886"><ele>7.8</ele><time>2026-03-30T13:13:49.999Z</time></trkpt><trkpt lat="48.36180095075538" lon="-4.554296571740038"><ele>5.0</ele><time>2026-03-30T13:13:50.999Z</time></trkpt><trkpt lat="48.36187852839421" lon="-4.554245706980902"><ele>5.0</ele><time>2026-03-30T13:13:51.999Z</time></trkpt><trkpt lat="48.36194674741662" lon="-4.554182758473245"><ele>5.0</ele><time>2026-03-30T13:13:52.999Z</time></trkpt><trkpt lat="48.36200970060928" lon="-4.554101474325785"><ele>5.0</ele><time>2026-03-30T13:13:53.999Z</time></trkpt><trkpt lat="48.36205715411374" lon="-4.554002266715509"><ele>5.0</ele><time>2026-03-30T13:13:55Z</time></trkpt><trkpt lat="48.36209445638473" lon="-4.5539085276261915"><ele>5.0</ele><time>2026-03-30T13:13:56Z</time></trkpt><trkpt lat="48.36212685287519" lon="-4.55381386483181"><ele>5.0</ele><time>2026-03-30T13:13:57Z</time></trkpt><trkpt lat="48.36215700500208" lon="-4.5537152354695385"><ele>5.333333333333334</ele><time>2026-03-30T13:13:58Z</time></trkpt><trkpt lat="48.36217114427669" lon="-4.55359938864606"><ele>5.666666666666667</ele><time>2026-03-30T13:13:59Z</time></trkpt><trkpt lat="48.362222594763296" lon="-4.5534533918666575"><ele>6.0</ele><time>2026-03-30T13:14:01Z</time></trkpt><trkpt lat="48.36226454747771" lon="-4.553325140668254"><ele>6.333333333333334</ele><time>2026-03-30T13:14:03Z</time></trkpt><trkpt lat="48.36229645817436" lon="-4.5532244692821555"><ele>6.666666666666667</ele><time>2026-03-30T13:14:05Z</time></trkpt><trkpt lat="48.362327806551846" lon="-4.553122529376928"><ele>7.0</ele><time>2026-03-30T13:14:07Z</time></trkpt><trkpt lat="48.362359652847246" lon="-4.553018135488069"><ele>9.666666666666668</ele><time>2026-03-30T13:14:09Z</time></trkpt><trkpt lat="48.36239386928495" lon="-4.552905012767341"><ele>12.333333333333334</ele><time>2026-03-30T13:14:11Z</time></trkpt><trkpt lat="48.36242286968465" lon="-4.552807330971044"><ele>15.0</ele><time>2026-03-30T13:14:13Z</time></trkpt><trkpt lat="48.36245778606624" lon="-4.552679978428129"><ele>17.666666666666668</ele><time>2026-03-30T13:14:16Z</time></trkpt><trkpt lat="48.36246257527448" lon="-4.552545486832701"><ele>20.333333333333336</ele><time>2026-03-30T13:14:19Z</time></trkpt><trkpt lat="48.36245370946129" lon="-4.552451402865043"><ele>23.0</ele><time>2026-03-30T13:14:22Z</time></trkpt><trkpt lat="48.362434652096454" lon="-4.552309522966898"><ele>23.0</ele><time>2026-03-30T13:14:25Z</time></trkpt><trkpt lat="48.362415737236795" lon="-4.5521687043419155"><ele>23.0</ele><time>2026-03-30T13:14:28Z</time></trkpt><trkpt lat="48.362443538219765" lon="-4.552066045671663"><ele>23.0</ele><time>2026-03-30T13:14:30Z</time></trkpt><trkpt lat="48.36242052025055" lon="-4.551958735272716"><ele>23.0</ele><time>2026-03-30T13:14:32Z</time></trkpt><trkpt lat="48.36241317333427" lon="-4.551859005525992"><ele>23.0</ele><time>2026-03-30T13:14:34Z</time></trkpt><trkpt lat="48.362404250383484" lon="-4.551756665536273"><ele>23.0</ele><time>2026-03-30T13:14:36Z</time></trkpt><trkpt lat="48.36239597287695" lon="-4.5516528771767275"><ele>23.0</ele><time>2026-03-30T13:14:38Z</time></trkpt><trkpt lat="48.362382042739895" lon="-4.551515782860493"><ele>23.0</ele><time>2026-03-30T13:14:41Z</time></trkpt><trkpt lat="48.362378556803414" lon="-4.551368802328218"><ele>23.0</ele><time>2026-03-30T13:14:44Z</time></trkpt><trkpt lat="48.362389800589064" lon="-4.551224489517614"><ele>23.0</ele><time>2026-03-30T13:14:46Z</time></trkpt><trkpt lat="48.36242876654072" lon="-4.551096776279744"><ele>23.0</ele><time>2026-03-30T13:14:48Z</time></trkpt><trkpt lat="48.36250239374676" lon="-4.550991276063783"><ele>23.0</ele><time>2026-03-30T13:14:50Z</time></trkpt><trkpt lat="48.36261046695963" lon="-4.550900963387769"><ele>22.799999999999997</ele><time>2026-03-30T13:14:52Z</time></trkpt><trkpt lat="48.36270573775962" lon="-4.550826053339763"><ele>22.6</ele><time>2026-03-30T13:14:54Z</time></trkpt><trkpt lat="48.36280325017642" lon="-4.550742170713192"><ele>22.4</ele><time>2026-03-30T13:14:56Z</time></trkpt><trkpt lat="48.36287236679186" lon="-4.550640536176193"><ele>22.200000000000003</ele><time>2026-03-30T13:14:58Z</time></trkpt><trkpt lat="48.36296931309201" lon="-4.550600725418725"><ele>22.0</ele><time>2026-03-30T13:15:00Z</time></trkpt><trkpt lat="48.36305972229794" lon="-4.550567701782616"><ele>25.333333333333332</ele><time>2026-03-30T13:15:02Z</time></trkpt><trkpt lat="48.36313992244916" lon="-4.550549517939237"><ele>28.666666666666664</ele><time>2026-03-30T13:15:03.999Z</time></trkpt><trkpt lat="48.36321911609879" lon="-4.550506136329674"><ele>32.0</ele><time>2026-03-30T13:15:05.999Z</time></trkpt><trkpt lat="48.36329817835291" lon="-4.5504970022522615"><ele>35.333333333333336</ele><time>2026-03-30T13:15:07.999Z</time></trkpt><trkpt lat="48.363405133635744" lon="-4.550485133490963"><ele>38.666666666666664</ele><time>2026-03-30T13:15:10.999Z</time></trkpt><trkpt lat="48.363477077791835" lon="-4.550474986483725"><ele>42.0</ele><time>2026-03-30T13:15:12.999Z</time></trkpt><trkpt lat="48.36356466054954" lon="-4.550451721294478"><ele>42.0</ele><time>2026-03-30T13:15:15.999Z</time></trkpt><trkpt lat="48.363642888951354" lon="-4.5504148902094"><ele>42.0</ele><time>2026-03-30T13:15:18.999Z</time></trkpt><trkpt lat="48.363714120167636" lon="-4.550369535421697"><ele>42.0</ele><time>2026-03-30T13:15:22.999Z</time></trkpt><trkpt lat="48.36379738093657" lon="-4.550381769138794"><ele>42.0</ele><time>2026-03-30T13:15:25.999Z</time></trkpt><trkpt lat="48.363901708256115" lon="-4.5502216439296665"><ele>42.0</ele><time>2026-03-30T13:15:31.999Z</time></trkpt><trkpt lat="48.36394757521226" lon="-4.550154088043244"><ele>43.142857142857146</ele><time>2026-03-30T13:15:34.999Z</time></trkpt><trkpt lat="48.36398224400686" lon="-4.550074382833791"><ele>44.285714285714285</ele><time>2026-03-30T13:15:37.999Z</time></trkpt><trkpt lat="48.36402243181156" lon="-4.549994752603474"><ele>45.42857142857143</ele><time>2026-03-30T13:15:40.999Z</time></trkpt><trkpt lat="48.364084253816664" lon="-4.549930943863498"><ele>46.57142857142857</ele><time>2026-03-30T13:15:43.999Z</time></trkpt><trkpt lat="48.364146642123856" lon="-4.549855572000328"><ele>47.714285714285715</ele><time>2026-03-30T13:15:47.999Z</time></trkpt><trkpt lat="48.364211180172575" lon="-4.549785624620031"><ele>48.85714285714286</ele><time>2026-03-30T13:15:51.999Z</time></trkpt><trkpt lat="48.364259702783606" lon="-4.5497089142680185"><ele>50.0</ele><time>2026-03-30T13:15:55.999Z</time></trkpt><trkpt lat="48.36433267450668" lon="-4.54970498623763"><ele>50.00000000000001</ele><time>2026-03-30T13:15:58.999Z</time></trkpt><trkpt lat="48.364387769949545" lon="-4.549647276267625"><ele>50.0</ele><time>2026-03-30T13:16:02Z</time></trkpt><trkpt lat="48.36443085904385" lon="-4.549571052325759"><ele>50.0</ele><time>2026-03-30T13:16:05Z</time></trkpt><trkpt lat="48.3644996220319" lon="-4.549518109347691"><ele>50.0</ele><time>2026-03-30T13:16:08Z</time></trkpt><trkpt lat="48.364566168963925" lon="-4.549433131385704"><ele>50.0</ele><time>2026-03-30T13:16:12Z</time></trkpt><trkpt lat="48.364617698654776" lon="-4.5493770013875325"><ele>50.00000000000001</ele><time>2026-03-30T13:16:16Z</time></trkpt><trkpt lat="48.36468888010516" lon="-4.549304607016691"><ele>50.0</ele><time>2026-03-30T13:16:21Z</time></trkpt><trkpt lat="48.364756115632986" lon="-4.549225747470846"><ele>52.00000000000001</ele><time>2026-03-30T13:16:25Z</time></trkpt><trkpt lat="48.36481696073496" lon="-4.549151785069386"><ele>54.0</ele><time>2026-03-30T13:16:29Z</time></trkpt><trkpt lat="48.36486962964783" lon="-4.549066148429801"><ele>56.0</ele><time>2026-03-30T13:16:33Z</time></trkpt><trkpt lat="48.364936703583716" lon="-4.54900556578127"><ele>58.0</ele><time>2026-03-30T13:16:36Z</time></trkpt><trkpt lat="48.36499198170467" lon="-4.548921087951175"><ele>60.00000000000001</ele><time>2026-03-30T13:16:39Z</time></trkpt><trkpt lat="48.36503853962867" lon="-4.548843035228052"><ele>62.0</ele><time>2026-03-30T13:16:42Z</time></trkpt><trkpt lat="48.36509940297961" lon="-4.548783809584798"><ele>61.714285714285715</ele><time>2026-03-30T13:16:45Z</time></trkpt><trkpt lat="48.365157012980404" lon="-4.548708988181302"><ele>61.42857142857143</ele><time>2026-03-30T13:16:48Z</time></trkpt><trkpt lat="48.36521183394898" lon="-4.548641413944609"><ele>61.142857142857146</ele><time>2026-03-30T13:16:51Z</time></trkpt><trkpt lat="48.36526711596559" lon="-4.548559972892939"><ele>60.85714285714286</ele><time>2026-03-30T13:16:54Z</time></trkpt><trkpt lat="48.36531336901975" lon="-4.548480256795082"><ele>60.57142857142857</ele><time>2026-03-30T13:16:57Z</time></trkpt><trkpt lat="48.36537385065752" lon="-4.5483993624850845"><ele>60.28571428571429</ele><time>2026-03-30T13:17:00Z</time></trkpt><trkpt lat="48.365443194796555" lon="-4.548362606183669"><ele>60.0</ele><time>2026-03-30T13:17:03Z</time></trkpt><trkpt lat="48.365515544224934" lon="-4.548300728609708"><ele>61.0</ele><time>2026-03-30T13:17:06Z</time></trkpt><trkpt lat="48.3655961527039" lon="-4.548269207284123"><ele>62.0</ele><time>2026-03-30T13:17:09Z</time></trkpt><trkpt lat="48.36566370735177" lon="-4.548233200439685"><ele>63.0</ele><time>2026-03-30T13:17:11.999Z</time></trkpt><trkpt lat="48.36572191517308" lon="-4.548191894738889"><ele>64.0</ele><time>2026-03-30T13:17:15.999Z</time></trkpt><trkpt lat="48.36581044977497" lon="-4.5481688370386175"><ele>65.0</ele><time>2026-03-30T13:17:21.999Z</time></trkpt><trkpt lat="48.36586514591393" lon="-4.548092920778028"><ele>66.0</ele><time>2026-03-30T13:17:25.999Z</time></trkpt><trkpt lat="48.365908569579155" lon="-4.5479881389742065"><ele>66.0</ele><time>2026-03-30T13:17:27.999Z</time></trkpt><trkpt lat="48.365969336606994" lon="-4.547912102478913"><ele>66.0</ele><time>2026-03-30T13:17:29.999Z</time></trkpt><trkpt lat="48.3660548711784" lon="-4.547795079152543"><ele>66.0</ele><time>2026-03-30T13:17:32.999Z</time></trkpt><trkpt lat="48.36614234916635" lon="-4.547740939502853"><ele>66.0</ele><time>2026-03-30T13:17:34.999Z</time></trkpt><trkpt lat="48.366214830222475" lon="-4.5476517604466995"><ele>66.0</ele><time>2026-03-30T13:17:36.999Z</time></trkpt><trkpt lat="48.36628893516584" lon="-4.547562497664708"><ele>66.6</ele><time>2026-03-30T13:17:38.999Z</time></trkpt><trkpt lat="48.36636860391792" lon="-4.547488845379243"><ele>67.19999999999999</ele><time>2026-03-30T13:17:40.999Z</time></trkpt><trkpt lat="48.36644151859493" lon="-4.547403909557909"><ele>67.80000000000001</ele><time>2026-03-30T13:17:42.999Z</time></trkpt><trkpt lat="48.36648949765769" lon="-4.547279484600245"><ele>68.4</ele><time>2026-03-30T13:17:44.999Z</time></trkpt><trkpt lat="48.36650845117537" lon="-4.547134093484001"><ele>69.0</ele><time>2026-03-30T13:17:46.999Z</time></trkpt><trkpt lat="48.366507257591046" lon="-4.54699466161326"><ele>69.25</ele><time>2026-03-30T13:17:48.999Z</time></trkpt><trkpt lat="48.366493921474024" lon="-4.546856232286805"><ele>69.5</ele><time>2026-03-30T13:17:50.999Z</time></trkpt><trkpt lat="48.36642124253964" lon="-4.546652780830887"><ele>69.75</ele><time>2026-03-30T13:17:53.999Z</time></trkpt><trkpt lat="48.36636908478688" lon="-4.546513478122101"><ele>70.0</ele><time>2026-03-30T13:17:55.999Z</time></trkpt><trkpt lat="48.366317621992415" lon="-4.546382983073483"><ele>69.8</ele><time>2026-03-30T13:17:57.999Z</time></trkpt><trkpt lat="48.366294907424695" lon="-4.546279986870803"><ele>69.6</ele><time>2026-03-30T13:17:59.999Z</time></trkpt><trkpt lat="48.366205129532396" lon="-4.546115025171095"><ele>69.4</ele><time>2026-03-30T13:18:01.999Z</time></trkpt><trkpt lat="48.3661462209276" lon="-4.545973227613824"><ele>69.2</ele><time>2026-03-30T13:18:03.999Z</time></trkpt><trkpt lat="48.36607911311124" lon="-4.545833613763702"><ele>69.0</ele><time>2026-03-30T13:18:05.999Z</time></trkpt><trkpt lat="48.36602963247995" lon="-4.545670267694742"><ele>69.0</ele><time>2026-03-30T13:18:08Z</time></trkpt><trkpt lat="48.365956892425075" lon="-4.545538227689002"><ele>69.0</ele><time>2026-03-30T13:18:10Z</time></trkpt><trkpt lat="48.36591439580473" lon="-4.5453886104009475"><ele>69.0</ele><time>2026-03-30T13:18:12Z</time></trkpt><trkpt lat="48.36586754861806" lon="-4.5453191310857255"><ele>69.0</ele><time>2026-03-30T13:18:13Z</time></trkpt><trkpt lat="48.36583290425095" lon="-4.545235082097755"><ele>69.0</ele><time>2026-03-30T13:18:14Z</time></trkpt><trkpt lat="48.36576296857948" lon="-4.545070628896402"><ele>69.0</ele><time>2026-03-30T13:18:16Z</time></trkpt><trkpt lat="48.36573968484468" lon="-4.544974164193433"><ele>69.0</ele><time>2026-03-30T13:18:17Z</time></trkpt><trkpt lat="48.36568553478696" lon="-4.544902223237525"><ele>69.0</ele><time>2026-03-30T13:18:18Z</time></trkpt><trkpt lat="48.36565218416615" lon="-4.544805431780985"><ele>69.0</ele><time>2026-03-30T13:18:19Z</time></trkpt><trkpt lat="48.36560160235687" lon="-4.544717574427139"><ele>69.0</ele><time>2026-03-30T13:18:20Z</time></trkpt><trkpt lat="48.365549883254985" lon="-4.544625185395581"><ele>69.0</ele><time>2026-03-30T13:18:21Z</time></trkpt><trkpt lat="48.36549025870996" lon="-4.544537018517169"><ele>68.5</ele><time>2026-03-30T13:18:22Z</time></trkpt><trkpt lat="48.365429433642525" lon="-4.544477452375312"><ele>68.0</ele><time>2026-03-30T13:18:23Z</time></trkpt><trkpt lat="48.365362795492906" lon="-4.544389347271725"><ele>67.5</ele><time>2026-03-30T13:18:24Z</time></trkpt><trkpt lat="48.36528943853391" lon="-4.5442951306196075"><ele>67.0</ele><time>2026-03-30T13:18:25Z</time></trkpt><trkpt lat="48.36522227388191" lon="-4.544209562334528"><ele>66.5</ele><time>2026-03-30T13:18:26Z</time></trkpt><trkpt lat="48.36515418827781" lon="-4.544122801509855"><ele>66.0</ele><time>2026-03-30T13:18:27Z</time></trkpt><trkpt lat="48.365083363692385" lon="-4.5440315368357345"><ele>66.0</ele><time>2026-03-30T13:18:28Z</time></trkpt><trkpt lat="48.36502046640227" lon="-4.543918778410838"><ele>66.0</ele><time>2026-03-30T13:18:29Z</time></trkpt><trkpt lat="48.364948247583165" lon="-4.543826731811621"><ele>66.0</ele><time>2026-03-30T13:18:30Z</time></trkpt><trkpt lat="48.36486348032002" lon="-4.543749093246723"><ele>66.0</ele><time>2026-03-30T13:18:31Z</time></trkpt><trkpt lat="48.36479472098385" lon="-4.543642103667573"><ele>66.0</ele><time>2026-03-30T13:18:32Z</time></trkpt><trkpt lat="48.364719604885096" lon="-4.543549269831369"><ele>65.8</ele><time>2026-03-30T13:18:33Z</time></trkpt><trkpt lat="48.364644892573125" lon="-4.543455785472978"><ele>65.6</ele><time>2026-03-30T13:18:34Z</time></trkpt><trkpt lat="48.36456549210519" lon="-4.5433666125893035"><ele>65.4</ele><time>2026-03-30T13:18:35Z</time></trkpt><trkpt lat="48.36448442173008" lon="-4.543281937311301"><ele>65.2</ele><time>2026-03-30T13:18:36Z</time></trkpt><trkpt lat="48.36440316672645" lon="-4.543203722518671"><ele>65.0</ele><time>2026-03-30T13:18:37Z</time></trkpt><trkpt lat="48.36432281247894" lon="-4.543129696759263"><ele>65.0</ele><time>2026-03-30T13:18:38Z</time></trkpt><trkpt lat="48.36423873662882" lon="-4.543059289001411"><ele>65.0</ele><time>2026-03-30T13:18:39Z</time></trkpt><trkpt lat="48.36415369235346" lon="-4.542983530310915"><ele>65.0</ele><time>2026-03-30T13:18:40Z</time></trkpt><trkpt lat="48.36407717771589" lon="-4.542896651919334"><ele>65.0</ele><time>2026-03-30T13:18:41Z</time></trkpt><trkpt lat="48.36400399453234" lon="-4.542809225380517"><ele>65.0</ele><time>2026-03-30T13:18:42Z</time></trkpt><trkpt lat="48.363920152335574" lon="-4.54272797136819"><ele>64.8</ele><time>2026-03-30T13:18:43Z</time></trkpt><trkpt lat="48.36384254876264" lon="-4.542643878338037"><ele>64.6</ele><time>2026-03-30T13:18:44Z</time></trkpt><trkpt lat="48.36375891946965" lon="-4.542562224827161"><ele>64.4</ele><time>2026-03-30T13:18:45Z</time></trkpt><trkpt lat="48.36368203472423" lon="-4.542475385696477"><ele>64.2</ele><time>2026-03-30T13:18:46Z</time></trkpt><trkpt lat="48.36361067077412" lon="-4.542380460636045"><ele>64.0</ele><time>2026-03-30T13:18:47Z</time></trkpt><trkpt lat="48.36353204551091" lon="-4.542299306907435"><ele>64.0</ele><time>2026-03-30T13:18:48Z</time></trkpt><trkpt lat="48.36346608946842" lon="-4.542187013340839"><ele>64.0</ele><time>2026-03-30T13:18:49Z</time></trkpt><trkpt lat="48.363391228755106" lon="-4.542091852335352"><ele>64.0</ele><time>2026-03-30T13:18:50Z</time></trkpt><trkpt lat="48.36332839275314" lon="-4.541989961221946"><ele>64.0</ele><time>2026-03-30T13:18:51Z</time></trkpt><trkpt lat="48.363271832297556" lon="-4.541881743449807"><ele>64.0</ele><time>2026-03-30T13:18:52Z</time></trkpt><trkpt lat="48.36321677582338" lon="-4.54177256393654"><ele>63.800000000000004</ele><time>2026-03-30T13:18:53Z</time></trkpt><trkpt lat="48.36315901917786" lon="-4.54165837571137"><ele>63.60000000000001</ele><time>2026-03-30T13:18:54Z</time></trkpt><trkpt lat="48.36310138744974" lon="-4.541543361784163"><ele>63.4</ele><time>2026-03-30T13:18:55Z</time></trkpt><trkpt lat="48.36304447481672" lon="-4.541425420130745"><ele>63.2</ele><time>2026-03-30T13:18:56Z</time></trkpt><trkpt lat="48.36299022893088" lon="-4.541310264016449"><ele>63.0</ele><time>2026-03-30T13:18:57Z</time></trkpt><trkpt lat="48.362941803590076" lon="-4.541189650958745"><ele>62.8</ele><time>2026-03-30T13:18:58Z</time></trkpt><trkpt lat="48.362892212201125" lon="-4.541069836359958"><ele>62.599999999999994</ele><time>2026-03-30T13:18:59Z</time></trkpt><trkpt lat="48.36284094116688" lon="-4.540951842058547"><ele>62.400000000000006</ele><time>2026-03-30T13:19:00Z</time></trkpt><trkpt lat="48.36279095621461" lon="-4.540831754083194"><ele>62.2</ele><time>2026-03-30T13:19:01Z</time></trkpt><trkpt lat="48.36274362344493" lon="-4.540708305797212"><ele>62.0</ele><time>2026-03-30T13:19:02Z</time></trkpt><trkpt lat="48.362685287584505" lon="-4.540581028448379"><ele>62.0</ele><time>2026-03-30T13:19:03Z</time></trkpt><trkpt lat="48.36263329191512" lon="-4.540455006139317"><ele>62.0</ele><time>2026-03-30T13:19:04Z</time></trkpt><trkpt lat="48.36255817612769" lon="-4.540356749100534"><ele>62.0</ele><time>2026-03-30T13:19:05Z</time></trkpt><trkpt lat="48.362494127343744" lon="-4.540229206143601"><ele>62.0</ele><time>2026-03-30T13:19:06Z</time></trkpt><trkpt lat="48.362406084118554" lon="-4.540131233718575"><ele>62.0</ele><time>2026-03-30T13:19:07Z</time></trkpt><trkpt lat="48.362336725499084" lon="-4.540022971637134"><ele>61.8</ele><time>2026-03-30T13:19:08Z</time></trkpt><trkpt lat="48.362257082747576" lon="-4.5399161848488765"><ele>61.6</ele><time>2026-03-30T13:19:09Z</time></trkpt><trkpt lat="48.36219526020196" lon="-4.539793792975447"><ele>61.39999999999999</ele><time>2026-03-30T13:19:10Z</time></trkpt><trkpt lat="48.36214139963602" lon="-4.539659274885762"><ele>61.199999999999996</ele><time>2026-03-30T13:19:11Z</time></trkpt><trkpt lat="48.362107326030404" lon="-4.539508504918249"><ele>61.0</ele><time>2026-03-30T13:19:12Z</time></trkpt><trkpt lat="48.362083086395536" lon="-4.53934901677915"><ele>60.8</ele><time>2026-03-30T13:19:13Z</time></trkpt><trkpt lat="48.36206361789727" lon="-4.539188635976437"><ele>60.599999999999994</ele><time>2026-03-30T13:19:14Z</time></trkpt><trkpt lat="48.36205185538398" lon="-4.539037872124273"><ele>60.4</ele><time>2026-03-30T13:19:14.999Z</time></trkpt><trkpt lat="48.362037805697504" lon="-4.538887453633375"><ele>60.2</ele><time>2026-03-30T13:19:15.999Z</time></trkpt><trkpt lat="48.36201800605863" lon="-4.5387366780261855"><ele>60.0</ele><time>2026-03-30T13:19:16.999Z</time></trkpt><trkpt lat="48.3619967454533" lon="-4.538585426696788"><ele>60.0</ele><time>2026-03-30T13:19:17.999Z</time></trkpt><trkpt lat="48.361974309604506" lon="-4.538438354391828"><ele>60.0</ele><time>2026-03-30T13:19:18.999Z</time></trkpt><trkpt lat="48.36195590395754" lon="-4.5382926033477355"><ele>60.0</ele><time>2026-03-30T13:19:19.999Z</time></trkpt><trkpt lat="48.361925572900375" lon="-4.53814624125849"><ele>60.0</ele><time>2026-03-30T13:19:20.999Z</time></trkpt><trkpt lat="48.36189498987366" lon="-4.53799723759302"><ele>60.0</ele><time>2026-03-30T13:19:21.999Z</time></trkpt><trkpt lat="48.36184393703965" lon="-4.537858275750182"><ele>59.6</ele><time>2026-03-30T13:19:22.999Z</time></trkpt><trkpt lat="48.36178437648424" lon="-4.537727274885528"><ele>59.2</ele><time>2026-03-30T13:19:23.999Z</time></trkpt><trkpt lat="48.36170875053515" lon="-4.537605571843163"><ele>58.8</ele><time>2026-03-30T13:19:24.999Z</time></trkpt><trkpt lat="48.36162936662615" lon="-4.53749113990225"><ele>58.4</ele><time>2026-03-30T13:19:25.999Z</time></trkpt><trkpt lat="48.361559799254884" lon="-4.537359609564891"><ele>58.0</ele><time>2026-03-30T13:19:26.999Z</time></trkpt><trkpt lat="48.36149756346529" lon="-4.537209758774418"><ele>58.0</ele><time>2026-03-30T13:19:27.999Z</time></trkpt><trkpt lat="48.36143308915174" lon="-4.5370601895020215"><ele>58.0</ele><time>2026-03-30T13:19:28.999Z</time></trkpt><trkpt lat="48.36139823768054" lon="-4.536884114793715"><ele>58.0</ele><time>2026-03-30T13:19:29.999Z</time></trkpt><trkpt lat="48.36135526271295" lon="-4.536710265748211"><ele>58.0</ele><time>2026-03-30T13:19:30.999Z</time></trkpt><trkpt lat="48.36131146678126" lon="-4.536528148734372"><ele>56.5</ele><time>2026-03-30T13:19:31.999Z</time></trkpt><trkpt lat="48.36126731834797" lon="-4.536342320533262"><ele>55.0</ele><time>2026-03-30T13:19:32.999Z</time></trkpt><trkpt lat="48.3612199789515" lon="-4.536154071023166"><ele>53.5</ele><time>2026-03-30T13:19:33.999Z</time></trkpt><trkpt lat="48.36117227319079" lon="-4.535967891241845"><ele>52.0</ele><time>2026-03-30T13:19:34.999Z</time></trkpt><trkpt lat="48.361121174853274" lon="-4.535767366213837"><ele>50.75</ele><time>2026-03-30T13:19:35.999Z</time></trkpt><trkpt lat="48.36107503919941" lon="-4.535561415102241"><ele>49.5</ele><time>2026-03-30T13:19:36.999Z</time></trkpt><trkpt lat="48.361024009803" lon="-4.535353531239659"><ele>48.25</ele><time>2026-03-30T13:19:37.999Z</time></trkpt><trkpt lat="48.36097791135291" lon="-4.535134168254587"><ele>47.0</ele><time>2026-03-30T13:19:38.999Z</time></trkpt><trkpt lat="48.36092929386767" lon="-4.534912661503671"><ele>45.666666666666664</ele><time>2026-03-30T13:19:39.999Z</time></trkpt><trkpt lat="48.36086134478286" lon="-4.534690346314301"><ele>44.333333333333336</ele><time>2026-03-30T13:19:40.999Z</time></trkpt><trkpt lat="48.36080634262569" lon="-4.534470115754993"><ele>43.0</ele><time>2026-03-30T13:19:41.999Z</time></trkpt><trkpt lat="48.36075338511778" lon="-4.534239842279356"><ele>41.75</ele><time>2026-03-30T13:19:42.999Z</time></trkpt><trkpt lat="48.360699886984925" lon="-4.5340167560267455"><ele>40.5</ele><time>2026-03-30T13:19:43.999Z</time></trkpt><trkpt lat="48.36065285444835" lon="-4.533801710842164"><ele>39.25</ele><time>2026-03-30T13:19:44.999Z</time></trkpt><trkpt lat="48.36061870482784" lon="-4.533600526508587"><ele>38.0</ele><time>2026-03-30T13:19:45.999Z</time></trkpt><trkpt lat="48.360584320557194" lon="-4.533404182809303"><ele>37.0</ele><time>2026-03-30T13:19:46.999Z</time></trkpt><trkpt lat="48.36059549713593" lon="-4.533211171326906"><ele>36.0</ele><time>2026-03-30T13:19:47.999Z</time></trkpt><trkpt lat="48.3606242764535" lon="-4.533030280693917"><ele>35.0</ele><time>2026-03-30T13:19:48.999Z</time></trkpt><trkpt lat="48.36066389454956" lon="-4.532858708081409"><ele>34.0</ele><time>2026-03-30T13:19:49.999Z</time></trkpt><trkpt lat="48.36073829138717" lon="-4.53272336959209"><ele>31.25</ele><time>2026-03-30T13:19:50.999Z</time></trkpt><trkpt lat="48.3608069390524" lon="-4.532620039047942"><ele>28.5</ele><time>2026-03-30T13:19:51.999Z</time></trkpt><trkpt lat="48.360934507403606" lon="-4.5326016393052555"><ele>25.75</ele><time>2026-03-30T13:19:52.999Z</time></trkpt><trkpt lat="48.36106062295425" lon="-4.532549787537555"><ele>23.0</ele><time>2026-03-30T13:19:53.999Z</time></trkpt><trkpt lat="48.361174248086705" lon="-4.532496199598494"><ele>23.0</ele><time>2026-03-30T13:19:54.999Z</time></trkpt><trkpt lat="48.361302319187054" lon="-4.53243263973437"><ele>23.0</ele><time>2026-03-30T13:19:55.999Z</time></trkpt><trkpt lat="48.36142620621351" lon="-4.532373254649062"><ele>23.0</ele><time>2026-03-30T13:19:56.999Z</time></trkpt><trkpt lat="48.36149571986791" lon="-4.532264059714586"><ele>23.0</ele><time>2026-03-30T13:19:57.999Z</time></trkpt><trkpt lat="48.36158416706774" lon="-4.532150086484258"><ele>22.599999999999998</ele><time>2026-03-30T13:19:58.999Z</time></trkpt><trkpt lat="48.36167564549386" lon="-4.5320448840339385"><ele>22.2</ele><time>2026-03-30T13:19:59.999Z</time></trkpt><trkpt lat="48.36176628830518" lon="-4.531945413669341"><ele>21.8</ele><time>2026-03-30T13:20:00.999Z</time></trkpt><trkpt lat="48.36185377286367" lon="-4.531850813696477"><ele>21.4</ele><time>2026-03-30T13:20:01.999Z</time></trkpt><trkpt lat="48.36194250978428" lon="-4.531756300248509"><ele>21.0</ele><time>2026-03-30T13:20:02.999Z</time></trkpt><trkpt lat="48.36204555832383" lon="-4.531646806632521"><ele>21.0</ele><time>2026-03-30T13:20:03.999Z</time></trkpt><trkpt lat="48.362134320451396" lon="-4.531555242993003"><ele>21.0</ele><time>2026-03-30T13:20:04.999Z</time></trkpt><trkpt lat="48.36222969173011" lon="-4.531487420318607"><ele>21.0</ele><time>2026-03-30T13:20:05.999Z</time></trkpt><trkpt lat="48.36231567681115" lon="-4.53139731915968"><ele>21.0</ele><time>2026-03-30T13:20:06.999Z</time></trkpt><trkpt lat="48.36241504297389" lon="-4.531323947221087"><ele>21.0</ele><time>2026-03-30T13:20:07.999Z</time></trkpt><trkpt lat="48.36250402088164" lon="-4.531249266132736"><ele>20.166666666666668</ele><time>2026-03-30T13:20:08.999Z</time></trkpt><trkpt lat="48.36256655093446" lon="-4.5311705770899735"><ele>19.333333333333332</ele><time>2026-03-30T13:20:09.999Z</time></trkpt><trkpt lat="48.3626264683033" lon="-4.531108389963505"><ele>18.5</ele><time>2026-03-30T13:20:10.999Z</time></trkpt><trkpt lat="48.362684831845634" lon="-4.530959001663203"><ele>17.666666666666664</ele><time>2026-03-30T13:20:13Z</time></trkpt><trkpt lat="48.362741583256344" lon="-4.530861281290844"><ele>16.833333333333332</ele><time>2026-03-30T13:20:15Z</time></trkpt><trkpt lat="48.36280845055808" lon="-4.530765449552591"><ele>16.0</ele><time>2026-03-30T13:20:19Z</time></trkpt><trkpt lat="48.362868404843" lon="-4.5307097440011646"><ele>15.999999999999998</ele><time>2026-03-30T13:20:21Z</time></trkpt><trkpt lat="48.36294066577411" lon="-4.530651623981478"><ele>16.0</ele><time>2026-03-30T13:20:24Z</time></trkpt><trkpt lat="48.36302951064915" lon="-4.530606410941571"><ele>16.0</ele><time>2026-03-30T13:20:27Z</time></trkpt><trkpt lat="48.363095643644336" lon="-4.5305778657944185"><ele>16.0</ele><time>2026-03-30T13:20:29Z</time></trkpt><trkpt lat="48.36316147484448" lon="-4.5306626682124165"><ele>15.999999999999998</ele><time>2026-03-30T13:22:25Z</time></trkpt><trkpt lat="48.363228995919656" lon="-4.530738311219149"><ele>16.0</ele><time>2026-03-30T13:22:27Z</time></trkpt><trkpt lat="48.36333250136579" lon="-4.530768228980722"><ele>15.999999999999998</ele><time>2026-03-30T13:22:29Z</time></trkpt><trkpt lat="48.363404009484526" lon="-4.530777814812587"><ele>16.0</ele><time>2026-03-30T13:22:30Z</time></trkpt><trkpt lat="48.363480282663744" lon="-4.530791168364915"><ele>16.0</ele><time>2026-03-30T13:22:31Z</time></trkpt><trkpt lat="48.36356379024742" lon="-4.530812919606293"><ele>16.0</ele><time>2026-03-30T13:22:32Z</time></trkpt><trkpt lat="48.363647648207255" lon="-4.530838277517968"><ele>15.999999999999998</ele><time>2026-03-30T13:22:33Z</time></trkpt><trkpt lat="48.36372921110718" lon="-4.530852219183357"><ele>16.0</ele><time>2026-03-30T13:22:34Z</time></trkpt><trkpt lat="48.36381145401871" lon="-4.530844780766545"><ele>15.499999999999998</ele><time>2026-03-30T13:22:35Z</time></trkpt><trkpt lat="48.36388490367276" lon="-4.53081894592031"><ele>15.0</ele><time>2026-03-30T13:22:36Z</time></trkpt><trkpt lat="48.363956906940345" lon="-4.530789919905805"><ele>14.5</ele><time>2026-03-30T13:22:37Z</time></trkpt><trkpt lat="48.36402002895564" lon="-4.530748892710596"><ele>14.0</ele><time>2026-03-30T13:22:38Z</time></trkpt><trkpt lat="48.36407350964559" lon="-4.530688407817293"><ele>13.499999999999998</ele><time>2026-03-30T13:22:39Z</time></trkpt><trkpt lat="48.36412167067693" lon="-4.530528668018762"><ele>13.0</ele><time>2026-03-30T13:22:41Z</time></trkpt><trkpt lat="48.36413546007136" lon="-4.530430077376121"><ele>13.499999999999998</ele><time>2026-03-30T13:22:43Z</time></trkpt><trkpt lat="48.36412852160847" lon="-4.5303135730175175"><ele>14.0</ele><time>2026-03-30T13:22:46Z</time></trkpt><trkpt lat="48.36409686126879" lon="-4.530195208134597"><ele>14.5</ele><time>2026-03-30T13:22:48Z</time></trkpt><trkpt lat="48.36406575236777" lon="-4.530068612863383"><ele>15.0</ele><time>2026-03-30T13:22:50Z</time></trkpt><trkpt lat="48.364036916818975" lon="-4.529931272251177"><ele>15.499999999999998</ele><time>2026-03-30T13:22:52Z</time></trkpt><trkpt lat="48.364044235337154" lon="-4.529790577188063"><ele>16.0</ele><time>2026-03-30T13:22:55Z</time></trkpt><trkpt lat="48.36404938784353" lon="-4.529598904721893"><ele>16.0</ele><time>2026-03-30T13:22:58Z</time></trkpt><trkpt lat="48.36408267684061" lon="-4.529424905014429"><ele>16.0</ele><time>2026-03-30T13:22:59Z</time></trkpt><trkpt lat="48.36410420813882" lon="-4.52925451686435"><ele>16.0</ele><time>2026-03-30T13:23:01Z</time></trkpt><trkpt lat="48.36416349337856" lon="-4.529098358462511"><ele>16.0</ele><time>2026-03-30T13:23:03Z</time></trkpt><trkpt lat="48.36423922698416" lon="-4.528971984741675"><ele>16.0</ele><time>2026-03-30T13:23:05Z</time></trkpt><trkpt lat="48.36430189261022" lon="-4.5288406262627765"><ele>16.0</ele><time>2026-03-30T13:23:07Z</time></trkpt><trkpt lat="48.36436915562866" lon="-4.528701141058578"><ele>16.0</ele><time>2026-03-30T13:23:09Z</time></trkpt><trkpt lat="48.36441999528334" lon="-4.528558733284809"><ele>16.0</ele><time>2026-03-30T13:23:11Z</time></trkpt><trkpt lat="48.36448274536579" lon="-4.528431436506104"><ele>16.0</ele><time>2026-03-30T13:23:13Z</time></trkpt><trkpt lat="48.364562773689194" lon="-4.528315479210958"><ele>16.400000000000002</ele><time>2026-03-30T13:23:15Z</time></trkpt><trkpt lat="48.36463066004359" lon="-4.52817393945592"><ele>16.8</ele><time>2026-03-30T13:23:17Z</time></trkpt><trkpt lat="48.36468466919594" lon="-4.528052411633152"><ele>17.200000000000003</ele><time>2026-03-30T13:23:19Z</time></trkpt><trkpt lat="48.36476337463079" lon="-4.527926583756066"><ele>17.6</ele><time>2026-03-30T13:23:21Z</time></trkpt><trkpt lat="48.364827041667105" lon="-4.5278133203147055"><ele>18.0</ele><time>2026-03-30T13:23:23Z</time></trkpt><trkpt lat="48.364897701692485" lon="-4.5277036141141345"><ele>18.0</ele><time>2026-03-30T13:23:25Z</time></trkpt><trkpt lat="48.364967036538026" lon="-4.527595946155817"><ele>18.0</ele><time>2026-03-30T13:23:26.999Z</time></trkpt><trkpt lat="48.365018163624995" lon="-4.527468871574151"><ele>18.0</ele><time>2026-03-30T13:23:28.999Z</time></trkpt><trkpt lat="48.365071865508654" lon="-4.527334485803661"><ele>18.0</ele><time>2026-03-30T13:23:30.999Z</time></trkpt><trkpt lat="48.365147999337225" lon="-4.527199599910233"><ele>18.0</ele><time>2026-03-30T13:23:32.999Z</time></trkpt><trkpt lat="48.36523039986887" lon="-4.5270920265808945"><ele>18.4</ele><time>2026-03-30T13:23:34.999Z</time></trkpt><trkpt lat="48.365263120181126" lon="-4.52700552143036"><ele>18.8</ele><time>2026-03-30T13:23:35.999Z</time></trkpt><trkpt lat="48.36535276848149" lon="-4.526886454206764"><ele>19.2</ele><time>2026-03-30T13:23:37.999Z</time></trkpt><trkpt lat="48.36543454754975" lon="-4.526764307309911"><ele>19.6</ele><time>2026-03-30T13:23:39.999Z</time></trkpt><trkpt lat="48.36550942514896" lon="-4.526637462050334"><ele>20.0</ele><time>2026-03-30T13:23:41.999Z</time></trkpt><trkpt lat="48.365595222552706" lon="-4.526518637943212"><ele>20.0</ele><time>2026-03-30T13:23:43.999Z</time></trkpt><trkpt lat="48.36564993095587" lon="-4.526383236127995"><ele>20.0</ele><time>2026-03-30T13:23:45.999Z</time></trkpt><trkpt lat="48.36573471743826" lon="-4.526236665352863"><ele>20.0</ele><time>2026-03-30T13:23:47.999Z</time></trkpt><trkpt lat="48.36578751044678" lon="-4.526155982623479"><ele>20.0</ele><time>2026-03-30T13:23:48.999Z</time></trkpt><trkpt lat="48.36584537872028" lon="-4.526078528766822"><ele>20.0</ele><time>2026-03-30T13:23:49.999Z</time></trkpt><trkpt lat="48.36590827377028" lon="-4.526033527027805"><ele>18.666666666666668</ele><time>2026-03-30T13:23:50.999Z</time></trkpt><trkpt lat="48.365999370247756" lon="-4.525926944895342"><ele>17.333333333333336</ele><time>2026-03-30T13:23:52.999Z</time></trkpt><trkpt lat="48.36605156140242" lon="-4.525841069333585"><ele>16.0</ele><time>2026-03-30T13:23:54.999Z</time></trkpt><trkpt lat="48.36610898287008" lon="-4.525761084154314"><ele>14.666666666666668</ele><time>2026-03-30T13:23:58.999Z</time></trkpt><trkpt lat="48.36615732644609" lon="-4.52582870647719"><ele>13.333333333333334</ele><time>2026-03-30T13:23:59.999Z</time></trkpt><trkpt lat="48.366195511128645" lon="-4.5259387278251255"><ele>12.0</ele><time>2026-03-30T13:24:01.999Z</time></trkpt><trkpt lat="48.3662474090924" lon="-4.526042881986207"><ele>12.0</ele><time>2026-03-30T13:24:03.999Z</time></trkpt><trkpt lat="48.366308617251605" lon="-4.526169244771528"><ele>12.0</ele><time>2026-03-30T13:24:05.999Z</time></trkpt><trkpt lat="48.366376380528095" lon="-4.526283416572554"><ele>12.0</ele><time>2026-03-30T13:24:07.999Z</time></trkpt><trkpt lat="48.366444495249674" lon="-4.526415523858035"><ele>12.0</ele><time>2026-03-30T13:24:09.999Z</time></trkpt><trkpt lat="48.36651582288446" lon="-4.526556216124805"><ele>12.0</ele><time>2026-03-30T13:24:11.999Z</time></trkpt><trkpt lat="48.36658663521098" lon="-4.5266935122394525"><ele>14.25</ele><time>2026-03-30T13:24:13.999Z</time></trkpt><trkpt lat="48.366651761562984" lon="-4.52684576325035"><ele>16.5</ele><time>2026-03-30T13:24:15.999Z</time></trkpt><trkpt lat="48.36672332593947" lon="-4.526987620774424"><ele>18.75</ele><time>2026-03-30T13:24:17.999Z</time></trkpt><trkpt lat="48.36679911142793" lon="-4.527121581955002"><ele>21.0</ele><time>2026-03-30T13:24:19.999Z</time></trkpt><trkpt lat="48.36686020878101" lon="-4.527239608902161"><ele>22.8</ele><time>2026-03-30T13:24:21.999Z</time></trkpt><trkpt lat="48.36690924190742" lon="-4.527369466957677"><ele>24.6</ele><time>2026-03-30T13:24:23.999Z</time></trkpt><trkpt lat="48.36693742763724" lon="-4.527524572273622"><ele>26.4</ele><time>2026-03-30T13:24:26Z</time></trkpt><trkpt lat="48.36696486567781" lon="-4.5276699435750345"><ele>28.2</ele><time>2026-03-30T13:24:28Z</time></trkpt><trkpt lat="48.36696996685717" lon="-4.527803565946393"><ele>30.0</ele><time>2026-03-30T13:24:30Z</time></trkpt><trkpt lat="48.366976050206766" lon="-4.527930958623178"><ele>30.833333333333332</ele><time>2026-03-30T13:24:32Z</time></trkpt><trkpt lat="48.36696160998721" lon="-4.528080521217013"><ele>31.666666666666664</ele><time>2026-03-30T13:24:34Z</time></trkpt><trkpt lat="48.36697885825405" lon="-4.528182709051233"><ele>32.5</ele><time>2026-03-30T13:24:37Z</time></trkpt><trkpt lat="48.36696744155645" lon="-4.528285972652443"><ele>33.33333333333333</ele><time>2026-03-30T13:24:40Z</time></trkpt><trkpt lat="48.366966743681175" lon="-4.528389737811595"><ele>34.166666666666664</ele><time>2026-03-30T13:24:42Z</time></trkpt><trkpt lat="48.36698298156856" lon="-4.528501418740156"><ele>35.0</ele><time>2026-03-30T13:24:44Z</time></trkpt><trkpt lat="48.36698731560044" lon="-4.528636673042443"><ele>35.166666666666664</ele><time>2026-03-30T13:24:47Z</time></trkpt><trkpt lat="48.367016006767976" lon="-4.528735700029213"><ele>35.33333333333333</ele><time>2026-03-30T13:24:49Z</time></trkpt><trkpt lat="48.367044030048596" lon="-4.528837372117629"><ele>35.5</ele><time>2026-03-30T13:24:51Z</time></trkpt><trkpt lat="48.367094699214796" lon="-4.528918543402104"><ele>35.666666666666664</ele><time>2026-03-30T13:24:53Z</time></trkpt><trkpt lat="48.36714113302873" lon="-4.528993760341189"><ele>35.833333333333336</ele><time>2026-03-30T13:24:55Z</time></trkpt><trkpt lat="48.3671824957963" lon="-4.5290779447098055"><ele>36.0</ele><time>2026-03-30T13:24:57Z</time></trkpt><trkpt lat="48.36724572043801" lon="-4.529212646531794"><ele>36.0</ele><time>2026-03-30T13:25:00Z</time></trkpt><trkpt lat="48.367301353892536" lon="-4.529307549279123"><ele>36.0</ele><time>2026-03-30T13:25:02Z</time></trkpt><trkpt lat="48.36736288706904" lon="-4.529389231559005"><ele>36.0</ele><time>2026-03-30T13:25:05Z</time></trkpt><trkpt lat="48.36741223034904" lon="-4.529456705542086"><ele>36.0</ele><time>2026-03-30T13:25:07Z</time></trkpt><trkpt lat="48.367488277026325" lon="-4.529515021103401"><ele>36.0</ele><time>2026-03-30T13:25:09Z</time></trkpt><trkpt lat="48.36754668357278" lon="-4.529557858279854"><ele>36.0</ele><time>2026-03-30T13:25:10Z</time></trkpt><trkpt lat="48.36765151162813" lon="-4.529629516340246"><ele>36.25</ele><time>2026-03-30T13:25:12Z</time></trkpt><trkpt lat="48.36776769029827" lon="-4.529682497594429"><ele>36.5</ele><time>2026-03-30T13:25:14Z</time></trkpt><trkpt lat="48.367880936185294" lon="-4.5297328700907125"><ele>36.75</ele><time>2026-03-30T13:25:16Z</time></trkpt><trkpt lat="48.367981051457264" lon="-4.5297706267991495"><ele>37.0</ele><time>2026-03-30T13:25:18Z</time></trkpt><trkpt lat="48.36810138103341" lon="-4.529814381239018"><ele>37.0</ele><time>2026-03-30T13:25:20Z</time></trkpt><trkpt lat="48.36821345168298" lon="-4.5298430322768"><ele>37.0</ele><time>2026-03-30T13:25:24Z</time></trkpt><trkpt lat="48.36832778301836" lon="-4.529890268219968"><ele>37.0</ele><time>2026-03-30T13:25:26Z</time></trkpt><trkpt lat="48.368435723861595" lon="-4.529925057475969"><ele>37.0</ele><time>2026-03-30T13:25:28Z</time></trkpt><trkpt lat="48.36853420091128" lon="-4.529959035951567"><ele>37.0</ele><time>2026-03-30T13:25:30Z</time></trkpt><trkpt lat="48.368611975609845" lon="-4.530005941563805"><ele>37.0</ele><time>2026-03-30T13:25:33Z</time></trkpt><trkpt lat="48.36869716355592" lon="-4.530042870152158"><ele>37.0</ele><time>2026-03-30T13:25:35.999Z</time></trkpt><trkpt lat="48.36878523086174" lon="-4.530091380917432"><ele>37.0</ele><time>2026-03-30T13:25:38.999Z</time></trkpt><trkpt lat="48.36886835469033" lon="-4.530120098859222"><ele>37.0</ele><time>2026-03-30T13:25:39.999Z</time></trkpt><trkpt lat="48.368969796265624" lon="-4.5301416384461675"><ele>37.0</ele><time>2026-03-30T13:25:41.999Z</time></trkpt><trkpt lat="48.369058658020826" lon="-4.530181357072846"><ele>37.66666666666667</ele><time>2026-03-30T13:25:43.999Z</time></trkpt><trkpt lat="48.36915613843811" lon="-4.530197272900391"><ele>38.333333333333336</ele><time>2026-03-30T13:25:45.999Z</time></trkpt><trkpt lat="48.36921878535013" lon="-4.53023478174547"><ele>39.0</ele><time>2026-03-30T13:25:47.999Z</time></trkpt><trkpt lat="48.369295330120075" lon="-4.530280751615614"><ele>39.666666666666664</ele><time>2026-03-30T13:25:49.999Z</time></trkpt><trkpt lat="48.36937437740335" lon="-4.530328499664178"><ele>40.33333333333333</ele><time>2026-03-30T13:25:51.999Z</time></trkpt><trkpt lat="48.36945657874931" lon="-4.530393749823461"><ele>41.0</ele><time>2026-03-30T13:25:53.999Z</time></trkpt><trkpt lat="48.36957320030677" lon="-4.5304275100756195"><ele>41.166666666666664</ele><time>2026-03-30T13:25:54.999Z</time></trkpt><trkpt lat="48.36963911704746" lon="-4.5304893477576265"><ele>41.33333333333333</ele><time>2026-03-30T13:25:56.999Z</time></trkpt><trkpt lat="48.36970126691501" lon="-4.530561852989873"><ele>41.5</ele><time>2026-03-30T13:25:58.999Z</time></trkpt><trkpt lat="48.3697624680321" lon="-4.530649506201212"><ele>41.666666666666664</ele><time>2026-03-30T13:26:00.999Z</time></trkpt><trkpt lat="48.36981530001255" lon="-4.530730329469945"><ele>41.833333333333336</ele><time>2026-03-30T13:26:02.999Z</time></trkpt><trkpt lat="48.369871745054354" lon="-4.53082298336508"><ele>42.0</ele><time>2026-03-30T13:26:04.999Z</time></trkpt><trkpt lat="48.369922098832866" lon="-4.5309145660436085"><ele>42.333333333333336</ele><time>2026-03-30T13:26:06.999Z</time></trkpt><trkpt lat="48.36997753085986" lon="-4.531004080546154"><ele>42.666666666666664</ele><time>2026-03-30T13:26:08.999Z</time></trkpt><trkpt lat="48.370032375884136" lon="-4.531075673940491"><ele>43.0</ele><time>2026-03-30T13:26:10.999Z</time></trkpt><trkpt lat="48.37010729431089" lon="-4.531117973324517"><ele>43.33333333333333</ele><time>2026-03-30T13:26:12.999Z</time></trkpt><trkpt lat="48.37016829849312" lon="-4.5311997849058265"><ele>43.666666666666664</ele><time>2026-03-30T13:26:14.999Z</time></trkpt><trkpt lat="48.37020571503881" lon="-4.531320495332641"><ele>44.0</ele><time>2026-03-30T13:26:17.999Z</time></trkpt><trkpt lat="48.37029225507399" lon="-4.531368850210629"><ele>44.0</ele><time>2026-03-30T13:26:20.999Z</time></trkpt><trkpt lat="48.37036865190619" lon="-4.531424635698546"><ele>44.0</ele><time>2026-03-30T13:26:22.999Z</time></trkpt><trkpt lat="48.37044537442913" lon="-4.531471146689012"><ele>44.0</ele><time>2026-03-30T13:26:24.999Z</time></trkpt><trkpt lat="48.37055228373863" lon="-4.531493103183767"><ele>44.0</ele><time>2026-03-30T13:26:26.999Z</time></trkpt><trkpt lat="48.370647194217156" lon="-4.531507111732507"><ele>44.0</ele><time>2026-03-30T13:26:28.999Z</time></trkpt><trkpt lat="48.37073264635278" lon="-4.531529995175979"><ele>43.25</ele><time>2026-03-30T13:26:31Z</time></trkpt><trkpt lat="48.370835517415756" lon="-4.53152964685063"><ele>42.5</ele><time>2026-03-30T13:26:33Z</time></trkpt><trkpt lat="48.37092234967337" lon="-4.531531000312235"><ele>41.75</ele><time>2026-03-30T13:26:35Z</time></trkpt><trkpt lat="48.37110068858227" lon="-4.531537949679593"><ele>41.0</ele><time>2026-03-30T13:26:39Z</time></trkpt><trkpt lat="48.37119143200242" lon="-4.531536547226159"><ele>41.0</ele><time>2026-03-30T13:26:41Z</time></trkpt><trkpt lat="48.371278394364026" lon="-4.531527813217882"><ele>41.0</ele><time>2026-03-30T13:26:43Z</time></trkpt><trkpt lat="48.37135228587714" lon="-4.531491741931159"><ele>41.0</ele><time>2026-03-30T13:26:45Z</time></trkpt><trkpt lat="48.371417917896366" lon="-4.531471123952191"><ele>41.0</ele><time>2026-03-30T13:26:47Z</time></trkpt><trkpt lat="48.37153160272782" lon="-4.531442560211343"><ele>41.0</ele><time>2026-03-30T13:26:50Z</time></trkpt><trkpt lat="48.37161308712671" lon="-4.5314203920827145"><ele>41.0</ele><time>2026-03-30T13:26:52Z</time></trkpt><trkpt lat="48.37168452942043" lon="-4.5313900215119425"><ele>42.0</ele><time>2026-03-30T13:26:54Z</time></trkpt><trkpt lat="48.37177283688906" lon="-4.531369003300813"><ele>43.0</ele><time>2026-03-30T13:26:56Z</time></trkpt><trkpt lat="48.37185093356527" lon="-4.5313495008799896"><ele>44.0</ele><time>2026-03-30T13:26:58Z</time></trkpt><trkpt lat="48.371929431008944" lon="-4.531322101161798"><ele>45.0</ele><time>2026-03-30T13:27:00Z</time></trkpt><trkpt lat="48.37199979412842" lon="-4.53129816086789"><ele>46.0</ele><time>2026-03-30T13:27:02Z</time></trkpt><trkpt lat="48.37206965898953" lon="-4.531267289192822"><ele>47.0</ele><time>2026-03-30T13:27:04Z</time></trkpt><trkpt lat="48.372143327892424" lon="-4.53124682078888"><ele>48.33333333333333</ele><time>2026-03-30T13:27:07Z</time></trkpt><trkpt lat="48.37219523856698" lon="-4.531188236184627"><ele>49.666666666666664</ele><time>2026-03-30T13:27:09Z</time></trkpt><trkpt lat="48.37225914039399" lon="-4.531196528758199"><ele>51.0</ele><time>2026-03-30T13:27:12Z</time></trkpt><trkpt lat="48.3723367987035" lon="-4.531195887206098"><ele>52.33333333333333</ele><time>2026-03-30T13:27:15Z</time></trkpt><trkpt lat="48.37244183201521" lon="-4.531191256381221"><ele>53.666666666666664</ele><time>2026-03-30T13:27:18Z</time></trkpt><trkpt lat="48.37252490130018" lon="-4.531195103788817"><ele>55.0</ele><time>2026-03-30T13:27:21Z</time></trkpt><trkpt lat="48.37259835099222" lon="-4.531210864248333"><ele>54.99999999999999</ele><time>2026-03-30T13:27:23Z</time></trkpt><trkpt lat="48.372680741490036" lon="-4.531210847400451"><ele>55.0</ele><time>2026-03-30T13:27:26Z</time></trkpt><trkpt lat="48.37276418506615" lon="-4.531209445084817"><ele>55.0</ele><time>2026-03-30T13:27:29Z</time></trkpt><trkpt lat="48.37283417764662" lon="-4.5312190781962185"><ele>55.0</ele><time>2026-03-30T13:27:31Z</time></trkpt><trkpt lat="48.372897571711796" lon="-4.531214770094282"><ele>54.99999999999999</ele><time>2026-03-30T13:27:32Z</time></trkpt><trkpt lat="48.372981801344835" lon="-4.531206046724754"><ele>55.0</ele><time>2026-03-30T13:27:34Z</time></trkpt><trkpt lat="48.37306275683148" lon="-4.53119350611793"><ele>55.33333333333333</ele><time>2026-03-30T13:27:36Z</time></trkpt><trkpt lat="48.373146132266974" lon="-4.531182638968438"><ele>55.666666666666664</ele><time>2026-03-30T13:27:38Z</time></trkpt><trkpt lat="48.37323035218225" lon="-4.531160518487602"><ele>56.0</ele><time>2026-03-30T13:27:40Z</time></trkpt><trkpt lat="48.3733081317928" lon="-4.531163247462884"><ele>56.33333333333333</ele><time>2026-03-30T13:27:42Z</time></trkpt><trkpt lat="48.37339055102451" lon="-4.531180217472086"><ele>56.666666666666664</ele><time>2026-03-30T13:27:45.999Z</time></trkpt><trkpt lat="48.37348572177853" lon="-4.531202153291924"><ele>57.0</ele><time>2026-03-30T13:27:48.999Z</time></trkpt><trkpt lat="48.3735648024149" lon="-4.531201952087394"><ele>57.0</ele><time>2026-03-30T13:27:51.999Z</time></trkpt><trkpt lat="48.373650139223194" lon="-4.53120839188429"><ele>57.0</ele><time>2026-03-30T13:27:54.999Z</time></trkpt><trkpt lat="48.373716645616945" lon="-4.531239240799396"><ele>57.0</ele><time>2026-03-30T13:27:57.999Z</time></trkpt><trkpt lat="48.37381575424834" lon="-4.531232328185735"><ele>57.0</ele><time>2026-03-30T13:27:59.999Z</time></trkpt><trkpt lat="48.373913068911584" lon="-4.53122552556409"><ele>57.0</ele><time>2026-03-30T13:28:01.999Z</time></trkpt><trkpt lat="48.37399735895311" lon="-4.531222244968513"><ele>57.0</ele><time>2026-03-30T13:28:03.999Z</time></trkpt><trkpt lat="48.37408407955678" lon="-4.531243283839587"><ele>57.0</ele><time>2026-03-30T13:28:06.999Z</time></trkpt><trkpt lat="48.37415337957468" lon="-4.531221338880515"><ele>56.99999999999999</ele><time>2026-03-30T13:28:09.999Z</time></trkpt><trkpt lat="48.37413992341654" lon="-4.531126506322199"><ele>57.0</ele><time>2026-03-30T13:28:11.999Z</time></trkpt><trkpt lat="48.37406869039307" lon="-4.531117910914858"><ele>57.0</ele><time>2026-03-30T13:28:13.999Z</time></trkpt><trkpt lat="48.37399580751199" lon="-4.53107085946217"><ele>56.99999999999999</ele><time>2026-03-30T13:28:15.999Z</time></trkpt><trkpt lat="48.373914919180706" lon="-4.531024973553713"><ele>57.0</ele><time>2026-03-30T13:28:17.999Z</time></trkpt><trkpt lat="48.373842143958846" lon="-4.530991860584839"><ele>57.0</ele><time>2026-03-30T13:28:19.999Z</time></trkpt><trkpt lat="48.37376668371298" lon="-4.530962473272652"><ele>57.0</ele><time>2026-03-30T13:28:21.999Z</time></trkpt><trkpt lat="48.37369019072163" lon="-4.530936510223061"><ele>57.0</ele><time>2026-03-30T13:28:23.999Z</time></trkpt><trkpt lat="48.37362467889134" lon="-4.530894863661937"><ele>57.0</ele><time>2026-03-30T13:28:27.999Z</time></trkpt><trkpt lat="48.37353861062863" lon="-4.530853838135102"><ele>57.0</ele><time>2026-03-30T13:28:30.999Z</time></trkpt><trkpt lat="48.373450698904925" lon="-4.530837058630194"><ele>57.0</ele><time>2026-03-30T13:28:32.999Z</time></trkpt><trkpt lat="48.373370239496225" lon="-4.530801922345796"><ele>57.0</ele><time>2026-03-30T13:28:34.999Z</time></trkpt><trkpt lat="48.373289476124285" lon="-4.530788954519854"><ele>57.0</ele><time>2026-03-30T13:28:37Z</time></trkpt><trkpt lat="48.37322562177562" lon="-4.530747987523606"><ele>56.99999999999999</ele><time>2026-03-30T13:28:39Z</time></trkpt><trkpt lat="48.37319783066812" lon="-4.53064994235327"><ele>57.0</ele><time>2026-03-30T13:28:41Z</time></trkpt><trkpt lat="48.373210894063924" lon="-4.530537372852965"><ele>57.0</ele><time>2026-03-30T13:28:44Z</time></trkpt><trkpt lat="48.373225619033576" lon="-4.530439225041957"><ele>56.99999999999999</ele><time>2026-03-30T13:28:47Z</time></trkpt><trkpt lat="48.37324275144299" lon="-4.5303458978863365"><ele>57.0</ele><time>2026-03-30T13:28:49Z</time></trkpt><trkpt lat="48.37323113712436" lon="-4.530250246153889"><ele>57.0</ele><time>2026-03-30T13:28:51Z</time></trkpt><trkpt lat="48.37322225138845" lon="-4.530134435746674"><ele>58.5</ele><time>2026-03-30T13:28:54Z</time></trkpt><trkpt lat="48.37320632190605" lon="-4.530031586163838"><ele>60.0</ele><time>2026-03-30T13:28:57Z</time></trkpt><trkpt lat="48.373203131303505" lon="-4.529919343170798"><ele>61.5</ele><time>2026-03-30T13:29:00Z</time></trkpt><trkpt lat="48.3732016719044" lon="-4.529803699144501"><ele>63.0</ele><time>2026-03-30T13:29:03Z</time></trkpt><trkpt lat="48.37321212228978" lon="-4.529678202537031"><ele>64.5</ele><time>2026-03-30T13:29:06Z</time></trkpt><trkpt lat="48.37321882148743" lon="-4.529559842221766"><ele>66.0</ele><time>2026-03-30T13:29:09Z</time></trkpt><trkpt lat="48.37323407212934" lon="-4.529440255810666"><ele>66.0</ele><time>2026-03-30T13:29:12Z</time></trkpt><trkpt lat="48.37325285036429" lon="-4.529338015979761"><ele>66.0</ele><time>2026-03-30T13:29:15Z</time></trkpt><trkpt lat="48.3732779258035" lon="-4.529241153470916"><ele>66.0</ele><time>2026-03-30T13:29:18Z</time></trkpt><trkpt lat="48.373263527531584" lon="-4.529117950553882"><ele>66.0</ele><time>2026-03-30T13:29:21Z</time></trkpt><trkpt lat="48.373195229877986" lon="-4.529066651969925"><ele>66.0</ele><time>2026-03-30T13:29:23Z</time></trkpt><trkpt lat="48.3731364601238" lon="-4.529002582602061"><ele>66.0</ele><time>2026-03-30T13:29:26Z</time></trkpt><trkpt lat="48.373066934735" lon="-4.52896466868459"><ele>66.0</ele><time>2026-03-30T13:29:30Z</time></trkpt><trkpt lat="48.37299928916159" lon="-4.528925378901097"><ele>66.0</ele><time>2026-03-30T13:29:32Z</time></trkpt><trkpt lat="48.37297177151105" lon="-4.528828157905091"><ele>66.0</ele><time>2026-03-30T13:29:35Z</time></trkpt><trkpt lat="48.37289143268357" lon="-4.528783951618106"><ele>66.0</ele><time>2026-03-30T13:29:40Z</time></trkpt><trkpt lat="48.37282534760165" lon="-4.528759999801499"><ele>66.0</ele><time>2026-03-30T13:29:45Z</time></trkpt><trkpt lat="48.372756041398695" lon="-4.528756361273059"><ele>66.0</ele><time>2026-03-30T13:29:50.999Z</time></trkpt><trkpt lat="48.372820982503605" lon="-4.528785851223296"><ele>66.0</ele><time>2026-03-30T13:29:59.999Z</time></trkpt><trkpt lat="48.372747571357664" lon="-4.528776668854747"><ele>66.0</ele><time>2026-03-30T13:30:03.999Z</time></trkpt><trkpt lat="48.372679868068566" lon="-4.52873543375718"><ele>66.0</ele><time>2026-03-30T13:30:19.999Z</time></trkpt><trkpt lat="48.37261380655761" lon="-4.528712194817672"><ele>66.0</ele><time>2026-03-30T13:30:22.999Z</time></trkpt><trkpt lat="48.372535794480655" lon="-4.528686494658209"><ele>66.0</ele><time>2026-03-30T13:30:26.999Z</time></trkpt><trkpt lat="48.37246687628442" lon="-4.528638453068558"><ele>66.0</ele><time>2026-03-30T13:30:30.999Z</time></trkpt><trkpt lat="48.37238098592186" lon="-4.528578066271743"><ele>66.0</ele><time>2026-03-30T13:30:33.999Z</time></trkpt><trkpt lat="48.372264460902585" lon="-4.528543314638255"><ele>66.0</ele><time>2026-03-30T13:30:35.999Z</time></trkpt><trkpt lat="48.37218956547555" lon="-4.528530457942093"><ele>66.0</ele><time>2026-03-30T13:30:36.999Z</time></trkpt><trkpt lat="48.37212341436608" lon="-4.528491594353649"><ele>66.0</ele><time>2026-03-30T13:30:37.999Z</time></trkpt><trkpt lat="48.37201709175132" lon="-4.528417397817557"><ele>66.0</ele><time>2026-03-30T13:30:39.999Z</time></trkpt><trkpt lat="48.37190661321027" lon="-4.528439679963365"><ele>66.0</ele><time>2026-03-30T13:30:41.999Z</time></trkpt><trkpt lat="48.37185725129742" lon="-4.528504645386947"><ele>66.0</ele><time>2026-03-30T13:30:43Z</time></trkpt><trkpt lat="48.371805098042735" lon="-4.528568573081036"><ele>66.0</ele><time>2026-03-30T13:30:44Z</time></trkpt><trkpt lat="48.37173671008168" lon="-4.528588345990531"><ele>66.0</ele><time>2026-03-30T13:30:45Z</time></trkpt><trkpt lat="48.37162699646039" lon="-4.528550509744012"><ele>66.0</ele><time>2026-03-30T13:30:47Z</time></trkpt><trkpt lat="48.37153579311098" lon="-4.52834182194159"><ele>66.0</ele><time>2026-03-30T13:30:49Z</time></trkpt><trkpt lat="48.371555184368546" lon="-4.528212658457154"><ele>66.0</ele><time>2026-03-30T13:30:51Z</time></trkpt><trkpt lat="48.37158962582802" lon="-4.528098115193084"><ele>66.0</ele><time>2026-03-30T13:30:53Z</time></trkpt><trkpt lat="48.37164183019107" lon="-4.527966006229979"><ele>66.0</ele><time>2026-03-30T13:30:55Z</time></trkpt><trkpt lat="48.371691672380194" lon="-4.527853384333216"><ele>66.0</ele><time>2026-03-30T13:30:58Z</time></trkpt><trkpt lat="48.37173825304958" lon="-4.52774813265969"><ele>66.0</ele><time>2026-03-30T13:31:00Z</time></trkpt><trkpt lat="48.37180528072365" lon="-4.527596679780411"><ele>66.0</ele><time>2026-03-30T13:31:02Z</time></trkpt><trkpt lat="48.37188974374431" lon="-4.527564603595809"><ele>66.0</ele><time>2026-03-30T13:31:03Z</time></trkpt><trkpt lat="48.37195337420273" lon="-4.527453087899828"><ele>66.0</ele><time>2026-03-30T13:31:05Z</time></trkpt><trkpt lat="48.37203311172046" lon="-4.527342953224737"><ele>66.0</ele><time>2026-03-30T13:31:07Z</time></trkpt><trkpt lat="48.372093337440305" lon="-4.527246797350856"><ele>66.0</ele><time>2026-03-30T13:31:08Z</time></trkpt><trkpt lat="48.37213937314483" lon="-4.52716556809144"><ele>66.0</ele><time>2026-03-30T13:31:09Z</time></trkpt><trkpt lat="48.37218981339395" lon="-4.527107301948535"><ele>66.0</ele><time>2026-03-30T13:31:10Z</time></trkpt><trkpt lat="48.372236751085175" lon="-4.527019009472708"><ele>66.25</ele><time>2026-03-30T13:31:11Z</time></trkpt><trkpt lat="48.37244195494015" lon="-4.527041516359942"><ele>66.5</ele><time>2026-03-30T13:31:13Z</time></trkpt><trkpt lat="48.37248843798175" lon="-4.526960514611131"><ele>66.75</ele><time>2026-03-30T13:31:14Z</time></trkpt><trkpt lat="48.37254689971921" lon="-4.5268586376146915"><ele>67.0</ele><time>2026-03-30T13:31:15Z</time></trkpt><trkpt lat="48.372603016423774" lon="-4.526760851623094"><ele>67.0</ele><time>2026-03-30T13:31:16Z</time></trkpt><trkpt lat="48.37265050615514" lon="-4.52667809847707"><ele>67.0</ele><time>2026-03-30T13:31:17Z</time></trkpt><trkpt lat="48.37269705539232" lon="-4.526596984281642"><ele>67.0</ele><time>2026-03-30T13:31:18Z</time></trkpt><trkpt lat="48.37266307367457" lon="-4.526287217735719"><ele>67.0</ele><time>2026-03-30T13:31:20Z</time></trkpt><trkpt lat="48.37271916128032" lon="-4.526214206793286"><ele>67.0</ele><time>2026-03-30T13:31:21Z</time></trkpt><trkpt lat="48.372772534107234" lon="-4.526141705162063"><ele>65.8</ele><time>2026-03-30T13:31:22Z</time></trkpt><trkpt lat="48.372825832551285" lon="-4.5260164563744985"><ele>64.6</ele><time>2026-03-30T13:31:24Z</time></trkpt><trkpt lat="48.372861988732545" lon="-4.52585876052315"><ele>63.39999999999999</ele><time>2026-03-30T13:31:26Z</time></trkpt><trkpt lat="48.37287308409661" lon="-4.52573131224345"><ele>62.199999999999996</ele><time>2026-03-30T13:31:28Z</time></trkpt><trkpt lat="48.37290617822986" lon="-4.525594512399236"><ele>61.0</ele><time>2026-03-30T13:31:31Z</time></trkpt><trkpt lat="48.37297279314494" lon="-4.525568971867834"><ele>61.0</ele><time>2026-03-30T13:31:33Z</time></trkpt><trkpt lat="48.373049283463544" lon="-4.525605715756218"><ele>66.0</ele><time>2026-03-30T13:31:35Z</time></trkpt><trkpt lat="48.37326153413633" lon="-4.52561476769703"><ele>66.0</ele><time>2026-03-30T13:31:56.999Z</time></trkpt></trkseg></trk></gpx>